[[{"header":{"parameterUnit":"m.s-1","parameterCategory":1,"la1":31.0,"la2":29.5877,"lo1":-88.7671,"lo2":-86.6584,"dy":0.0162,"dx":0.0185,"nx":115,"ny":88,"refTime":"2023-03-06T06:00:00:Z","depth":0,"parameterNumber":2,"parameterNumberName":"U-component_of_WINDS"},"data":[0.0,0.0,0.0,0.0,0.0,0.0,0.0,0.0,0.0,0.0,0.0,0.0,0.0,0.0,0.0,0.0,0.0,0.0,0.0,0.0,0.0,0.0,0.0,0.0,0.0,0.0,0.0,0.0,0.0,0.0,0.0,0.0,0.0,0.0,0.0,0.0,0.0,0.0,0.0,0.0,0.0,0.0,0.0,0.0,0.0,0.0,0.0,0.0,0.0,0.0,0.0,0.0,0.0,0.0,0.0,0.0,0.0,0.0,0.0,0.0,0.0,0.0,0.0,0.0,0.0,0.0,0.0,0.0,0.0,0.0,0.0,0.0,0.0,0.0,0.0,0.0,0.0,0.0,0.0,0.0,0.0,0.0,0.0,0.0,0.0,0.0,0.0,0.0,0.0,0.0,0.0,0.0,0.0,0.0,0.0,0.0,0.0,0.0,0.0,0.0,0.0,0.0,0.0,0.0,0.0,0.0,0.0,0.0,0.0,0.0,0.0,0.0,0.0,0.0,0.0,0.0,0.0,0.0,0.0,0.0,0.0,0.0,0.0,0.0,0.0,0.0,0.0,0.0,0.0,0.0,0.0,0.0,0.0,0.0,0.0,0.0,0.0,0.0,0.0,0.0,0.0,0.0,0.0,0.0,0.0,0.0,0.0,0.0,0.0,0.0,0.0,0.0,0.0,0.0,0.0,0.0,0.0,0.0,0.0,0.0,0.0,0.0,0.0,0.0,0.0,0.0,0.0,0.0,0.0,0.0,0.0,0.0,0.0,0.0,0.0,0.0,0.0,0.0,0.0,0.0,0.0,0.0,0.0,0.0,0.0,0.0,0.0,0.0,0.0,0.0,0.0,0.0,0.0,0.0,0.0,0.0,0.0,0.0,0.0,0.0,0.0,0.0,0.0,0.0,0.0,0.0,0.0,0.0,0.0,0.0,0.0,0.0,0.0,0.0,0.0,0.0,0.0,0.0,0.0,0.0,0.0,0.0,0.0,0.0,0.0,0.0,0.0,0.0,0.0,0.0,0.0,0.0,0.0,0.0,0.0,0.0,0.0,0.0,0.0,0.0,0.0,0.0,0.0,0.0,0.0,0.0,0.0,0.0,0.0,0.0,0.0,0.0,0.0,0.0,0.0,0.0,0.0,0.0,0.0,0.0,0.0,0.0,0.0,0.0,0.0,0.0,0.0,0.0,0.0,0.0,0.0,0.0,0.0,0.0,0.0,0.0,0.0,0.0,0.0,0.0,0.0,0.0,0.0,0.0,0.0,0.0,0.0,0.0,0.0,0.0,0.0,0.0,0.0,0.0,0.0,0.0,0.0,0.0,0.0,0.0,0.0,0.0,0.0,0.0,0.0,0.0,0.0,0.0,0.0,0.0,0.0,0.0,0.0,0.0,0.0,0.0,0.0,0.0,0.0,0.0,0.0,0.0,0.0,0.0,0.0,0.0,0.0,0.0,0.0,0.0,0.0,0.0,0.0,0.0,0.0,0.0,0.0,0.0,0.0,0.0,0.0,0.0,0.0,0.0,0.0,0.0,0.0,0.0,0.0,0.0,0.0,0.0,0.0,0.0,0.0,0.0,0.0,0.0,0.0,0.0,0.0,0.0,0.0,0.0,0.0,0.0,0.0,0.0,0.0,0.0,0.0,0.0,0.0,0.0,0.0,0.0,0.0,0.0,0.0,0.0,0.0,0.0,0.0,0.0,0.0,0.0,0.0,0.0,0.0,0.0,0.0,0.0,0.0,0.0,0.0,0.0,0.0,0.0,0.0,0.0,0.0,0.0,0.0,0.0,0.0,0.0,0.0,0.0,0.0,0.0,0.0,0.0,0.0,0.0,0.0,0.0,0.0,0.0,0.0,0.0,0.0,0.0,0.0,0.0,0.0,0.0,0.0,0.0,0.0,0.0,0.0,0.0,0.0,0.0,0.0,0.0,0.0,0.0,0.0,0.0,0.0,0.0,0.0,0.0,0.0,0.0,0.0,0.0,0.0,0.0,0.0,0.0,0.0,0.0,0.0,0.0,0.0,0.0,0.0,0.0,0.0,0.0,0.0,0.0,0.0,0.0,0.0,0.0,0.0,0.0,0.0,0.0,0.0,0.0,0.0,0.0,0.0,0.0,0.0,0.0,0.0,0.0,0.0,0.0,0.0,0.0,0.0,0.0,0.0,0.0,0.0,0.0,0.0,0.0,0.0,0.0,0.0,0.0,0.0,0.0,0.0,0.0,0.0,0.0,0.0,0.0,0.0,0.0,0.0,0.0,0.0,0.0,0.0,0.0,0.0,0.0,0.0,0.0,0.0,0.0,0.0,0.0,0.0,0.0,0.0,0.0,0.0,0.0,0.0,0.0,0.0,0.0,0.0,0.0,0.0,0.0,0.0,0.0,0.0,0.0,0.0,0.0,0.0,0.0,0.0,0.0,0.0,0.0,0.0,0.0,0.0,0.0,0.0,0.0,0.0,0.0,0.0,0.0,0.0,0.0,0.0,0.0,0.0,0.0,0.0,0.0,0.0,0.0,0.0,0.0,0.0,0.0,0.0,0.0,0.0,0.0,0.0,0.0,0.0,0.0,0.0,0.0,0.0,0.0,0.0,0.0,0.0,0.0,0.0,0.0,0.0,0.0,0.0,0.0,0.0,0.0,0.0,0.0,0.0,0.0,0.0,0.0,0.0,0.0,0.0,0.0,0.0,0.0,0.0,0.0,0.0,0.0,0.0,0.0,0.0,0.0,0.0,0.0,0.0,0.0,0.0,0.0,0.0,0.0,0.0,0.0,0.0,0.0,0.0,0.0,0.0,0.0,0.0,0.0,0.0,0.0,0.0,0.0,0.0,0.0,0.0,0.0,0.0,0.0,0.0,0.0,0.0,0.0,0.0,0.0,0.0,0.0,0.0,0.0,0.0,0.0,0.0,0.0,0.0,0.0,0.0,0.0,0.0,0.0,0.0,0.0,0.0,0.0,0.0,0.0,0.0,0.0,0.0,0.0,0.0,0.0,0.0,0.0,0.0,0.0,0.0,0.0,0.0,0.0,0.0,0.0,0.0,0.0,0.0,0.0,0.0,0.0,0.0,0.0,0.0,0.0,0.0,0.0,0.0,0.0,0.0,0.0,0.0,0.0,0.0,0.0,0.0,0.0,0.0,0.0,0.0,0.0,0.0,0.0,0.0,0.0,0.0,0.0,0.0,0.0,0.0,0.0,0.0,0.0,0.0,0.0,0.0,0.0,0.0,0.0,0.0,0.0,0.0,0.0,0.0,0.0,0.0,0.0,0.0,0.0,0.0,0.0,0.0,0.0,0.0,0.0,0.0,0.0,0.0,0.0,0.0,0.0,0.0,0.0,0.0,0.0,0.0,0.0,0.0,0.0,0.0,0.0,0.0,0.0,0.0,0.0,0.0,0.0,0.0,0.0,0.0,0.0,0.0,0.0,0.0,0.0,0.0,0.0,0.0,0.0,0.0,0.0,0.0,0.0,0.0,0.0,0.0,0.0,0.0,0.0,0.0,0.0,0.0,0.0,0.0,0.0,0.0,0.0,0.0,0.0,0.0,0.0,0.0,0.0,0.0,0.0,0.0,0.0,0.0,0.0,0.0,0.0,0.0,0.0,0.0,0.0,0.0,0.0,0.0,0.0,0.0,0.0,0.0,0.0,0.0,0.0,0.0,0.0,0.0,0.0,0.0,0.0,0.0,0.0,0.0,0.0,0.0,0.0,0.0,0.0,0.0,0.0,0.0,0.0,0.0,0.0,0.0,0.0,0.0,0.0,0.0,0.0,0.0,0.0,0.0,0.0,0.0,0.0,0.0,0.0,0.0,0.0,0.0,0.0,0.0,0.0,0.0,0.0,0.0,0.0,0.0,0.0,0.0,0.0,0.0,0.0,0.0,0.0,0.0,0.0,0.0,0.0,0.0,0.0,0.0,0.0,0.0,0.0,0.0,0.0,0.0,0.0,0.0,0.0,0.0,0.0,0.0,0.0,0.0,0.0,0.0,0.0,0.0,0.0,0.0,0.0,0.0,0.0,0.0,0.0,0.0,0.0,0.0,0.0,0.0,0.0,0.0,0.0,0.0,0.0,0.0,0.0,0.0,0.0,0.0,0.0,0.0,0.0,0.0,0.0,0.0,0.0,0.0,0.0,0.0,0.0,0.0,0.0,0.0,0.0,0.0,0.0,0.0,0.0,0.0,0.0,0.0,0.0,0.0,0.0,0.0,0.0,0.0,0.0,0.0,0.0,0.0,0.0,0.0,0.0,0.0,0.0,0.0,0.0,0.0,0.0,3.2398,0.0,0.0,0.0,0.0,0.0,0.0,0.0,0.0,0.0,0.0,0.0,0.0,0.0,0.0,0.0,0.0,0.0,0.0,0.0,0.0,0.0,0.0,0.0,0.0,0.0,0.0,0.0,0.0,0.0,0.0,0.0,0.0,0.0,0.0,0.0,0.0,0.0,0.0,0.0,0.0,0.0,0.0,0.0,0.0,0.0,0.0,0.0,0.0,0.0,0.0,0.0,0.0,0.0,0.0,0.0,0.0,0.0,0.0,0.0,0.0,0.0,0.0,0.0,0.0,0.0,0.0,0.0,0.0,0.0,0.0,0.0,0.0,0.0,0.0,0.0,0.0,0.0,0.0,0.0,0.0,0.0,0.0,0.0,0.0,0.0,0.0,0.0,0.0,0.0,0.0,0.0,0.0,0.0,0.0,0.0,0.0,0.0,0.0,0.0,0.0,0.0,0.0,0.0,0.0,0.0,0.0,0.0,0.0,0.0,0.0,3.2398,3.2398,3.2398,3.2398,3.2398,0.0,0.0,0.0,0.0,0.0,0.0,0.0,0.0,0.0,0.0,0.0,0.0,0.0,0.0,0.0,0.0,0.0,0.0,0.0,0.0,0.0,0.0,0.0,0.0,0.0,0.0,0.0,0.0,0.0,0.0,0.0,0.0,0.0,0.0,0.0,0.0,0.0,0.0,0.0,0.0,0.0,0.0,0.0,0.0,0.0,0.0,0.0,0.0,0.0,0.0,0.0,0.0,0.0,0.0,0.0,0.0,0.0,0.0,0.0,0.0,0.0,0.0,0.0,0.0,0.0,0.0,0.0,0.0,0.0,0.0,0.0,0.0,0.0,0.0,0.0,0.0,0.0,0.0,0.0,0.0,0.0,0.0,0.0,0.0,0.0,0.0,0.0,0.0,0.0,0.0,0.0,0.0,0.0,0.0,0.0,0.0,0.0,0.0,0.0,0.0,0.0,0.0,0.0,0.0,0.0,0.0,0.0,0.0,0.0,0.0,0.0,0.0,3.2398,3.2398,3.2398,0.0,0.0,0.0,0.0,0.0,0.0,0.0,0.0,0.0,0.0,0.0,0.0,0.0,0.0,0.0,0.0,0.0,0.0,0.0,0.0,0.0,0.0,0.0,0.0,0.0,0.0,0.0,0.0,0.0,0.0,0.0,0.0,0.0,0.0,0.0,0.0,0.0,0.0,0.0,0.0,0.0,0.0,0.0,0.0,0.0,0.0,0.0,0.0,0.0,0.0,0.0,0.0,0.0,0.0,0.0,0.0,0.0,0.0,0.0,0.0,0.0,0.0,0.0,0.0,0.0,0.0,0.0,0.0,0.0,0.0,0.0,0.0,0.0,0.0,0.0,0.0,0.0,0.0,0.0,0.0,0.0,0.0,0.0,0.0,0.0,0.0,0.0,0.0,0.0,0.0,0.0,0.0,0.0,0.0,0.0,0.0,0.0,0.0,0.0,0.0,0.0,0.0,0.0,0.0,0.0,0.0,0.0,0.0,0.0,0.0,3.2398,3.2398,3.2398,0.0,3.2398,0.0,0.0,0.0,0.0,0.0,0.0,0.0,0.0,0.0,0.0,0.0,0.0,0.0,0.0,0.0,0.0,0.0,0.0,0.0,0.0,0.0,0.0,0.0,0.0,0.0,0.0,0.0,0.0,0.0,0.0,0.0,0.0,0.0,0.0,0.0,0.0,0.0,0.0,0.0,0.0,0.0,0.0,0.0,0.0,0.0,0.0,0.0,0.0,0.0,0.0,0.0,0.0,0.0,0.0,0.0,0.0,0.0,0.0,0.0,0.0,0.0,0.0,0.0,0.0,0.0,0.0,0.0,0.0,0.0,0.0,0.0,0.0,0.0,0.0,0.0,0.0,0.0,0.0,0.0,0.0,0.0,0.0,0.0,0.0,0.0,0.0,0.0,0.0,0.0,0.0,0.0,0.0,0.0,0.0,0.0,0.0,0.0,0.0,0.0,0.0,0.0,0.0,0.0,0.0,0.0,0.0,0.0,0.0,0.0,0.0,3.2398,3.2398,3.2398,3.2398,0.0,0.0,0.0,0.0,0.0,0.0,0.0,0.0,0.0,0.0,0.0,0.0,0.0,0.0,0.0,0.0,0.0,0.0,0.0,0.0,0.0,0.0,0.0,0.0,0.0,0.0,0.0,0.0,0.0,0.0,0.0,0.0,0.0,0.0,0.0,0.0,0.0,0.0,0.0,0.0,0.0,0.0,0.0,0.0,0.0,0.0,0.0,0.0,0.0,0.0,0.0,0.0,0.0,0.0,0.0,0.0,0.0,0.0,0.0,0.0,0.0,0.0,0.0,0.0,0.0,0.0,0.0,0.0,0.0,0.0,0.0,0.0,0.0,0.0,0.0,0.0,0.0,0.0,0.0,0.0,0.0,0.0,0.0,0.0,0.0,0.0,0.0,0.0,0.0,0.0,0.0,0.0,0.0,0.0,0.0,0.0,0.0,0.0,0.0,0.0,0.0,0.0,0.0,0.0,0.0,0.0,0.0,0.0,0.0,0.0,3.2398,3.2398,3.2398,3.2398,3.2398,3.2398,0.0,0.0,0.0,0.0,0.0,0.0,0.0,0.0,0.0,0.0,0.0,0.0,0.0,0.0,0.0,0.0,0.0,0.0,0.0,0.0,0.0,0.0,0.0,0.0,0.0,0.0,0.0,0.0,0.0,0.0,0.0,0.0,0.0,0.0,0.0,0.0,0.0,0.0,0.0,0.0,0.0,0.0,0.0,0.0,0.0,0.0,0.0,0.0,0.0,0.0,0.0,0.0,0.0,0.0,0.0,0.0,0.0,0.0,0.0,0.0,0.0,0.0,0.0,0.0,0.0,0.0,0.0,0.0,0.0,0.0,0.0,0.0,0.0,0.0,0.0,0.0,0.0,0.0,0.0,0.0,0.0,0.0,0.0,0.0,0.0,0.0,0.0,0.0,0.0,0.0,0.0,0.0,0.0,0.0,0.0,0.0,0.0,0.0,0.0,0.0,0.0,0.0,0.0,0.0,0.0,0.0,0.0,0.0,3.2398,3.2382,3.2382,3.2367,3.2398,3.2398,0.0,0.0,0.0,0.0,0.0,0.0,0.0,0.0,0.0,0.0,0.0,0.0,0.0,0.0,0.0,0.0,0.0,0.0,0.0,0.0,0.0,0.0,0.0,0.0,0.0,0.0,0.0,0.0,0.0,0.0,0.0,0.0,0.0,0.0,0.0,0.0,0.0,0.0,0.0,0.0,0.0,0.0,0.0,0.0,0.0,0.0,0.0,0.0,0.0,0.0,0.0,0.0,0.0,0.0,0.0,0.0,0.0,0.0,0.0,0.0,0.0,0.0,0.0,0.0,0.0,0.0,0.0,0.0,0.0,0.0,0.0,0.0,0.0,0.0,0.0,0.0,0.0,0.0,0.0,0.0,0.0,0.0,0.0,0.0,0.0,0.0,0.0,0.0,0.0,0.0,0.0,0.0,0.0,0.0,0.0,0.0,0.0,0.0,0.0,0.0,0.0,0.0,0.0,0.0,0.0,0.0,0.0,0.0,0.0,3.2382,3.1967,3.1643,3.1415,3.1628,3.1859,0.0,0.0,0.0,0.0,0.0,0.0,0.0,0.0,0.0,0.0,0.0,0.0,0.0,0.0,0.0,0.0,0.0,0.0,0.0,0.0,0.0,0.0,0.0,0.0,0.0,0.0,0.0,0.0,0.0,0.0,0.0,0.0,0.0,0.0,0.0,0.0,0.0,0.0,0.0,0.0,0.0,0.0,0.0,0.0,0.0,0.0,0.0,0.0,0.0,0.0,0.0,0.0,0.0,0.0,0.0,0.0,0.0,0.0,0.0,0.0,0.0,0.0,0.0,0.0,0.0,0.0,0.0,0.0,0.0,0.0,0.0,0.0,0.0,0.0,0.0,0.0,0.0,0.0,0.0,0.0,0.0,0.0,0.0,0.0,0.0,0.0,0.0,0.0,0.0,0.0,0.0,0.0,0.0,0.0,0.0,0.0,0.0,0.0,0.0,0.0,0.0,0.0,0.0,0.0,0.0,0.0,0.0,0.0,0.0,3.268,0.0,3.2003,3.1667,3.192,3.2011,0.0,0.0,0.0,0.0,0.0,0.0,0.0,0.0,0.0,0.0,0.0,0.0,0.0,0.0,0.0,0.0,0.0,0.0,0.0,0.0,0.0,0.0,0.0,0.0,0.0,0.0,0.0,0.0,0.0,0.0,0.0,0.0,0.0,0.0,0.0,0.0,0.0,0.0,0.0,0.0,0.0,0.0,0.0,0.0,0.0,0.0,0.0,0.0,0.0,0.0,0.0,0.0,0.0,0.0,0.0,0.0,0.0,0.0,0.0,0.0,0.0,0.0,0.0,0.0,0.0,0.0,0.0,0.0,0.0,0.0,0.0,0.0,0.0,0.0,0.0,0.0,0.0,0.0,0.0,0.0,0.0,0.0,0.0,0.0,0.0,0.0,0.0,0.0,0.0,0.0,0.0,0.0,0.0,0.0,0.0,0.0,0.0,0.0,0.0,0.0,0.0,0.0,0.0,0.0,0.0,0.0,0.0,0.0,3.2749,3.3323,3.3566,3.3486,3.336,3.3296,3.3045,0.0,0.0,0.0,0.0,0.0,0.0,0.0,0.0,0.0,0.0,0.0,0.0,0.0,0.0,0.0,0.0,0.0,0.0,0.0,0.0,0.0,0.0,0.0,0.0,0.0,0.0,0.0,0.0,0.0,0.0,0.0,0.0,0.0,0.0,0.0,0.0,0.0,0.0,0.0,0.0,0.0,0.0,0.0,0.0,0.0,0.0,0.0,0.0,0.0,0.0,0.0,0.0,0.0,0.0,0.0,0.0,0.0,0.0,0.0,0.0,0.0,0.0,0.0,0.0,0.0,0.0,0.0,0.0,0.0,0.0,0.0,0.0,0.0,0.0,0.0,0.0,0.0,0.0,0.0,0.0,0.0,0.0,0.0,0.0,0.0,0.0,0.0,0.0,0.0,0.0,0.0,0.0,0.0,0.0,0.0,0.0,0.0,0.0,0.0,0.0,0.0,0.0,0.0,0.0,0.0,0.0,0.0,0.0,0.0,3.2064,3.2538,3.252,3.1905,3.2437,3.2606,0.0,0.0,0.0,0.0,0.0,0.0,0.0,0.0,0.0,0.0,0.0,0.0,0.0,0.0,0.0,0.0,0.0,0.0,0.0,0.0,0.0,0.0,0.0,0.0,0.0,0.0,0.0,0.0,0.0,0.0,0.0,0.0,0.0,0.0,0.0,0.0,0.0,0.0,0.0,0.0,0.0,0.0,0.0,0.0,0.0,0.0,0.0,0.0,0.0,0.0,0.0,0.0,0.0,0.0,0.0,0.0,0.0,0.0,0.0,0.0,0.0,0.0,0.0,0.0,0.0,0.0,0.0,0.0,0.0,0.0,0.0,0.0,0.0,0.0,0.0,0.0,0.0,0.0,0.0,0.0,0.0,0.0,0.0,0.0,0.0,0.0,0.0,0.0,0.0,0.0,0.0,0.0,0.0,0.0,0.0,0.0,0.0,0.0,0.0,0.0,0.0,0.0,0.0,0.0,0.0,0.0,0.0,0.0,0.0,3.3197,3.347,3.3401,3.2982,3.3235,3.3042,3.2521,0.0,0.0,0.0,0.0,0.0,0.0,0.0,0.0,0.0,0.0,0.0,0.0,0.0,0.0,0.0,0.0,0.0,0.0,0.0,0.0,0.0,0.0,0.0,0.0,0.0,0.0,0.0,0.0,0.0,0.0,0.0,0.0,0.0,0.0,0.0,0.0,0.0,0.0,0.0,0.0,0.0,0.0,0.0,0.0,0.0,0.0,0.0,0.0,0.0,0.0,0.0,0.0,0.0,0.0,0.0,0.0,0.0,0.0,0.0,0.0,0.0,0.0,0.0,0.0,0.0,0.0,0.0,0.0,0.0,0.0,0.0,0.0,0.0,0.0,0.0,0.0,0.0,0.0,0.0,0.0,0.0,0.0,0.0,0.0,0.0,0.0,0.0,0.0,0.0,0.0,0.0,0.0,0.0,0.0,0.0,0.0,0.0,0.0,0.0,0.0,0.0,0.0,0.0,0.0,0.0,0.0,0.0,0.0,3.6222,3.5985,3.5943,3.5992,3.5375,3.4393,0.0,0.0,0.0,0.0,0.0,0.0,0.0,0.0,0.0,0.0,0.0,0.0,0.0,0.0,0.0,0.0,0.0,0.0,0.0,0.0,0.0,0.0,0.0,0.0,0.0,0.0,0.0,0.0,0.0,0.0,0.0,0.0,0.0,0.0,0.0,0.0,0.0,0.0,0.0,0.0,0.0,0.0,0.0,0.0,0.0,0.0,0.0,0.0,0.0,0.0,0.0,0.0,0.0,0.0,0.0,0.0,0.0,0.0,0.0,0.0,0.0,0.0,0.0,0.0,0.0,0.0,0.0,0.0,0.0,0.0,0.0,0.0,0.0,0.0,0.0,0.0,0.0,0.0,0.0,0.0,0.0,0.0,0.0,0.0,0.0,0.0,0.0,0.0,0.0,0.0,0.0,0.0,0.0,0.0,0.0,0.0,0.0,0.0,0.0,0.0,0.0,0.0,0.0,0.0,0.0,0.0,0.0,0.0,0.0,3.7524,3.7916,3.7887,3.7584,3.6715,3.5646,0.0,0.0,0.0,0.0,0.0,0.0,0.0,0.0,0.0,0.0,0.0,0.0,0.0,0.0,0.0,0.0,0.0,0.0,0.0,0.0,0.0,0.0,0.0,0.0,0.0,0.0,0.0,0.0,0.0,0.0,0.0,0.0,0.0,0.0,0.0,0.0,0.0,0.0,0.0,0.0,0.0,0.0,0.0,0.0,0.0,0.0,0.0,0.0,0.0,0.0,0.0,0.0,0.0,0.0,0.0,0.0,0.0,0.0,0.0,0.0,0.0,0.0,0.0,0.0,0.0,0.0,0.0,0.0,0.0,0.0,0.0,0.0,0.0,0.0,0.0,0.0,0.0,0.0,0.0,0.0,0.0,0.0,0.0,0.0,0.0,0.0,0.0,0.0,0.0,0.0,0.0,0.0,0.0,0.0,0.0,0.0,0.0,0.0,0.0,0.0,0.0,0.0,0.0,0.0,0.0,0.0,0.0,0.0,3.6767,3.9384,4.0492,4.0845,4.0403,3.8492,3.6776,0.0,0.0,0.0,0.0,0.0,0.0,0.0,0.0,0.0,0.0,0.0,0.0,0.0,0.0,0.0,0.0,0.0,0.0,0.0,0.0,0.0,0.0,0.0,0.0,0.0,0.0,0.0,0.0,0.0,0.0,0.0,0.0,0.0,0.0,0.0,0.0,0.0,0.0,0.0,0.0,0.0,0.0,0.0,0.0,0.0,0.0,0.0,0.0,0.0,0.0,0.0,0.0,0.0,0.0,0.0,0.0,0.0,0.0,0.0,0.0,0.0,0.0,0.0,0.0,0.0,0.0,0.0,0.0,0.0,0.0,0.0,0.0,0.0,0.0,0.0,0.0,0.0,0.0,0.0,0.0,0.0,0.0,0.0,0.0,0.0,0.0,0.0,0.0,0.0,0.0,0.0,0.0,0.0,0.0,0.0,0.0,0.0,0.0,0.0,0.0,0.0,0.0,0.0,0.0,0.0,0.0,0.0,0.0,3.839,4.1132,4.2949,4.3772,4.3512,4.0369,3.7825,0.0,0.0,0.0,0.0,0.0,0.0,0.0,0.0,0.0,0.0,0.0,0.0,0.0,0.0,0.0,0.0,0.0,0.0,0.0,0.0,0.0,0.0,0.0,0.0,0.0,0.0,0.0,0.0,0.0,0.0,0.0,0.0,0.0,0.0,0.0,0.0,0.0,0.0,0.0,0.0,0.0,0.0,0.0,0.0,0.0,0.0,0.0,0.0,0.0,0.0,0.0,0.0,0.0,0.0,0.0,0.0,0.0,0.0,0.0,0.0,0.0,0.0,0.0,0.0,0.0,0.0,0.0,0.0,0.0,0.0,0.0,0.0,0.0,0.0,0.0,0.0,0.0,0.0,0.0,0.0,0.0,0.0,0.0,0.0,0.0,0.0,0.0,0.0,0.0,0.0,0.0,0.0,0.0,0.0,0.0,0.0,0.0,0.0,0.0,0.0,0.0,0.0,0.0,0.0,0.0,0.0,0.0,0.0,3.8327,4.1115,4.2598,4.3723,4.469,4.1579,3.8792,0.0,0.0,0.0,0.0,0.0,0.0,0.0,0.0,0.0,0.0,0.0,0.0,0.0,0.0,0.0,0.0,0.0,0.0,0.0,0.0,0.0,0.0,0.0,0.0,0.0,0.0,0.0,0.0,0.0,0.0,0.0,0.0,0.0,0.0,0.0,0.0,0.0,0.0,0.0,0.0,0.0,0.0,0.0,0.0,0.0,0.0,0.0,0.0,2.4189,0.0,0.0,0.0,0.0,0.0,0.0,0.0,0.0,0.0,0.0,0.0,0.0,0.0,0.0,0.0,0.0,0.0,0.0,0.0,0.0,0.0,0.0,0.0,0.0,0.0,0.0,0.0,0.0,0.0,0.0,0.0,0.0,0.0,0.0,0.0,0.0,0.0,0.0,0.0,0.0,0.0,0.0,0.0,0.0,0.0,0.0,0.0,0.0,0.0,0.0,0.0,0.0,0.0,0.0,0.0,0.0,0.0,0.0,0.0,3.9374,4.1798,4.3379,4.4253,4.4349,4.2446,4.027,0.0,0.0,0.0,0.0,0.0,0.0,0.0,0.0,0.0,0.0,0.0,0.0,0.0,0.0,0.0,0.0,0.0,0.0,0.0,0.0,0.0,0.0,0.0,0.0,0.0,0.0,0.0,0.0,0.0,0.0,0.0,0.0,0.0,0.0,0.0,0.0,0.0,0.0,0.0,0.0,0.0,0.0,0.0,0.0,0.0,0.0,0.0,0.0,0.0,0.0,0.0,0.0,0.0,0.0,0.0,0.0,0.0,0.0,0.0,0.0,0.0,0.0,0.0,0.0,0.0,0.0,0.0,0.0,0.0,0.0,0.0,0.0,0.0,0.0,0.0,0.0,0.0,0.0,0.0,0.0,0.0,0.0,0.0,0.0,0.0,0.0,0.0,0.0,0.0,0.0,0.0,0.0,0.0,0.0,0.0,0.0,0.0,0.0,0.0,0.0,0.0,0.0,0.0,0.0,0.0,0.0,0.0,3.8383,4.0594,4.2568,4.4352,4.4819,4.3775,4.3011,4.1484,3.9092,0.0,0.0,0.0,0.0,0.0,0.0,0.0,0.0,0.0,0.0,0.0,0.0,0.0,0.0,0.0,0.0,0.0,0.0,0.0,0.0,0.0,0.0,0.0,0.0,0.0,0.0,0.0,0.0,0.0,0.0,0.0,0.0,0.0,0.0,0.0,0.0,0.0,0.0,2.4292,2.4303,0.0,0.0,0.0,0.0,0.0,0.0,0.0,0.0,2.4648,0.0,0.0,0.0,0.0,0.0,0.0,0.0,0.0,0.0,0.0,0.0,0.0,0.0,0.0,0.0,0.0,0.0,0.0,0.0,0.0,0.0,0.0,0.0,0.0,0.0,0.0,0.0,0.0,0.0,0.0,0.0,0.0,0.0,0.0,0.0,0.0,0.0,0.0,0.0,0.0,0.0,0.0,0.0,0.0,0.0,0.0,0.0,0.0,0.0,0.0,0.0,0.0,0.0,0.0,0.0,0.0,3.5923,3.8566,4.0833,4.2584,4.4336,4.4819,4.3706,4.272,4.0923,3.834,0.0,0.0,0.0,0.0,0.0,0.0,0.0,0.0,0.0,0.0,0.0,0.0,0.0,0.0,0.0,0.0,0.0,0.0,0.0,0.0,0.0,0.0,0.0,0.0,0.0,0.0,0.0,0.0,0.0,0.0,0.0,0.0,0.0,0.0,0.0,0.0,0.0,0.0,0.0,2.4797,2.4797,0.0,0.0,0.0,0.0,0.0,0.0,0.0,0.0,2.5302,0.0,0.0,0.0,0.0,0.0,0.0,0.0,0.0,0.0,0.0,0.0,0.0,0.0,0.0,0.0,0.0,0.0,0.0,0.0,0.0,0.0,0.0,0.0,0.0,0.0,0.0,0.0,0.0,0.0,0.0,0.0,0.0,0.0,0.0,0.0,0.0,0.0,0.0,0.0,0.0,0.0,0.0,0.0,0.0,0.0,0.0,0.0,0.0,0.0,0.0,0.0,0.0,0.0,0.0,0.0,3.7281,3.98,4.1751,4.3098,4.4519,4.4678,4.3411,4.2582,4.0805,0.0,0.0,0.0,0.0,0.0,0.0,0.0,0.0,0.0,0.0,0.0,0.0,0.0,0.0,0.0,0.0,0.0,0.0,0.0,0.0,0.0,0.0,0.0,0.0,0.0,0.0,0.0,0.0,0.0,0.0,0.0,0.0,0.0,0.0,0.0,0.0,0.0,0.0,0.0,0.0,2.4912,2.5015,2.5291,0.0,0.0,0.0,0.0,0.0,0.0,2.5716,2.5624,0.0,0.0,0.0,0.0,0.0,0.0,0.0,0.0,0.0,0.0,0.0,0.0,0.0,0.0,0.0,0.0,0.0,0.0,0.0,0.0,0.0,0.0,0.0,0.0,0.0,0.0,0.0,0.0,0.0,0.0,0.0,0.0,0.0,0.0,0.0,0.0,0.0,0.0,0.0,0.0,0.0,0.0,0.0,0.0,0.0,0.0,0.0,0.0,0.0,0.0,0.0,0.0,0.0,0.0,0.0,3.8492,4.0851,4.2614,4.3584,4.4666,4.4518,4.3018,4.2179,4.052,0.0,0.0,0.0,0.0,0.0,0.0,0.0,0.0,0.0,0.0,0.0,0.0,0.0,0.0,0.0,0.0,0.0,0.0,0.0,0.0,0.0,0.0,0.0,0.0,0.0,0.0,0.0,0.0,0.0,0.0,0.0,0.0,0.0,0.0,0.0,0.0,0.0,0.0,0.0,0.0,0.0,2.5417,2.5934,2.6014,0.0,0.0,0.0,0.0,2.6565,2.645,0.0,0.0,0.0,0.0,0.0,0.0,0.0,0.0,0.0,0.0,0.0,0.0,0.0,0.0,0.0,0.0,0.0,0.0,0.0,0.0,0.0,0.0,0.0,0.0,0.0,0.0,0.0,0.0,0.0,0.0,0.0,0.0,0.0,0.0,0.0,0.0,0.0,0.0,0.0,0.0,0.0,0.0,0.0,0.0,0.0,0.0,0.0,0.0,0.0,0.0,0.0,0.0,0.0,0.0,0.0,0.0,3.8492,4.0904,4.2614,4.3584,4.4666,4.4371,4.2705,4.1395,3.9437,0.0,0.0,0.0,0.0,0.0,0.0,0.0,0.0,0.0,0.0,0.0,0.0,0.0,0.0,0.0,0.0,0.0,0.0,0.0,0.0,0.0,0.0,0.0,0.0,0.0,0.0,0.0,0.0,0.0,0.0,0.0,0.0,0.0,0.0,0.0,0.0,0.0,0.0,0.0,0.0,0.0,2.6473,2.6978,2.7059,2.6898,0.0,0.0,2.707,2.7128,2.7816,0.0,0.0,0.0,0.0,0.0,0.0,0.0,0.0,0.0,0.0,0.0,0.0,0.0,0.0,0.0,0.0,0.0,0.0,0.0,0.0,0.0,0.0,0.0,0.0,0.0,0.0,0.0,0.0,0.0,0.0,0.0,0.0,0.0,0.0,0.0,0.0,0.0,0.0,0.0,0.0,0.0,0.0,0.0,0.0,0.0,0.0,0.0,0.0,0.0,0.0,0.0,0.0,0.0,0.0,0.0,3.7246,3.9616,4.1434,4.2932,4.4079,4.4644,4.4164,4.2633,4.1388,3.9462,0.0,0.0,0.0,0.0,0.0,0.0,0.0,0.0,0.0,0.0,0.0,0.0,0.0,0.0,0.0,0.0,0.0,0.0,0.0,0.0,0.0,0.0,0.0,0.0,0.0,0.0,0.0,0.0,0.0,0.0,0.0,0.0,0.0,0.0,0.0,0.0,0.0,0.0,0.0,0.0,0.0,0.0,2.7541,2.7885,0.0,0.0,0.0,2.8057,2.8069,0.0,0.0,0.0,0.0,0.0,0.0,0.0,0.0,0.0,0.0,0.0,0.0,0.0,0.0,0.0,0.0,0.0,0.0,0.0,0.0,0.0,0.0,0.0,0.0,0.0,0.0,0.0,0.0,0.0,0.0,0.0,0.0,0.0,0.0,0.0,0.0,0.0,0.0,0.0,0.0,0.0,0.0,0.0,0.0,0.0,0.0,0.0,0.0,0.0,0.0,0.0,0.0,0.0,0.0,0.0,0.0,0.0,4.0478,4.1909,4.3248,4.451,4.4572,4.4033,4.2863,4.1705,0.0,0.0,0.0,0.0,0.0,0.0,0.0,0.0,0.0,0.0,0.0,0.0,0.0,0.0,0.0,0.0,0.0,0.0,0.0,0.0,0.0,0.0,0.0,0.0,0.0,0.0,0.0,2.4912,0.0,0.0,0.0,0.0,0.0,0.0,0.0,0.0,0.0,0.0,0.0,0.0,0.0,0.0,2.7162,2.8035,2.8745,2.9057,0.0,0.0,2.9057,2.8896,2.8999,2.8735,0.0,0.0,0.0,0.0,0.0,0.0,0.0,0.0,0.0,0.0,0.0,0.0,0.0,0.0,0.0,0.0,0.0,0.0,0.0,0.0,0.0,0.0,0.0,0.0,0.0,0.0,0.0,0.0,0.0,0.0,0.0,0.0,0.0,0.0,0.0,0.0,0.0,0.0,0.0,0.0,0.0,0.0,0.0,0.0,0.0,0.0,0.0,0.0,0.0,0.0,0.0,0.0,0.0,0.0,0.0,4.0462,4.1894,4.3248,4.451,4.4572,4.4233,4.351,4.2217,4.0524,0.0,0.0,0.0,0.0,0.0,0.0,0.0,0.0,0.0,0.0,0.0,0.0,0.0,0.0,0.0,0.0,0.0,0.0,0.0,0.0,0.0,0.0,0.0,0.0,0.0,0.0,0.0,0.0,0.0,0.0,0.0,0.0,0.0,0.0,0.0,0.0,0.0,0.0,0.0,0.0,0.0,2.8057,2.8586,2.9675,3.019,0.0,0.0,3.019,2.9523,2.9814,2.9768,2.8758,0.0,0.0,0.0,0.0,0.0,0.0,0.0,0.0,0.0,0.0,0.0,0.0,0.0,0.0,0.0,0.0,0.0,0.0,0.0,0.0,0.0,0.0,0.0,0.0,0.0,0.0,0.0,0.0,0.0,0.0,0.0,0.0,0.0,0.0,0.0,0.0,0.0,0.0,0.0,0.0,0.0,0.0,0.0,0.0,0.0,0.0,0.0,0.0,0.0,0.0,0.0,0.0,0.0,3.7831,4.0493,4.1894,4.3248,4.4495,4.4572,4.4264,4.3587,4.2478,4.0993,0.0,0.0,0.0,0.0,0.0,0.0,0.0,0.0,0.0,0.0,0.0,0.0,0.0,0.0,0.0,0.0,0.0,0.0,0.0,0.0,0.0,0.0,0.0,0.0,0.0,0.0,0.0,0.0,2.7678,2.7726,2.6721,0.0,0.0,0.0,0.0,0.0,0.0,0.0,0.0,0.0,0.0,2.8927,2.9726,3.0477,0.0,0.0,3.1061,3.0966,3.0742,3.0501,2.9992,2.8972,2.7916,0.0,0.0,0.0,0.0,0.0,0.0,0.0,0.0,0.0,0.0,0.0,0.0,0.0,0.0,0.0,0.0,0.0,0.0,0.0,0.0,0.0,0.0,0.0,0.0,0.0,0.0,0.0,0.0,0.0,0.0,0.0,0.0,0.0,0.0,0.0,0.0,0.0,0.0,0.0,0.0,0.0,0.0,0.0,0.0,0.0,0.0,0.0,0.0,0.0,0.0,0.0,0.0,3.7831,4.0493,4.1894,4.3248,4.4556,4.4572,4.4416,4.4087,4.303,4.179,0.0,0.0,0.0,0.0,0.0,0.0,0.0,0.0,0.0,0.0,0.0,0.0,0.0,0.0,0.0,0.0,0.0,0.0,0.0,0.0,0.0,0.0,0.0,0.0,0.0,0.0,0.0,0.0,2.8768,2.8494,2.6829,0.0,0.0,0.0,0.0,0.0,0.0,0.0,0.0,0.0,0.0,2.9475,3.0205,3.0778,3.1173,3.1515,3.1168,3.0787,3.0675,3.0431,2.9951,2.9071,0.0,0.0,0.0,0.0,0.0,0.0,0.0,0.0,0.0,0.0,0.0,0.0,0.0,0.0,0.0,0.0,0.0,0.0,0.0,0.0,0.0,0.0,0.0,0.0,0.0,0.0,0.0,0.0,0.0,0.0,3.4083,0.0,0.0,0.0,0.0,0.0,0.0,0.0,0.0,0.0,0.0,0.0,0.0,0.0,0.0,0.0,0.0,0.0,0.0,0.0,0.0,0.0,0.0,3.7831,4.0509,4.1925,4.3248,4.4526,4.4572,4.4799,4.511,4.4087,4.3082,4.2022,0.0,0.0,0.0,0.0,0.0,0.0,0.0,0.0,0.0,0.0,0.0,0.0,0.0,0.0,0.0,0.0,0.0,0.0,0.0,0.0,0.0,0.0,0.0,0.0,0.0,0.0,2.8346,2.8825,2.8547,0.0,0.0,0.0,0.0,0.0,0.0,0.0,0.0,0.0,0.0,2.8738,2.9702,2.9915,3.029,3.0417,2.9964,2.9893,2.9603,2.897,2.9312,2.957,0.0,0.0,0.0,0.0,0.0,0.0,0.0,0.0,0.0,0.0,0.0,0.0,0.0,0.0,0.0,0.0,0.0,0.0,0.0,0.0,0.0,0.0,0.0,0.0,0.0,0.0,0.0,3.8267,3.7468,0.0,0.0,0.0,0.0,0.0,0.0,0.0,0.0,0.0,0.0,0.0,3.8929,3.9365,0.0,0.0,0.0,0.0,0.0,0.0,0.0,0.0,0.0,0.0,0.0,0.0,3.8508,4.1124,4.214,4.3248,4.4526,4.4572,4.4814,4.5173,4.4429,4.327,4.1834,0.0,0.0,0.0,0.0,0.0,0.0,0.0,0.0,0.0,0.0,0.0,0.0,0.0,0.0,0.0,0.0,0.0,0.0,0.0,0.0,0.0,0.0,0.0,0.0,0.0,2.9361,0.0,0.0,0.0,0.0,0.0,0.0,0.0,0.0,0.0,0.0,0.0,2.7454,2.8439,2.9302,3.018,3.1016,3.1178,3.1435,0.0,0.0,0.0,0.0,0.0,0.0,0.0,0.0,0.0,0.0,0.0,0.0,0.0,0.0,2.7908,2.6898,2.6726,2.6726,2.6726,0.0,0.0,0.0,0.0,0.0,0.0,0.0,0.0,0.0,0.0,0.0,0.0,0.0,0.0,4.0184,0.0,3.936,0.0,0.0,0.0,0.0,0.0,0.0,0.0,0.0,4.0197,4.0782,4.1148,4.1585,4.1224,0.0,4.0247,3.8862,0.0,0.0,0.0,0.0,0.0,0.0,0.0,0.0,3.9323,4.1524,4.2479,4.3587,4.4849,4.4926,4.5155,4.55,4.47,4.3646,4.2543,4.1209,3.989,0.0,0.0,0.0,0.0,0.0,0.0,0.0,0.0,0.0,0.0,0.0,0.0,0.0,0.0,0.0,0.0,0.0,0.0,0.0,0.0,0.0,0.0,0.0,2.99,0.0,0.0,0.0,0.0,0.0,0.0,0.0,0.0,0.0,2.6509,2.7336,2.8427,2.9254,2.9891,3.0553,3.1366,0.0,0.0,0.0,0.0,0.0,0.0,0.0,3.0747,3.0379,3.064,3.0716,2.9886,2.9666,2.9585,2.9829,0.0,0.0,2.8482,2.8264,2.8264,2.8264,2.8264,2.8264,2.8264,2.8264,2.8264,0.0,0.0,0.0,0.0,0.0,0.0,0.0,0.0,4.2346,4.2035,0.0,4.1006,0.0,0.0,0.0,0.0,0.0,3.8046,0.0,0.0,4.1702,4.2244,4.3138,4.3216,4.2692,4.1749,4.1734,4.094,3.957,3.8292,0.0,0.0,0.0,0.0,0.0,0.0,4.0278,4.1724,4.2971,4.4264,4.5557,4.5618,4.5851,4.6187,4.4997,4.4366,4.4241,4.231,4.12,4.1091,3.8528,0.0,0.0,0.0,0.0,0.0,0.0,0.0,0.0,0.0,0.0,0.0,0.0,0.0,0.0,0.0,0.0,0.0,0.0,0.0,0.0,3.0599,0.0,0.0,0.0,0.0,0.0,0.0,0.0,0.0,0.0,0.0,2.7789,2.8585,2.9503,2.9973,0.0,0.0,0.0,0.0,2.9997,3.0137,2.9624,2.9324,2.9324,3.0244,3.1016,3.1004,0.0,0.0,3.2676,3.2644,3.2497,3.228,3.2218,3.1778,3.0616,3.0262,3.0216,3.0227,3.0204,3.025,3.025,3.0158,3.0181,4.5682,0.0,0.0,0.0,0.0,4.3199,4.401,4.5144,4.5333,4.5049,4.4427,4.4125,0.0,0.0,0.0,0.0,0.0,0.0,4.1677,4.3089,4.3885,4.4368,4.4713,4.519,4.4851,4.3796,4.3582,4.2972,4.2031,4.1449,3.9816,3.7292,0.0,0.0,0.0,0.0,4.1909,4.3618,4.4095,4.4941,4.628,4.6311,4.6609,4.7303,4.6719,4.6295,4.6083,4.451,4.2953,4.1488,4.024,0.0,0.0,0.0,0.0,0.0,0.0,0.0,0.0,0.0,0.0,0.0,0.0,0.0,0.0,0.0,0.0,0.0,0.0,0.0,3.2098,3.185,3.099,0.0,0.0,0.0,0.0,0.0,0.0,0.0,0.0,0.0,3.062,3.0058,3.0012,0.0,0.0,3.0522,3.1485,3.1423,3.1448,3.1837,3.1784,0.0,3.1626,3.2287,3.2823,3.2836,3.3366,3.3922,3.431,3.4335,3.4324,3.4572,3.4658,3.4447,3.3884,3.2402,3.1481,3.1318,3.1329,3.1329,3.1318,3.1329,3.1329,4.7751,4.5992,4.4975,4.4785,4.5182,4.5199,4.5906,4.7062,4.7044,4.6845,4.6589,4.6323,4.5048,4.3086,4.2344,0.0,0.0,0.0,4.3573,4.4577,4.5217,4.556,4.5709,4.6093,4.5865,4.5144,4.4768,4.419,4.3519,4.319,4.2027,4.0189,0.0,0.0,4.077,4.2237,4.3665,4.4843,4.5568,4.6438,4.7528,4.748,4.7715,4.8225,4.7786,4.7508,4.7539,4.5977,4.4582,4.3332,4.1881,4.0198,0.0,0.0,0.0,0.0,0.0,0.0,0.0,0.0,0.0,0.0,0.0,2.9995,2.9983,0.0,0.0,0.0,3.2128,3.2833,3.2818,3.2324,0.0,0.0,0.0,0.0,0.0,0.0,0.0,3.0884,3.2094,3.2813,3.2826,3.2204,3.1849,3.2045,3.1694,3.181,3.2684,0.0,3.2973,3.3313,3.3365,3.3365,3.3378,3.3875,3.441,3.4868,3.5512,3.6058,3.6443,3.6692,3.6786,3.6789,3.678,3.6589,3.6133,3.462,3.318,3.254,3.2363,3.2363,3.2374,3.2374,3.2374,4.8907,4.8786,4.7441,4.6837,4.6786,4.6786,4.7217,4.7889,4.7907,4.7889,4.7889,4.7834,4.7146,4.5966,4.4896,0.0,4.4714,4.4731,4.5159,4.5956,4.5956,4.6124,4.6436,4.6468,4.6287,4.6079,4.5641,4.5164,4.457,4.4188,4.4099,4.445,4.351,4.2967,4.3055,4.4616,4.545,4.5512,4.7126,4.8349,4.8952,4.8968,4.8968,4.9045,4.838,4.8243,4.8583,4.6939,4.5975,4.5776,4.3608,4.1868,4.0693,0.0,0.0,0.0,0.0,0.0,0.0,0.0,0.0,0.0,0.0,0.0,0.0,0.0,0.0,0.0,3.3635,0.0,3.359,3.2697,0.0,0.0,0.0,3.1698,3.2648,3.2935,3.3275,3.3865,0.0,0.0,3.4672,3.4672,3.4502,3.4058,3.3849,3.394,3.4515,3.4607,3.462,3.4737,3.4698,3.4698,3.4816,3.5286,3.6018,3.6998,3.8096,3.8564,3.8642,3.9112,3.9297,3.8702,3.8519,3.8323,3.763,3.6719,3.5658,3.4035,3.3438,3.3315,3.3304,3.3247,3.3189,4.9717,4.9683,4.9355,4.8855,4.8303,4.8303,4.8734,4.9441,4.9476,4.9459,4.9401,4.9,4.8201,4.6992,4.6176,4.614,4.6719,4.6719,4.6888,4.7209,4.7242,4.7365,4.7593,4.7593,4.778,4.8208,4.7876,4.7649,4.7489,4.7103,4.6953,4.7028,4.6796,4.6391,4.5919,4.678,4.7549,4.7977,4.8462,4.8968,4.9647,4.9679,4.982,5.0115,4.9477,4.932,4.9692,4.8503,4.7489,4.6566,4.5206,4.3764,4.2155,4.0647,0.0,0.0,0.0,0.0,0.0,0.0,0.0,0.0,0.0,3.0858,3.1758,0.0,3.2904,0.0,3.4851,3.5751,3.5686,3.556,0.0,0.0,3.4286,3.4446,3.5114,3.5645,3.616,3.6704,3.6964,3.7077,3.7063,3.7077,3.7181,3.7403,3.5992,3.526,3.6201,3.6384,3.6554,3.6933,3.7011,3.7077,3.7063,3.7534,3.8122,3.8867,3.922,3.939,3.9403,3.9847,4.0129,3.992,3.9907,3.9612,3.893,3.8278,3.7531,3.6427,3.4999,3.3832,3.3821,3.3545,3.3292,5.0011,5.0045,5.0373,5.0235,4.9821,4.9476,4.9597,4.9993,5.0011,5.0183,5.0528,5.0506,5.0161,4.9508,4.9067,4.9057,4.9198,4.9198,4.9053,4.866,4.866,4.8617,4.8447,4.8463,4.8657,4.9013,4.8698,4.8477,4.8477,4.8072,4.8171,4.8592,4.8592,4.8652,4.8813,4.8652,4.8799,4.9181,4.9652,5.0096,5.0448,5.048,5.0634,5.0771,5.0494,5.036,5.0584,4.9518,4.8658,4.802,4.6847,4.5566,4.427,4.2705,4.098,0.0,0.0,0.0,0.0,0.0,0.0,0.0,0.0,0.0,0.0,0.0,3.484,3.5467,3.6799,3.7633,3.7633,3.777,3.7748,3.7311,3.7115,3.7286,3.7779,3.7979,3.8153,3.8542,3.8635,3.8671,3.8671,3.8671,3.8867,3.939,3.837,3.7704,3.8057,3.8161,3.8292,3.8606,3.8658,3.8671,3.8658,3.9115,3.9573,3.9913,4.02,4.037,4.037,4.0605,4.0827,4.0827,4.0814,4.0715,4.0205,3.9573,3.9032,3.8454,3.7059,3.5734,3.4965,3.4707,3.452,5.0287,5.0355,5.0994,5.1252,5.1218,5.0562,5.0304,5.0287,5.0287,5.0649,5.1287,5.1942,5.2201,5.2201,5.2201,5.1957,5.1583,5.1566,5.1054,5.0,4.9967,4.9702,4.9159,4.9175,4.9208,4.9289,4.8955,4.8807,4.8823,4.8509,4.8795,4.9657,4.9764,5.0236,5.1135,5.0236,4.9689,4.9764,5.0693,5.1183,5.1183,5.1183,5.1183,5.1183,5.1183,5.1183,5.1167,5.0252,4.9689,4.9505,4.8213,4.72,4.6391,4.4706,4.295,0.0,3.9309,0.0,0.0,0.0,0.0,0.0,0.0,0.0,0.0,3.5714,3.695,3.8159,3.8964,3.9448,3.9448,3.9596,3.9878,4.023,3.9966,3.9918,4.0282,4.0116,3.9921,3.9935,4.0014,4.0,3.9834,3.9917,4.0211,4.0396,4.0396,4.0148,3.9913,3.9795,3.9782,3.9834,3.9821,3.9834,3.986,4.0213,4.0501,4.0579,4.0906,4.1298,4.1246,4.1272,4.1298,4.1298,4.1272,4.1285,4.1311,4.0681,4.0236,4.0198,3.9182,3.7984,3.6693,3.6147,3.6147,5.1804,5.1804,5.1959,5.2011,5.1994,5.1856,5.1804,5.1804,5.1804,5.1873,5.2011,5.2149,5.2201,5.2201,5.2201,5.2157,5.2096,5.2096,5.1486,5.0476,5.0476,5.0265,4.9888,4.9904,5.0196,5.0746,5.072,5.0704,5.0704,5.0612,5.0693,5.0898,5.0898,5.0978,5.1167,0.0,0.0,0.0,5.1118,5.1183,5.1183,5.1183,5.1183,5.1183,5.1183,0.0,5.1167,5.0978,5.0595,4.9851,4.9078,0.0,0.0,0.0,0.0,0.0,0.0,0.0,0.0,0.0,0.0,0.0,4.0165,3.9189,3.6795,3.7611,3.8861,4.0055,4.0756,4.1163,4.1089,4.1279,4.1369,4.146,4.182,4.1876,4.1717,4.1879,4.1937,4.1666,4.1914,4.19,4.1215,4.1621,4.1927,4.1274,4.1141,4.1115,4.0984,4.0919,4.0971,4.0997,4.0893,4.0971,4.0997,4.105,4.1089,4.118,4.1219,4.1311,4.1311,4.1311,4.1311,4.1311,4.1311,4.1311,4.1311,4.111,4.101,4.101,4.0805,4.0044,3.8046,3.7274,3.7069,5.2201,0.0,5.2632,5.2804,0.0,5.3201,5.3356,5.3287,5.2528,5.2442,5.2839,5.3184,5.3356,5.3339,5.3356,5.3339,5.3356,5.3339,5.2882,5.2134,5.2134,5.1864,5.146,5.146,5.1514,5.1582,5.1582,5.145,5.1183,5.1183,5.1183,5.1183,5.1183,5.1183,5.1199,5.1523,5.1507,5.1199,5.1183,5.1183,5.1183,5.1183,5.1183,5.1183,5.1183,0.0,0.0,0.0,0.0,0.0,0.0,0.0,0.0,0.0,0.0,4.5181,4.3915,4.2864,4.2304,4.2256,4.2432,4.2682,4.3085,4.2423,4.0495,4.092,4.1684,4.2608,4.32,4.356,4.3589,4.3916,4.4095,4.411,4.4317,4.4191,4.3793,4.377,4.371,4.3204,4.2999,4.2792,4.2806,4.2709,4.2612,4.2137,4.2431,4.2528,4.215,4.2052,4.2052,4.2052,4.1597,4.1311,4.1311,4.1311,4.1311,4.1311,4.1311,4.1311,4.1311,4.1311,4.1311,4.1311,4.1311,4.1311,4.1311,4.1311,4.1311,4.1311,4.1311,4.1032,3.9778,3.9095,3.8705,5.2632,5.2684,5.3322,5.3598,5.3632,5.4253,5.4512,5.4425,0.0,0.0,0.0,5.4253,5.4512,5.4512,5.4512,5.4512,5.4512,5.4512,5.4239,5.37,5.3567,5.3264,5.2836,5.2697,5.2487,5.2131,5.2059,5.1786,5.1317,5.1242,5.1183,5.1183,5.1297,5.1426,5.1588,5.2106,5.2122,5.1588,5.1572,5.1572,5.1556,5.1572,5.1572,5.1572,5.1572,5.1648,5.1707,5.1556,5.1295,5.0971,5.0311,4.977,4.9365,4.8213,4.7357,4.6803,4.6142,4.5526,4.4987,4.5057,4.5213,4.5334,4.5387,4.503,4.4211,4.4083,4.4349,4.4984,4.543,4.5739,4.5739,4.6182,4.6491,4.6491,4.6447,4.6166,4.5584,4.5417,4.5038,4.4392,4.3829,4.3531,4.4125,4.3721,4.3259,4.3163,4.364,4.4125,4.345,4.2985,4.2695,4.2598,4.1868,4.1311,4.1311,4.1311,4.1311,4.1311,4.1311,4.1311,4.1311,4.1311,4.1311,4.1311,4.1311,4.1311,4.1311,4.1311,4.1311,4.1311,4.1311,4.1311,4.1211,4.0782,4.0325,5.4167,5.4201,5.4305,5.4339,5.4356,5.4477,5.4512,5.4494,5.427,5.4253,5.4356,5.446,5.4512,5.4512,5.4512,5.4512,5.4512,5.4512,5.4239,5.3717,5.3128,5.2905,5.2767,5.2345,5.2345,5.2627,5.2186,5.2004,5.1858,5.1466,5.1183,5.128,5.1766,5.2381,5.2981,5.311,5.311,5.3029,5.3013,5.3029,5.3013,5.3029,5.3029,5.3013,5.2997,5.323,5.3748,5.287,5.2476,5.2491,5.1101,5.0097,4.9665,4.8343,4.7558,4.7434,4.6819,4.6403,4.6326,4.6846,4.7395,4.7947,4.8018,4.7289,4.5543,4.5312,4.5563,4.6152,4.6358,4.6359,4.6373,4.652,4.6579,4.6579,4.6857,4.6755,4.5944,4.5944,4.566,4.4826,4.5024,4.5038,4.4634,4.4989,4.4926,4.434,4.4509,4.4648,4.5075,4.3909,4.2875,4.2695,4.1954,4.1411,4.1428,4.1337,4.1415,4.1311,4.1389,4.1455,4.1455,4.1455,4.1455,4.135,4.1402,4.1363,4.135,4.1311,4.1311,4.1311,4.1311,4.1311,4.1311,4.111,4.111,5.4512,5.4512,5.4512,5.4512,5.4512,5.4512,5.4512,5.4512,5.4512,5.4512,5.4512,5.4512,5.4512,5.4512,5.4512,5.4512,5.4512,5.4512,5.4385,5.411,5.3815,5.3749,5.3666,5.3466,5.3315,5.3264,5.3043,5.3001,5.3014,5.2483,5.2457,5.2758,5.2811,5.2981,5.3321,5.3709,5.392,5.3887,5.3531,5.3321,5.3321,5.3321,5.3321,5.3321,5.3321,5.3383,5.3677,5.2956,5.254,5.2444,5.1423,5.063,5.029,4.962,4.9266,4.9266,4.8989,4.8666,4.8296,4.8189,4.8296,4.8573,4.8604,4.8232,4.7341,4.7211,4.7347,4.7603,4.7649,4.7634,4.7634,4.7649,4.7649,4.7649,4.7749,4.7649,4.7204,4.7133,4.6929,4.6491,4.6122,4.6179,4.6619,4.6497,4.6399,4.6182,4.6175,4.6547,4.7477,4.644,4.5169,4.4221,4.2829,4.2014,4.2147,4.2239,4.2252,4.2226,4.2252,4.2252,4.2239,4.2239,4.2226,4.22,4.2004,4.1794,4.1768,4.1507,4.1363,4.1311,4.1311,4.1311,4.1311,4.1311,4.1311,5.4575,5.462,5.4512,5.4512,5.4512,5.4512,5.4598,5.4753,5.477,5.4856,5.4977,5.4684,5.4512,5.4512,5.4512,5.4512,5.4512,5.4512,5.4512,5.4512,5.4367,5.4385,5.4465,5.4522,5.4432,5.4171,5.4175,5.4296,5.4371,5.3867,5.3882,5.4283,5.386,5.3644,5.3806,5.4357,5.4696,5.4823,5.4303,5.3948,5.379,5.379,5.3806,5.379,5.3806,5.3885,5.3932,5.3439,5.3036,5.2774,5.2052,5.1398,5.107,5.0861,5.0697,5.0697,5.0697,5.0466,4.9943,4.9404,4.9081,4.9081,4.9081,4.9097,4.9081,4.9097,4.8927,4.8681,4.8521,4.8521,4.8521,4.8521,4.8604,4.8604,4.8453,4.8378,4.8584,4.8446,4.8353,4.8344,4.7551,4.7451,4.8327,4.8015,4.7633,4.8028,4.8112,4.8496,4.9073,4.8404,4.7225,4.6048,4.4382,4.3466,4.3628,4.3757,4.3641,4.3515,4.3359,4.3203,4.3022,4.2984,4.2997,4.2892,4.2644,4.2396,4.2317,4.2056,4.1821,4.1821,4.1834,4.1781,4.1808,4.1651,4.1455,5.47,5.4869,5.4689,5.4512,5.4563,5.4563,5.4925,5.5477,5.5529,5.5926,5.6357,5.5132,5.4563,5.4512,5.4563,5.4598,5.4581,5.4529,5.4563,5.45,5.398,5.4045,5.4586,5.473,5.4971,5.5403,5.5603,5.5621,5.5722,5.5194,5.5038,5.51,5.4593,5.4584,5.5134,5.5264,5.5603,5.608,5.6076,5.5745,5.5215,5.5215,5.5215,5.5231,5.5215,5.5458,5.5804,5.5101,5.4789,5.5102,5.3386,5.227,5.2122,5.1296,5.0697,5.0728,5.0713,5.0651,5.0605,5.0559,5.0436,5.0513,5.0436,5.042,5.0436,5.0466,4.9943,4.902,4.865,4.8712,4.8604,4.8681,4.8743,4.8804,4.8758,4.8866,4.9366,4.9304,4.9433,5.0059,4.9428,4.9358,4.9388,4.9209,4.9058,4.9161,4.9221,4.9297,4.9388,4.8794,4.826,4.8027,4.6934,4.6055,4.5958,4.5972,4.552,4.4779,4.4408,4.4224,4.3714,4.3271,4.3049,4.3337,4.3049,4.2958,4.2944,4.2866,4.2801,4.2618,4.2657,4.2788,4.2788,4.2435,4.199,5.6342,5.6033,5.5921,5.5874,5.5857,5.5857,5.6029,5.6305,5.6305,5.6512,5.6719,5.6133,5.5857,5.5874,5.5874,5.5857,5.5857,5.5857,5.5857,5.5857,5.5644,5.5644,5.5843,5.5936,5.6108,5.6322,5.6417,5.6661,5.7021,5.6927,5.6707,5.6471,5.62,5.6039,5.602,5.6319,5.6241,5.5797,5.6459,5.6536,5.6004,5.6319,5.6083,5.5491,5.5701,5.5861,5.5701,5.5164,5.4915,5.5049,5.3771,5.2956,5.2956,5.2286,5.1882,5.1867,5.1513,5.1282,5.1298,5.0928,5.0697,5.0697,5.0697,5.0697,5.0697,5.0697,5.042,4.9974,4.9835,4.9851,4.982,4.9851,4.9835,4.9835,4.9835,4.9959,5.0236,5.0181,5.0233,5.0463,5.0159,4.9988,5.0366,5.0471,5.0391,5.0421,5.0406,5.0346,5.0391,5.002,4.9937,5.0005,4.956,4.8649,4.7687,4.7334,4.7093,4.6693,4.6024,4.5434,4.5096,4.4322,4.4029,4.4003,4.3729,4.3546,4.352,4.3193,4.3023,4.3075,4.3036,4.3023,4.3023,4.284,4.2565,5.7892,5.7363,5.7097,5.6919,5.6919,5.6871,5.6909,5.7098,5.7098,5.7202,5.7391,5.7391,5.7391,5.734,5.6995,5.6805,5.6805,5.6805,5.6805,5.6805,5.6805,5.6788,5.6822,5.7012,5.7098,5.7133,5.734,5.7702,5.8152,5.8131,5.7887,5.752,5.7281,5.698,5.6614,5.698,5.6844,5.6319,5.7072,5.7222,5.692,5.7372,5.7131,5.61,5.6319,5.6224,5.5637,5.5393,5.5147,5.4915,5.4242,5.3726,5.3552,5.3129,5.2803,5.2683,5.2252,5.1975,5.1975,5.1513,5.1236,5.1251,5.1251,5.1251,5.1251,5.1251,5.1251,5.1236,5.1236,5.1159,5.0713,5.0697,5.0697,5.0697,5.0697,5.0743,5.0928,5.0974,5.1051,5.119,5.0934,5.0622,5.0925,5.1056,5.1124,5.1124,5.1169,5.1229,5.1229,5.1169,5.109,5.1229,5.1199,5.0573,4.9176,4.8991,4.8781,4.8282,4.7693,4.7169,4.6673,4.5529,4.4804,4.4557,4.4319,4.4147,4.4108,4.3742,4.3467,4.3493,4.348,4.348,4.3637,4.3415,4.3284,5.8969,5.8667,5.7737,5.7358,5.7289,5.7054,5.7236,5.7857,5.7857,5.8236,5.8754,5.8823,5.8875,5.8737,5.7495,5.684,5.6857,5.6926,5.6943,5.6926,5.6891,5.684,5.6857,5.7512,5.7857,5.7909,5.8443,5.8788,5.8841,5.8388,5.8103,5.8048,5.7594,5.7222,5.7206,5.7297,5.7429,5.7741,5.7959,5.8031,5.8031,5.8562,5.8263,5.7297,5.7131,5.692,5.6303,5.6224,5.5941,5.5409,5.4915,5.4497,5.4087,5.3552,5.3129,5.2788,5.2667,5.2652,5.2637,5.2544,5.2513,5.256,5.2452,5.256,5.2436,5.2421,5.2436,5.2575,5.2436,5.2006,5.1051,5.0959,5.0882,5.0851,5.0774,5.1067,5.1605,5.1652,5.1959,5.227,5.1986,5.153,5.1218,5.1199,5.1229,5.1229,5.1229,5.1229,5.1229,5.1229,5.1229,5.1229,5.1229,5.112,5.1011,5.0508,5.022,4.9722,4.9106,4.871,4.7383,4.6269,4.5648,4.514,4.4712,4.4578,4.4657,4.463,4.45,4.4447,4.4395,4.4408,4.4225,4.4042,4.3912,6.0364,5.9646,5.9229,5.9074,5.9056,5.8751,5.8727,5.8952,5.8684,5.8754,5.8961,5.9012,5.9012,5.8995,5.8461,5.8219,5.8219,5.8219,5.8219,5.8219,5.8202,5.8219,5.8254,5.8512,5.8616,5.865,5.8892,5.9012,5.9012,5.8789,5.8719,5.865,5.8475,5.8192,5.7887,5.8174,5.812,5.7651,5.8246,5.8492,5.8192,5.8702,5.8789,5.8334,5.7959,5.7504,5.6904,5.6536,5.6162,5.6004,5.5246,5.4597,5.4087,5.3393,5.2877,5.2713,5.2713,5.2713,5.2713,5.2713,5.2713,5.2713,5.2713,5.2713,5.2713,5.2713,5.2713,5.2713,5.2713,5.2421,5.2175,5.199,5.199,5.199,5.199,5.2021,5.2267,5.2344,5.2452,5.2562,5.2261,5.1803,5.1323,5.1229,5.1229,5.1229,5.1229,5.1229,5.1229,5.1229,5.1229,5.1229,5.1229,5.1229,5.1229,5.1214,5.0932,5.0632,5.0124,4.9513,4.8496,4.7074,4.636,4.5755,4.5342,4.483,4.4804,4.4709,4.4735,4.4735,4.4735,4.4735,4.4735,4.4434,4.4369,6.1528,6.0843,6.0388,6.0297,6.0216,5.9914,5.9766,5.97,5.9369,5.9217,5.9149,5.9081,5.9012,5.9012,5.9012,5.9012,5.9012,5.8995,5.9012,5.9012,5.9012,5.9012,5.9012,5.9012,5.9012,5.8995,5.9012,5.9012,5.9012,5.9012,5.9012,5.9012,5.9012,5.8789,5.8475,5.8789,5.8562,5.8031,5.8562,5.8806,5.8492,5.8789,5.9012,5.8944,5.8562,5.812,5.7504,5.692,5.6381,5.6067,5.5312,5.4513,5.3931,5.3144,5.2713,5.2713,5.2713,5.2713,5.2713,5.2713,5.2713,5.2713,5.2713,5.2713,5.2713,5.2713,5.2713,5.2713,5.2713,5.2713,5.2713,5.2698,5.2713,5.2713,5.2713,5.2713,5.2713,5.2698,5.2593,5.2427,5.217,5.1803,5.1323,5.1229,5.1229,5.1229,5.1229,5.1229,5.1229,5.1229,5.1229,5.1229,5.1229,5.1229,5.1229,5.1229,5.1229,5.0932,5.0728,5.022,4.9499,4.8094,4.7074,4.6465,4.5861,4.5235,4.4938,4.4735,4.4735,4.4735,4.4735,4.4735,4.4735,4.4735,4.4643,6.2415,6.2186,6.1152,6.0786,6.0777,6.0445,6.0194,6.0218,5.9923,5.9812,5.9815,5.9372,5.934,5.9133,5.9202,5.9081,5.9116,5.9064,5.9012,5.9012,5.9012,5.9012,5.9012,5.9012,5.9012,5.9012,5.9012,5.9012,5.9012,5.9012,5.9012,5.9012,5.9012,5.8944,5.8944,5.8944,5.9012,5.8858,5.8927,5.8995,5.9012,5.9012,5.9012,5.9012,5.8927,5.8562,5.8048,5.752,5.6827,5.5908,5.523,5.4412,5.3552,5.2966,5.2713,5.2713,5.2713,5.2713,5.2713,5.2713,5.2713,5.2713,5.2713,5.2713,5.2713,5.2713,5.2713,5.2713,5.2713,5.2713,5.2713,5.2713,5.2713,5.2713,5.2713,5.2713,5.2713,5.2713,5.2533,5.217,5.1987,5.1787,5.1416,5.1229,5.1229,5.1229,5.1229,5.1229,5.1229,5.1229,5.1229,5.1229,5.1229,5.1229,5.1229,5.1229,5.1229,5.1135,5.112,5.0822,5.0124,4.9007,4.8195,4.7587,4.6478,4.5861,4.483,4.4735,4.4735,4.4735,4.4735,4.4735,4.4735,4.4735,4.4735,6.3286,6.2783,6.2947,6.2845,6.2479,6.2167,6.204,6.1958,6.1652,6.1387,6.1152,6.1016,6.0878,6.0531,6.0082,5.9823,5.9771,5.9288,5.9012,5.903,5.9012,5.9012,5.9012,5.9012,5.9012,5.9012,5.9012,5.9012,5.9012,5.9012,5.9012,5.9012,5.9012,5.9012,5.9012,5.9012,5.9012,5.9012,5.9012,5.9012,5.9012,5.9012,5.9012,5.8927,5.8632,5.8263,5.8103,5.7887,5.7611,5.7164,5.6067,5.4768,5.3624,5.2966,5.2713,5.2713,5.2713,5.2713,5.2713,5.2713,5.2713,5.2713,5.2713,5.2713,5.2713,5.2713,5.2713,5.2713,5.2713,5.2713,5.2713,5.2713,5.2713,5.2713,5.2713,5.2713,5.2713,5.2518,5.2322,5.2078,5.1803,5.1602,5.1308,5.1229,5.1229,5.1229,5.1229,5.1229,5.1229,5.1229,5.1229,5.1229,5.1229,5.1229,5.1229,5.1229,5.1229,5.1229,5.1229,5.112,5.0618,4.982,4.912,4.8094,4.6985,4.6072,4.5154,4.4735,4.4735,4.4735,4.4735,4.4735,4.4735,4.4735,4.4735,6.4317,6.3894,6.42,6.4076,6.3681,6.3438,6.3253,6.3083,6.2746,6.2371,6.2121,6.1934,6.1658,6.1273,6.0823,6.0616,6.0547,6.0064,5.9702,5.9409,5.9099,5.9012,5.9012,5.9012,5.9012,5.9012,5.9012,5.9012,5.9012,5.9012,5.9012,5.9012,5.9012,5.9012,5.9012,5.9012,5.9012,5.9012,5.9012,5.9012,5.9012,5.9012,5.9012,5.8927,5.8422,5.8048,5.787,5.7651,5.7429,5.7089,5.5876,5.4433,5.3305,5.2877,5.2713,5.2713,5.2713,5.2713,5.2713,5.2713,5.2713,5.2713,5.2713,5.2713,5.2713,5.2713,5.2713,5.2713,5.2713,5.2713,5.2713,5.2713,5.2713,5.2713,5.2713,5.2713,5.2624,5.2503,5.2231,5.1987,5.1803,5.1494,5.1308,5.1229,5.1229,5.1229,5.1229,5.1229,5.1229,5.1229,5.1229,5.1229,5.1229,5.1229,5.1229,5.1229,5.1229,5.1229,5.1229,5.1229,5.0932,5.0028,4.9219,4.7587,4.6374,4.5648,4.4735,4.4735,4.4735,4.4735,4.4735,4.4735,4.4735,4.4735,4.4735,6.5501,6.54,6.5126,6.4784,6.4329,6.4306,6.4046,6.3609,6.3314,6.3047,6.2701,6.2488,6.1988,6.1638,6.155,6.1375,6.1341,6.1168,6.0771,6.0202,5.9651,5.9288,5.9047,5.9012,5.9012,5.9012,5.9012,5.9012,5.9012,5.9012,5.9012,5.9012,5.9012,5.9012,5.9012,5.9012,5.9012,5.9012,5.9012,5.9012,5.9012,5.9012,5.9012,5.8944,5.8405,5.787,5.7413,5.6794,5.6348,5.605,5.4819,5.3766,5.2966,5.2713,5.2713,5.2713,5.2713,5.2713,5.2713,5.2713,5.2713,5.2713,5.2713,5.2713,5.2713,5.2713,5.2713,5.2713,5.2713,5.2713,5.2713,5.2713,5.2713,5.2713,5.2713,5.2713,5.2713,5.2412,5.2231,5.1972,5.1787,5.1494,5.1214,5.1229,5.1229,5.1229,5.1229,5.1229,5.1229,5.1229,5.1229,5.1229,5.1229,5.1229,5.1229,5.1229,5.1229,5.1229,5.1229,5.1229,5.1026,5.022,4.8908,4.728,4.6164,4.5342,4.4722,4.4735,4.4735,4.4735,4.4735,4.4735,4.4735,4.4735,4.4735,6.6568,6.6335,6.682,6.6573,6.5904,6.5844,6.5604,6.5143,6.508,6.4717,6.4425,6.4092,6.3677,6.3325,6.2519,6.2168,6.2065,6.1616,6.1254,6.103,6.084,5.9995,5.9202,5.9012,5.9012,5.9012,5.9012,5.9012,5.9012,5.9012,5.9012,5.9012,5.9012,5.9012,5.9012,5.9012,5.9012,5.9012,5.9012,5.9012,5.9012,5.9012,5.9012,5.8944,5.8405,5.7651,5.6794,5.5796,5.5067,5.4803,5.4301,5.3577,5.2788,5.2713,5.2713,5.2713,5.2713,5.2713,5.2713,5.2713,5.2713,5.2713,5.2713,5.2713,5.2713,5.2713,5.2713,5.2713,5.2713,5.2713,5.2713,5.2713,5.2713,5.2713,5.2713,5.2713,5.2624,5.2352,5.2063,5.2139,5.1665,5.1401,5.1401,5.1323,5.1229,5.1229,5.1229,5.1229,5.1229,5.1229,5.1229,5.1229,5.1229,5.1229,5.1229,5.1229,5.1229,5.1229,5.1229,5.112,5.0822,5.022,4.8596,4.6985,4.6478,4.5755,4.5033,4.4735,4.4735,4.4735,4.4735,4.4735,4.4735,4.4735,4.4735,6.7636,6.7437,6.7917,6.7595,6.6812,6.6754,6.6416,6.585,6.5804,6.5575,6.5212,6.4825,6.4568,6.4306,6.3425,6.3073,6.3058,6.2551,6.2117,6.1737,6.1427,6.0616,5.9754,5.9513,5.934,5.9012,5.903,5.9012,5.9012,5.9012,5.9012,5.9012,5.9012,5.9012,5.9012,5.9012,5.9012,5.9012,5.9012,5.9012,5.9012,5.9012,5.8789,5.8562,5.8031,5.7114,5.5652,5.4449,5.3938,5.4147,5.4062,5.3577,5.2788,5.2713,5.2713,5.2713,5.2713,5.2713,5.2713,5.2713,5.2713,5.2713,5.2713,5.2713,5.2713,5.2713,5.2713,5.2713,5.2713,5.2713,5.2713,5.2713,5.2713,5.2713,5.2713,5.2713,5.2713,5.2261,5.2155,5.2033,5.1665,5.1308,5.1587,5.1308,5.1214,5.1229,5.1229,5.1229,5.1229,5.1229,5.1259,5.1304,5.1349,5.1379,5.1394,5.1394,5.1468,5.1454,5.1498,5.1344,5.0596,4.999,4.8696,4.7383,4.6777,4.6164,4.5449,4.4938,4.4735,4.4735,4.4735,4.4735,4.4735,4.4735,4.4735,6.8524,6.8524,6.8524,6.7982,6.7231,6.7175,6.6677,6.5976,6.5913,6.5704,6.5295,6.4894,6.4706,6.4637,6.3915,6.375,6.3933,6.3522,6.3082,6.2548,6.1996,6.1289,6.0651,6.0358,6.0013,5.9547,5.9271,5.9271,5.9323,5.9219,5.9185,5.9254,5.9219,5.9254,5.9495,5.9409,5.9271,5.9426,5.9513,5.9461,5.9304,5.9321,5.904,5.8502,5.7615,5.6474,5.4857,5.3637,5.331,5.4062,5.3976,5.3418,5.2803,5.2713,5.2713,5.2713,5.2713,5.2713,5.2713,5.2713,5.2713,5.2713,5.2713,5.2713,5.2713,5.2713,5.2713,5.2713,5.2713,5.2713,5.2713,5.2713,5.2713,5.2713,5.2713,5.2713,5.2624,5.2261,5.2063,5.22,5.1665,5.1401,5.1401,5.1401,5.1229,5.1229,5.1229,5.1229,5.1334,5.1468,5.1483,5.1498,5.1543,5.1573,5.1588,5.1588,5.1693,5.1768,5.1872,5.1622,5.032,4.9603,4.8753,4.7675,4.6255,4.5755,4.5755,4.5248,4.4843,4.4735,4.4735,4.4735,4.4735,4.4735,4.4735,6.8524,6.8524,6.8524,6.8171,6.7684,6.763,6.7137,6.6373,6.6312,6.6066,6.564,6.5278,6.4979,6.4706,6.4199,6.3913,6.3785,6.3656,6.3462,6.3393,6.3238,6.2668,6.1979,6.1427,6.0978,6.072,6.0771,6.0496,6.0099,5.9944,5.9944,5.9944,5.9961,6.022,6.0651,6.0599,6.0789,6.0789,6.0754,6.0384,6.0062,5.9916,5.9604,5.9,5.7787,5.6624,5.5581,5.4246,5.3418,5.3106,5.3086,5.3106,5.2819,5.2713,5.2713,5.2713,5.2713,5.2713,5.2713,5.2713,5.2713,5.2713,5.2713,5.2713,5.2713,5.2713,5.2713,5.2713,5.2713,5.279,5.2883,5.276,5.2852,5.2898,5.2867,5.2821,5.2654,5.2276,5.2155,5.2124,5.1665,5.1308,5.1587,5.1383,5.1289,5.1244,5.1289,5.1259,5.1483,5.1783,5.1887,5.1977,5.2157,5.2276,5.2166,5.2055,5.1847,5.1653,5.1713,5.1292,5.0082,4.9166,4.8243,4.6837,4.5235,4.5235,4.5755,4.5248,4.4735,4.4735,4.4735,4.4735,4.4735,4.4735,4.4735,6.8524,6.8524,6.8524,6.8222,6.786,6.7807,6.7415,6.6794,6.6595,6.6373,6.6003,6.5474,6.5078,6.4876,6.4393,6.3985,6.3858,6.3656,6.36,6.3582,6.3565,6.3358,6.31,6.253,6.2099,6.1496,6.1289,6.103,6.0806,6.072,6.072,6.072,6.0703,6.0858,6.1254,6.1358,6.1254,6.1166,6.1002,6.0694,6.0381,6.008,5.9604,5.8817,5.7566,5.6431,5.5939,5.4875,5.4098,5.376,5.3637,5.3329,5.2806,5.2729,5.2729,5.2713,5.2713,5.2713,5.2713,5.2713,5.2713,5.2729,5.2713,5.2713,5.2713,5.2713,5.2914,5.3098,5.3221,5.3283,5.3606,5.3668,5.3652,5.3668,5.3637,5.3637,5.3469,5.275,5.2139,5.2109,5.1757,5.1798,5.181,5.1742,5.1932,5.2142,5.2276,5.2261,5.2321,5.2576,5.2606,5.271,5.292,5.3039,5.2927,5.259,5.1994,5.1552,5.1106,5.0338,4.9148,4.8409,4.7791,4.6623,4.5648,4.5555,4.5861,4.5248,4.4748,4.4735,4.4735,4.4735,4.4735,4.4735,4.4735,6.8524,6.8524,6.8524,6.829,6.793,6.7912,6.7702,6.7175,6.6754,6.6595,6.6355,6.565,6.5278,6.5061,6.4533,6.4182,6.3913,6.3712,6.36,6.36,6.36,6.3548,6.3462,6.3289,6.2875,6.172,6.1823,6.172,6.1548,6.1496,6.1496,6.1479,6.1479,6.1685,6.1685,6.1685,6.1769,6.1586,6.1292,6.0791,6.0418,5.9951,5.9508,5.854,5.7705,5.6715,5.6289,5.5501,5.49,5.473,5.4714,5.4114,5.3406,5.3021,5.3021,5.3083,5.3191,5.3144,5.3083,5.3052,5.3114,5.2914,5.3037,5.3067,5.3114,5.3221,5.3452,5.3698,5.3914,5.4068,5.4653,5.4545,5.4576,5.4622,5.4668,5.4714,5.4421,5.3454,5.2963,5.2581,5.2516,5.2461,5.2422,5.2477,5.2822,5.3025,5.3144,5.3219,5.3234,5.3324,5.3324,5.3503,5.3743,5.3952,5.3868,5.3481,5.2862,5.1801,5.1066,4.9995,4.8978,4.8557,4.8094,4.7319,4.6702,4.6368,4.5795,4.522,4.48,4.4761,4.4735,4.4735,4.4735,4.4735,4.4735,6.8524,6.8524,6.8524,6.8457,6.8389,6.8389,6.8102,6.763,6.7175,6.6812,6.6416,6.5958,6.5492,6.5145,6.4825,6.4287,6.3785,6.36,6.36,6.36,6.36,6.36,6.36,6.3582,6.3375,6.3324,6.3082,6.2755,6.2393,6.2289,6.2272,6.2306,6.2289,6.2513,6.2837,6.3169,6.2576,6.208,6.1902,6.1357,6.075,6.0357,5.9772,5.8911,5.8275,5.7634,5.6665,5.6279,5.5767,5.4822,5.473,5.4622,5.4468,5.4391,5.436,5.4222,5.4191,5.396,5.3683,5.4022,5.3991,5.3852,5.3945,5.4253,5.4299,5.4314,5.4299,5.4483,5.4607,5.4684,5.4699,5.493,5.4807,5.4776,5.4868,5.4868,5.4791,5.4498,5.4112,5.383,5.3466,5.3134,5.3158,5.3181,5.3309,5.3533,5.3638,5.3653,5.3638,5.3719,5.3814,5.4167,5.4581,5.479,5.4955,5.4431,5.3789,5.2592,5.1605,5.0551,4.9611,4.9172,4.8558,4.7716,4.6757,4.6055,4.5542,4.5197,4.504,4.4957,4.4866,4.4748,4.4735,4.4735,4.4735,6.8524,6.8524,6.8524,6.8524,6.8524,6.8524,6.8203,6.7755,6.7286,6.6852,6.6476,6.6021,6.5445,6.5029,6.4775,6.4287,6.3729,6.36,6.36,6.36,6.36,6.36,6.36,6.36,6.36,6.3582,6.3548,6.3444,6.3082,6.3065,6.3013,6.3065,6.3065,6.309,6.3073,6.2939,6.2685,6.2201,6.1803,6.1333,6.0717,6.0378,5.9684,5.9152,5.8685,5.8037,5.7293,5.6729,5.6416,5.5964,5.5792,5.5776,5.5745,5.5684,5.5453,5.493,5.4776,5.4637,5.4314,5.4591,5.4514,5.4345,5.4607,5.4699,5.4714,5.4699,5.4945,5.5222,5.5684,5.5792,5.5838,5.573,5.5792,5.5792,5.5745,5.573,5.5761,5.5745,5.5398,5.4876,5.4213,5.3899,5.3781,5.3803,5.3922,5.4027,5.4132,5.4018,5.3858,5.3852,5.3917,5.3832,5.395,5.3699,5.386,5.3637,5.3323,5.243,5.1646,5.0478,4.9742,4.8905,4.8425,4.7872,4.7018,4.6225,4.5898,4.5786,4.5415,4.5127,4.497,4.4853,4.4774,4.4735,4.4735,6.8524,6.8524,6.8524,6.8524,6.8524,6.8389,6.8134,6.7736,6.7175,6.6794,6.6476,6.6021,6.5462,6.4911,6.4568,6.4217,6.36,6.36,6.36,6.36,6.36,6.36,6.36,6.36,6.36,6.36,6.36,6.36,6.3513,6.3496,6.3565,6.3422,6.3491,6.3176,6.2762,6.253,6.2043,6.1497,6.102,6.0717,6.0394,5.9963,5.9435,5.8882,5.8503,5.8119,5.7323,5.7117,5.6862,5.6719,5.6654,5.67,5.6746,5.6761,5.6253,5.5361,5.5145,5.5084,5.4976,5.5176,5.5238,5.4961,5.5068,5.5145,5.5207,5.5391,5.5453,5.5915,5.63,5.6638,5.6546,5.67,5.6684,5.6669,5.6654,5.6715,5.6607,5.6546,5.6179,5.5664,5.4907,5.4473,5.4381,5.4301,5.4406,5.3801,5.3904,5.3421,5.3378,5.3583,5.3448,5.3163,5.292,5.228,5.2122,5.1892,5.1565,5.1017,5.0476,4.9621,4.8979,4.83,4.8041,4.7924,4.761,4.697,4.663,4.6199,4.582,4.548,4.5153,4.4931,4.4813,4.4748,4.4735,6.8524,6.8524,6.8524,6.8524,6.8408,6.8084,6.786,6.7684,6.691,6.6536,6.6434,6.6021,6.5575,6.5011,6.4393,6.4002,6.3656,6.36,6.36,6.36,6.36,6.36,6.36,6.36,6.3509,6.3509,6.3509,6.36,6.3434,6.3434,6.3509,6.3417,6.2931,6.2608,6.2358,6.1963,6.1497,6.0953,6.0717,6.0378,5.9979,5.97,5.9241,5.8685,5.8503,5.8243,5.7226,5.7131,5.7131,5.6858,5.6761,5.6761,5.6761,5.6761,5.6746,5.6561,5.6469,5.6269,5.5807,5.5992,5.6069,5.5792,5.6023,5.6423,5.6315,5.6284,5.6361,5.6592,5.6746,5.6761,5.6761,5.6761,5.6761,5.6761,5.6761,5.6761,5.6761,5.6761,5.6567,5.6244,5.5356,5.5183,5.504,5.4899,5.4756,5.4142,5.3533,5.3097,5.2673,5.2765,5.2323,5.1877,5.1442,5.0906,5.0698,5.0364,5.014,4.9702,4.9388,4.8944,4.8624,4.8185,4.8172,4.8028,4.7793,4.7636,4.727,4.6787,4.6251,4.5872,4.5611,4.5205,4.4813,4.4774,4.4748,6.8524,6.8524,6.8524,6.8321,6.8084,6.786,6.7523,6.7043,6.6637,6.6373,6.6083,6.5913,6.5445,6.4876,6.4145,6.3729,6.36,6.36,6.36,6.36,6.36,6.36,6.36,6.36,6.3509,6.3176,6.3007,6.2685,6.2779,6.2855,6.2931,6.2513,6.2201,6.182,6.1659,6.1268,6.0785,6.0292,6.012,5.9963,5.9804,5.9628,5.9241,5.8287,5.8487,5.7856,5.7226,5.6954,5.705,5.6761,5.6761,5.6761,5.6761,5.6761,5.6761,5.6761,5.6746,5.6592,5.6392,5.6623,5.6515,5.6453,5.6577,5.6684,5.6761,5.6761,5.6761,5.6761,5.6761,5.6761,5.6761,5.6761,5.6761,5.6761,5.6761,5.6761,5.6761,5.6761,5.6664,5.6274,5.5979,5.5581,5.5063,5.4392,5.4053,5.3623,5.2977,5.2552,5.1892,5.1347,5.0796,5.0028,4.9702,4.9489,4.9274,4.9173,4.916,4.8828,4.8842,4.8508,4.8405,4.8185,4.8185,4.8185,4.8041,4.7885,4.7754,4.7388,4.6865,4.646,4.6081,4.5611,4.514,4.4774,4.4761,6.8457,6.834,6.834,6.8102,6.7807,6.7577,6.7137,6.6536,6.6373,6.6146,6.5786,6.5593,6.518,6.4637,6.402,6.36,6.36,6.36,6.36,6.36,6.36,6.36,6.36,6.36,6.3343,6.2838,6.3025,6.2608,6.2122,6.2043,6.2122,6.1609,6.1561,6.1268,6.0886,6.0548,6.0222,5.9892,5.9804,5.9716,5.9716,5.9716,5.9136,5.8487,5.8119,5.7762,5.6954,5.6858,5.6858,5.6761,5.6761,5.6761,5.6761,5.6761,5.6761,5.6761,5.6761,5.6746,5.6684,5.6746,5.6761,5.6761,5.6761,5.6761,5.6761,5.6761,5.6761,5.6761,5.6761,5.6761,5.6761,5.6761,5.6761,5.6761,5.6761,5.6761,5.6761,5.6664,5.647,5.6077,5.578,5.5581,5.4845,5.3637,5.3097,5.2977,5.243,5.1892,5.1237,5.0476,4.9915,4.9261,4.8944,4.8726,4.8624,4.8405,4.8289,4.8185,4.8185,4.8185,4.8185,4.8185,4.8185,4.8185,4.8185,4.812,4.7963,4.7728,4.7479,4.6983,4.6473,4.5976,4.5519,4.5075,4.4761,6.8222,6.786,6.786,6.7807,6.7702,6.691,6.6595,6.6434,6.6021,6.585,6.574,6.5131,6.4861,6.4516,6.402,6.36,6.36,6.36,6.36,6.36,6.36,6.36,6.36,6.36,6.3491,6.3251,6.31,6.2453,6.19,6.1415,6.1659,6.1676,6.102,6.0802,6.0548,6.0136,5.9875,5.9716,5.9716,5.9716,5.9716,5.9628,5.9241,5.8395,5.8119,5.7762,5.6858,5.6761,5.6761,5.6761,5.6761,5.6761,5.6761,5.6761,5.6761,5.6761,5.6761,5.6761,5.6761,5.6761,5.6761,5.6761,5.6761,5.6761,5.6761,5.6761,5.6761,5.6761,5.6761,5.6761,5.6761,5.6761,5.6761,5.6761,5.6761,5.6664,5.6567,5.647,5.6274,5.5795,5.5596,5.5481,5.5164,5.4082,5.2779,5.2552,5.1565,5.1017,5.0476,4.9816,4.9475,4.9045,4.8611,4.8405,4.8289,4.8185,4.8185,4.8185,4.8185,4.8185,4.8185,4.8185,4.8185,4.8185,4.8185,4.8185,4.8172,4.7976,4.7715,4.7323,4.6865,4.6342,4.5689,4.5114,4.4853,6.8222,6.7807,6.7505,6.7231,6.6967,6.6655,6.6312,6.6101,6.585,6.5804,6.574,6.5046,6.4706,6.4498,6.3947,6.36,6.36,6.36,6.36,6.36,6.36,6.36,6.36,6.3434,6.3268,6.2608,6.2358,6.1706,6.0515,6.0701,6.0532,6.0378,6.0292,6.0136,5.9963,5.9875,5.9716,5.9716,5.9716,5.9716,5.9716,5.9628,5.9241,5.8303,5.8211,5.7668,5.6954,5.6858,5.6761,5.6761,5.6761,5.6761,5.6761,5.6761,5.6761,5.6761,5.6761,5.6761,5.6761,5.6761,5.6761,5.6761,5.6761,5.6761,5.6761,5.6761,5.6761,5.6761,5.6761,5.6761,5.6761,5.6761,5.6761,5.6761,5.6761,5.6664,5.647,5.6372,5.5849,5.5365,5.5365,5.5481,5.5063,5.4524,5.3218,5.2014,5.1031,5.0154,4.9716,4.9274,4.8944,4.8828,4.8392,4.8289,4.8172,4.8185,4.8185,4.8185,4.8185,4.8185,4.8185,4.8185,4.8185,4.8185,4.8185,4.8185,4.8185,4.8185,4.7989,4.7702,4.7231,4.6695,4.599,4.5179,4.4918,6.8171,6.7577,6.7213,6.6852,6.6476,6.6373,6.6083,6.5867,6.5804,6.5804,6.574,6.5046,6.4706,6.4498,6.3947,6.36,6.36,6.36,6.36,6.36,6.36,6.3509,6.3343,6.3176,6.2702,6.1883,6.1561,6.1069,6.0292,6.0049,6.0049,5.9875,5.9716,5.9716,5.9716,5.9716,5.9716,5.9716,5.9716,5.954,5.954,5.9435,5.8972,5.8119,5.7933,5.7574,5.7035,5.6761,5.6761,5.6761,5.6761,5.6761,5.6761,5.6761,5.6761,5.6761,5.6761,5.6761,5.6761,5.6761,5.6761,5.6761,5.6761,5.6761,5.6761,5.6761,5.6761,5.6761,5.6761,5.6761,5.6761,5.6761,5.6761,5.6761,5.6761,5.6664,5.6372,5.6161,5.5436,5.483,5.4932,5.4611,5.3637,5.3097,5.2992,5.1579,5.0266,4.9716,4.9589,4.9045,4.8508,4.8392,4.8289,4.8172,4.8185,4.8185,4.8185,4.8185,4.8185,4.8185,4.8185,4.8185,4.8185,4.8185,4.8185,4.8185,4.8185,4.8185,4.8185,4.8133,4.7479,4.6695,4.5963,4.5192,4.4905,6.793,6.7175,6.7119,6.6852,6.6416,6.6021,6.5804,6.5722,6.5722,6.5722,6.5593,6.4911,6.4637,6.4498,6.3875,6.36,6.36,6.36,6.36,6.36,6.3434,6.3176,6.2855,6.2608,6.2218,6.182,6.1497,6.1103,6.0463,6.0292,6.012,5.9788,5.9716,5.9716,5.9716,5.9716,5.9716,5.9716,5.9716,5.9452,5.9168,5.9078,5.861,5.7856,5.7668,5.7306,5.6939,5.6761,5.6761,5.6761,5.6761,5.6761,5.6761,5.6761,5.6761,5.6761,5.6761,5.6761,5.6761,5.6761,5.6761,5.6761,5.6761,5.6761,5.6761,5.6761,5.6761,5.6761,5.6761,5.6761,5.6761,5.6761,5.6761,5.6761,5.6761,5.6664,5.6372,5.6062,5.5451,5.5033,5.4068,5.3097,5.2,5.1347,5.1892,5.1127,4.9602,4.916,4.916,4.8944,4.8289,4.8185,4.8185,4.8185,4.8185,4.8185,4.8185,4.8185,4.8185,4.8185,4.8185,4.8185,4.8185,4.8185,4.8185,4.8185,4.8185,4.8185,4.8185,4.8094,4.7296,4.6525,4.5807,4.5284,4.5036,6.7523,6.6696,6.6696,6.6416,6.6039,6.585,6.5657,6.5361,6.518,6.5064,6.4979,6.4481,6.434,6.4128,6.3875,6.36,6.36,6.36,6.36,6.3526,6.3251,6.2838,6.253,6.2218,6.174,6.1185,6.1036,6.0701,5.9963,6.012,5.9946,5.97,5.9716,5.9716,5.9716,5.9716,5.9716,5.9716,5.9628,5.9435,5.9078,5.8898,5.8534,5.7495,5.7495,5.7211,5.6858,5.6761,5.6761,5.6761,5.6761,5.6761,5.6761,5.6761,5.6761,5.6761,5.6761,5.6761,5.6761,5.6761,5.6761,5.6761,5.6761,5.6761,5.6761,5.6761,5.6761,5.6761,5.6761,5.6761,5.6761,5.6761,5.6761,5.6761,5.6761,5.6664,5.6372,5.6161,5.5765,5.5466,5.4728,5.3742,5.2658,5.1127,5.1127,5.0685,4.9274,4.8611,4.8611,4.8611,4.8185,4.8185,4.8185,4.8185,4.8185,4.8185,4.8185,4.8185,4.8185,4.8185,4.8185,4.8185,4.8185,4.8185,4.8185,4.8185,4.8185,4.8185,4.8185,4.7911,4.7362,4.68,4.6199,4.5689,4.5271,6.7137,6.6536,6.6476,6.6128,6.564,6.574,6.5575,6.5212,6.4825,6.4706,6.4637,6.4252,6.4111,6.3985,6.3802,6.36,6.36,6.36,6.36,6.3509,6.3158,6.2914,6.253,6.198,6.1415,6.0785,6.0378,6.0049,5.9804,5.9716,5.9716,5.9716,5.9716,5.9716,5.9716,5.9716,5.9612,5.9524,5.9347,5.9062,5.861,5.8335,5.8058,5.7495,5.7211,5.7115,5.6858,5.6761,5.6761,5.6761,5.6761,5.6761,5.6761,5.6761,5.6761,5.6761,5.6761,5.6761,5.6761,5.6761,5.6761,5.6761,5.6761,5.6761,5.6761,5.6761,5.6761,5.6761,5.6761,5.6761,5.6761,5.6761,5.6761,5.6761,5.6664,5.647,5.6176,5.588,5.5451,5.5265,5.483,5.4068,5.3189,5.1769,5.0685,4.9816,4.8944,4.8611,4.8289,4.8185,4.8185,4.8185,4.8185,4.8185,4.8185,4.8185,4.8185,4.8185,4.8185,4.8185,4.8185,4.8185,4.8185,4.8185,4.8185,4.8185,4.8185,4.8185,4.8185,4.812,4.7885,4.7283,4.663,4.5956,4.5422,6.6852,6.6494,6.6494,6.5967,6.5344,6.551,6.5427,6.5145,6.4775,6.4637,6.4568,6.4199,6.4057,6.3985,6.3712,6.36,6.36,6.36,6.36,6.3526,6.3343,6.3007,6.2453,6.182,6.1103,6.0548,6.0136,5.9875,5.9716,5.9716,5.9716,5.9716,5.9716,5.9716,5.9716,5.954,5.9435,5.9168,5.9078,5.861,5.8042,5.7668,5.7401,5.7035,5.6954,5.6858,5.6761,5.6761,5.6761,5.6761,5.6761,5.6761,5.6761,5.6761,5.6761,5.6761,5.6761,5.6761,5.6761,5.6761,5.6761,5.6761,5.6761,5.6761,5.6761,5.6761,5.6761,5.6761,5.6761,5.6761,5.6761,5.6761,5.6664,5.6567,5.647,5.6176,5.588,5.5466,5.5033,5.4611,5.4171,5.3518,5.2658,5.1456,5.1017,5.0028,4.9489,4.9274,4.8842,4.8302,4.8185,4.8185,4.8185,4.8185,4.8185,4.8185,4.8185,4.8185,4.8185,4.8185,4.8185,4.8185,4.8185,4.8185,4.8185,4.8185,4.8185,4.8185,4.8185,4.8107,4.8041,4.7623,4.6944,4.5927,4.5257,6.6416,6.5958,6.5668,6.5457,6.5127,6.4722,6.4515,6.4393,6.4074,6.3947,6.3875,6.3785,6.3802,6.3729,6.3656,6.36,6.36,6.36,6.36,6.3434,6.3176,6.253,6.198,6.135,6.0717,6.0222,5.9804,5.9716,5.9716,5.9716,5.9716,5.9716,5.9716,5.9716,5.954,5.9347,5.9184,5.8988,5.8898,5.8227,5.7668,5.7401,5.7115,5.6939,5.6761,5.6761,5.6761,5.6761,5.6761,5.6761,5.6761,5.6761,5.6761,5.6761,5.6761,5.6761,5.6761,5.6761,5.6761,5.6761,5.6761,5.6761,5.6761,5.6761,5.6761,5.6761,5.6761,5.6761,5.6761,5.6761,5.6761,5.6761,5.6664,5.647,5.6372,5.6176,5.578,5.5481,5.5048,5.483,5.4392,5.3964,5.2992,5.2537,5.2108,5.0796,5.0028,4.9716,4.9388,4.874,4.8508,4.8508,4.8185,4.8185,4.8185,4.8185,4.8185,4.8185,4.8185,4.8185,4.8185,4.8185,4.8185,4.8185,4.8185,4.8185,4.8185,4.8185,4.8185,4.8185,4.8094,4.7702,4.713,4.6238,4.5378,6.5349,6.5101,6.5039,6.4944,6.4653,6.4111,6.393,6.3858,6.3656,6.36,6.36,6.36,6.36,6.36,6.36,6.36,6.36,6.36,6.3509,6.3007,6.2762,6.2296,6.1676,6.1036,6.0633,6.0136,5.9804,5.9716,5.9716,5.9716,5.9716,5.9716,5.9716,5.954,5.9363,5.9078,5.8808,5.8534,5.8243,5.7856,5.759,5.7226,5.7035,5.6858,5.6761,5.6761,5.6761,5.6761,5.6761,5.6761,5.6761,5.6761,5.6761,5.6761,5.6761,5.6761,5.6761,5.6761,5.6761,5.6761,5.6761,5.6761,5.6761,5.6761,5.6761,5.6761,5.6761,5.6761,5.6761,5.6761,5.6761,5.6761,5.6567,5.647,5.6274,5.6077,5.5895,5.5596,5.5496,5.5381,5.5063,5.4743,5.4304,5.3742,5.2871,5.1456,5.0252,4.9602,4.9375,4.916,4.9045,4.9146,4.8611,4.8185,4.8185,4.8185,4.8185,4.8185,4.8185,4.8185,4.8185,4.8185,4.8185,4.8185,4.8185,4.8185,4.8185,4.8185,4.8185,4.8185,4.8185,4.795,4.7519,4.6778,4.5814,6.4008,6.3996,6.4368,6.4114,6.3848,6.3435,6.3307,6.341,6.3272,6.3479,6.3548,6.36,6.36,6.36,6.36,6.3509,6.3417,6.3343,6.3025,6.2496,6.2453,6.2059,6.1513,6.1036,6.0548,6.0378,6.0136,5.9716,5.9716,5.9716,5.9628,5.9628,5.9628,5.9347,5.8988,5.8701,5.8335,5.7871,5.759,5.7306,5.7035,5.6858,5.6761,5.6761,5.6761,5.6761,5.6761,5.6761,5.6761,5.6761,5.6761,5.6761,5.6761,5.6761,5.6761,5.6761,5.6761,5.6761,5.6761,5.6761,5.6761,5.6761,5.6761,5.6761,5.6761,5.6761,5.6761,5.6761,5.6761,5.6761,5.6761,5.6761,5.6664,5.647,5.6176,5.5979,5.578,5.5496,5.5396,5.5295,5.5179,5.4962,5.486,5.4304,5.3637,5.2108,5.1565,5.0809,4.9816,4.9702,4.9475,4.9589,4.8828,4.8185,4.8185,4.8185,4.8185,4.8185,4.8185,4.8185,4.8185,4.8185,4.8185,4.8185,4.8185,4.8185,4.8185,4.8185,4.8185,4.8185,4.8185,4.8185,4.778,4.7064,4.6163,6.2833,6.2802,6.261,6.2336,6.1984,6.1912,6.1875,6.1841,6.1841,6.253,6.341,6.3548,6.3513,6.3393,6.3319,6.3136,6.2853,6.2682,6.2402,6.1987,6.1795,6.1324,6.092,6.0437,6.0247,6.0049,5.9788,5.9538,5.9474,5.9467,5.9492,5.9241,5.9104,5.8876,5.8411,5.8135,5.7762,5.7401,5.7115,5.7035,5.6858,5.6761,5.6761,5.6761,5.6761,5.6761,5.6761,5.6761,5.6761,5.6761,5.6761,5.6761,5.6761,5.6761,5.6761,5.6761,5.6761,5.6761,5.6761,5.6761,5.6761,5.6761,5.6761,5.6761,5.6761,5.6761,5.6761,5.6761,5.6761,5.6761,5.6761,5.6761,5.6664,5.647,5.6176,5.588,5.5681,5.5381,5.5194,5.5194,5.5194,5.5194,5.5078,5.4743,5.4082,5.3964,5.42,5.3547,5.1688,5.092,4.9716,4.9489,4.874,4.8185,4.8185,4.8185,4.8185,4.8185,4.8185,4.8185,4.8185,4.8185,4.8185,4.8185,4.8185,4.8185,4.8185,4.8185,4.8185,4.8185,4.8185,4.8185,4.8002,4.7506,4.6487,6.1681,6.1631,6.1658,6.1518,6.1306,6.1306,6.1306,6.1306,6.1306,6.1772,6.2496,6.2582,6.2582,6.2509,6.2329,6.2341,6.1917,6.1739,6.1146,6.0841,6.0628,5.996,5.9746,5.9441,5.9076,5.8831,5.8745,5.8696,5.8858,5.8761,5.8571,5.8534,5.8435,5.8276,5.7792,5.7559,5.737,5.7226,5.6923,5.6858,5.6761,5.6761,5.6761,5.6761,5.6761,5.6761,5.6761,5.6761,5.6761,5.6761,5.6761,5.6761,5.6761,5.6761,5.6761,5.6761,5.6761,5.6761,5.6761,5.6761,5.6761,5.6761,5.6761,5.6761,5.6761,5.6761,5.6761,5.6761,5.6761,5.6761,5.6761,5.6761,5.6761,5.6552,5.6357,5.6062,5.5681,5.5396,5.5295,5.5194,5.5194,5.5194,5.5194,5.5093,5.4421,5.3637,5.42,5.3979,5.2566,5.1797,5.0698,4.9616,4.8957,4.8289,4.8185,4.8185,4.8185,4.8185,4.8185,4.8185,4.8185,4.8185,4.8185,4.8185,4.8185,4.8185,4.8185,4.8185,4.8185,4.8185,4.8185,4.8185,4.7976,4.7754,4.6924,6.051,6.0547,6.0843,6.0996,6.1013,6.0996,6.0944,6.0944,6.0978,6.0961,6.0996,6.1013,6.1065,6.104,6.084,6.0913,6.087,6.0663,6.0021,5.9364,5.9206,5.8856,5.8293,5.7793,5.7907,5.7923,5.7822,5.7806,5.7838,5.7785,5.7769,5.7724,5.7544,5.7433,5.7261,5.7229,5.6978,5.6738,5.6607,5.6746,5.6761,5.6761,5.6761,5.6761,5.6761,5.6761,5.6761,5.6761,5.6761,5.6761,5.6761,5.6761,5.6761,5.6761,5.6761,5.6761,5.6761,5.6761,5.6761,5.6761,5.6761,5.6761,5.6761,5.6761,5.6761,5.6761,5.6761,5.6761,5.6761,5.6761,5.6761,5.6761,5.6761,5.6746,5.6454,5.6161,5.578,5.5396,5.5295,5.5194,5.5194,5.5194,5.5194,5.5194,5.4743,5.386,5.3308,5.2765,5.2445,5.2216,5.1674,5.0476,4.9489,4.8944,4.8405,4.8185,4.8185,4.8185,4.8185,4.8185,4.8185,4.8185,4.8185,4.8185,4.8185,4.8185,4.8185,4.8185,4.8185,4.8185,4.8185,4.8172,4.812,4.7832,4.727,5.9305,5.9305,5.9409,5.9461,5.9495,5.9478,5.9426,5.9444,5.9513,5.9461,5.9564,5.9599,6.0013,6.1289,6.1218,6.0793,5.9599,5.9456,5.8814,5.805,5.8051,5.7804,5.7485,5.7142,5.7466,5.7502,5.7488,5.7583,5.7326,5.7151,5.6909,5.6718,5.6183,5.5931,5.5519,5.5672,5.6294,5.6259,5.6725,5.7022,5.6939,5.6858,5.6761,5.6761,5.6761,5.6761,5.6761,5.6761,5.6761,5.6761,5.6761,5.6761,5.6761,5.6761,5.6761,5.6761,5.6761,5.6761,5.6761,5.6761,5.6761,5.6761,5.6761,5.6761,5.6761,5.6761,5.6761,5.6761,5.6761,5.6761,5.6761,5.6761,5.6761,5.6664,5.647,5.6077,5.5696,5.5496,5.5295,5.5194,5.5194,5.5194,5.5194,5.5194,5.5194,5.4626,5.4626,5.4082,5.3323,5.2977,5.2644,5.1551,5.0364,4.916,4.8405,4.8172,4.8185,4.8185,4.8185,4.8185,4.8185,4.8185,4.8185,4.8185,4.8185,4.8185,4.8185,4.8185,4.8185,4.8185,4.8185,4.8172,4.8146,4.7976,4.7377]},{"header":{"parameterUnit":"m.s-1","parameterCategory":1,"la1":31.0,"la2":29.5877,"lo1":-88.7671,"lo2":-86.6584,"dy":0.0162,"dx":0.0185,"nx":115,"ny":88,"refTime":"2023-03-06T06:00:00:Z","depth":0,"parameterNumber":3,"parameterNumberName":"V-component_of_WINDS"},"data":[0.0,0.0,0.0,0.0,0.0,0.0,0.0,0.0,0.0,0.0,0.0,0.0,0.0,0.0,0.0,0.0,0.0,0.0,0.0,0.0,0.0,0.0,0.0,0.0,0.0,0.0,0.0,0.0,0.0,0.0,0.0,0.0,0.0,0.0,0.0,0.0,0.0,0.0,0.0,0.0,0.0,0.0,0.0,0.0,0.0,0.0,0.0,0.0,0.0,0.0,0.0,0.0,0.0,0.0,0.0,0.0,0.0,0.0,0.0,0.0,0.0,0.0,0.0,0.0,0.0,0.0,0.0,0.0,0.0,0.0,0.0,0.0,0.0,0.0,0.0,0.0,0.0,0.0,0.0,0.0,0.0,0.0,0.0,0.0,0.0,0.0,0.0,0.0,0.0,0.0,0.0,0.0,0.0,0.0,0.0,0.0,0.0,0.0,0.0,0.0,0.0,0.0,0.0,0.0,0.0,0.0,0.0,0.0,0.0,0.0,0.0,0.0,0.0,0.0,0.0,0.0,0.0,0.0,0.0,0.0,0.0,0.0,0.0,0.0,0.0,0.0,0.0,0.0,0.0,0.0,0.0,0.0,0.0,0.0,0.0,0.0,0.0,0.0,0.0,0.0,0.0,0.0,0.0,0.0,0.0,0.0,0.0,0.0,0.0,0.0,0.0,0.0,0.0,0.0,0.0,0.0,0.0,0.0,0.0,0.0,0.0,0.0,0.0,0.0,0.0,0.0,0.0,0.0,0.0,0.0,0.0,0.0,0.0,0.0,0.0,0.0,0.0,0.0,0.0,0.0,0.0,0.0,0.0,0.0,0.0,0.0,0.0,0.0,0.0,0.0,0.0,0.0,0.0,0.0,0.0,0.0,0.0,0.0,0.0,0.0,0.0,0.0,0.0,0.0,0.0,0.0,0.0,0.0,0.0,0.0,0.0,0.0,0.0,0.0,0.0,0.0,0.0,0.0,0.0,0.0,0.0,0.0,0.0,0.0,0.0,0.0,0.0,0.0,0.0,0.0,0.0,0.0,0.0,0.0,0.0,0.0,0.0,0.0,0.0,0.0,0.0,0.0,0.0,0.0,0.0,0.0,0.0,0.0,0.0,0.0,0.0,0.0,0.0,0.0,0.0,0.0,0.0,0.0,0.0,0.0,0.0,0.0,0.0,0.0,0.0,0.0,0.0,0.0,0.0,0.0,0.0,0.0,0.0,0.0,0.0,0.0,0.0,0.0,0.0,0.0,0.0,0.0,0.0,0.0,0.0,0.0,0.0,0.0,0.0,0.0,0.0,0.0,0.0,0.0,0.0,0.0,0.0,0.0,0.0,0.0,0.0,0.0,0.0,0.0,0.0,0.0,0.0,0.0,0.0,0.0,0.0,0.0,0.0,0.0,0.0,0.0,0.0,0.0,0.0,0.0,0.0,0.0,0.0,0.0,0.0,0.0,0.0,0.0,0.0,0.0,0.0,0.0,0.0,0.0,0.0,0.0,0.0,0.0,0.0,0.0,0.0,0.0,0.0,0.0,0.0,0.0,0.0,0.0,0.0,0.0,0.0,0.0,0.0,0.0,0.0,0.0,0.0,0.0,0.0,0.0,0.0,0.0,0.0,0.0,0.0,0.0,0.0,0.0,0.0,0.0,0.0,0.0,0.0,0.0,0.0,0.0,0.0,0.0,0.0,0.0,0.0,0.0,0.0,0.0,0.0,0.0,0.0,0.0,0.0,0.0,0.0,0.0,0.0,0.0,0.0,0.0,0.0,0.0,0.0,0.0,0.0,0.0,0.0,0.0,0.0,0.0,0.0,0.0,0.0,0.0,0.0,0.0,0.0,0.0,0.0,0.0,0.0,0.0,0.0,0.0,0.0,0.0,0.0,0.0,0.0,0.0,0.0,0.0,0.0,0.0,0.0,0.0,0.0,0.0,0.0,0.0,0.0,0.0,0.0,0.0,0.0,0.0,0.0,0.0,0.0,0.0,0.0,0.0,0.0,0.0,0.0,0.0,0.0,0.0,0.0,0.0,0.0,0.0,0.0,0.0,0.0,0.0,0.0,0.0,0.0,0.0,0.0,0.0,0.0,0.0,0.0,0.0,0.0,0.0,0.0,0.0,0.0,0.0,0.0,0.0,0.0,0.0,0.0,0.0,0.0,0.0,0.0,0.0,0.0,0.0,0.0,0.0,0.0,0.0,0.0,0.0,0.0,0.0,0.0,0.0,0.0,0.0,0.0,0.0,0.0,0.0,0.0,0.0,0.0,0.0,0.0,0.0,0.0,0.0,0.0,0.0,0.0,0.0,0.0,0.0,0.0,0.0,0.0,0.0,0.0,0.0,0.0,0.0,0.0,0.0,0.0,0.0,0.0,0.0,0.0,0.0,0.0,0.0,0.0,0.0,0.0,0.0,0.0,0.0,0.0,0.0,0.0,0.0,0.0,0.0,0.0,0.0,0.0,0.0,0.0,0.0,0.0,0.0,0.0,0.0,0.0,0.0,0.0,0.0,0.0,0.0,0.0,0.0,0.0,0.0,0.0,0.0,0.0,0.0,0.0,0.0,0.0,0.0,0.0,0.0,0.0,0.0,0.0,0.0,0.0,0.0,0.0,0.0,0.0,0.0,0.0,0.0,0.0,0.0,0.0,0.0,0.0,0.0,0.0,0.0,0.0,0.0,0.0,0.0,0.0,0.0,0.0,0.0,0.0,0.0,0.0,0.0,0.0,0.0,0.0,0.0,0.0,0.0,0.0,0.0,0.0,0.0,0.0,0.0,0.0,0.0,0.0,0.0,0.0,0.0,0.0,0.0,0.0,0.0,0.0,0.0,0.0,0.0,0.0,0.0,0.0,0.0,0.0,0.0,0.0,0.0,0.0,0.0,0.0,0.0,0.0,0.0,0.0,0.0,0.0,0.0,0.0,0.0,0.0,0.0,0.0,0.0,0.0,0.0,0.0,0.0,0.0,0.0,0.0,0.0,0.0,0.0,0.0,0.0,0.0,0.0,0.0,0.0,0.0,0.0,0.0,0.0,0.0,0.0,0.0,0.0,0.0,0.0,0.0,0.0,0.0,0.0,0.0,0.0,0.0,0.0,0.0,0.0,0.0,0.0,0.0,0.0,0.0,0.0,0.0,0.0,0.0,0.0,0.0,0.0,0.0,0.0,0.0,0.0,0.0,0.0,0.0,0.0,0.0,0.0,0.0,0.0,0.0,0.0,0.0,0.0,0.0,0.0,0.0,0.0,0.0,0.0,0.0,0.0,0.0,0.0,0.0,0.0,0.0,0.0,0.0,0.0,0.0,0.0,0.0,0.0,0.0,0.0,0.0,0.0,0.0,0.0,0.0,0.0,0.0,0.0,0.0,0.0,0.0,0.0,0.0,0.0,0.0,0.0,0.0,0.0,0.0,0.0,0.0,0.0,0.0,0.0,0.0,0.0,0.0,0.0,0.0,0.0,0.0,0.0,0.0,0.0,0.0,0.0,0.0,0.0,0.0,0.0,0.0,0.0,0.0,0.0,0.0,0.0,0.0,0.0,0.0,0.0,0.0,0.0,0.0,0.0,0.0,0.0,0.0,0.0,0.0,0.0,0.0,0.0,0.0,0.0,0.0,0.0,0.0,0.0,0.0,0.0,0.0,0.0,0.0,0.0,0.0,0.0,0.0,0.0,0.0,0.0,0.0,0.0,0.0,0.0,0.0,0.0,0.0,0.0,0.0,0.0,0.0,0.0,0.0,0.0,0.0,0.0,0.0,0.0,0.0,0.0,0.0,0.0,0.0,0.0,0.0,0.0,0.0,0.0,0.0,0.0,0.0,0.0,0.0,0.0,0.0,0.0,0.0,0.0,0.0,0.0,0.0,0.0,0.0,0.0,0.0,0.0,0.0,0.0,0.0,0.0,0.0,0.0,0.0,0.0,0.0,0.0,0.0,0.0,0.0,0.0,0.0,0.0,0.0,0.0,0.0,0.0,0.0,0.0,0.0,0.0,0.0,0.0,0.0,0.0,0.0,0.0,0.0,0.0,0.0,0.0,0.0,0.0,0.0,0.0,0.0,0.0,0.0,0.0,0.0,0.0,0.0,0.0,0.0,0.0,0.0,0.0,0.0,0.0,0.0,0.0,0.0,0.0,0.0,0.0,0.0,0.0,0.0,0.0,0.0,0.0,0.0,0.0,0.0,0.0,0.0,0.0,0.0,0.0,0.0,0.0,0.0,0.0,0.0,0.0,0.0,0.0,0.0,0.0,0.0,0.0,0.0,0.0,0.0,0.0,0.0,0.0,0.0,0.0,-2.5312,0.0,0.0,0.0,0.0,0.0,0.0,0.0,0.0,0.0,0.0,0.0,0.0,0.0,0.0,0.0,0.0,0.0,0.0,0.0,0.0,0.0,0.0,0.0,0.0,0.0,0.0,0.0,0.0,0.0,0.0,0.0,0.0,0.0,0.0,0.0,0.0,0.0,0.0,0.0,0.0,0.0,0.0,0.0,0.0,0.0,0.0,0.0,0.0,0.0,0.0,0.0,0.0,0.0,0.0,0.0,0.0,0.0,0.0,0.0,0.0,0.0,0.0,0.0,0.0,0.0,0.0,0.0,0.0,0.0,0.0,0.0,0.0,0.0,0.0,0.0,0.0,0.0,0.0,0.0,0.0,0.0,0.0,0.0,0.0,0.0,0.0,0.0,0.0,0.0,0.0,0.0,0.0,0.0,0.0,0.0,0.0,0.0,0.0,0.0,0.0,0.0,0.0,0.0,0.0,0.0,0.0,0.0,0.0,0.0,0.0,-2.5312,-2.5312,-2.5312,-2.5312,-2.5312,0.0,0.0,0.0,0.0,0.0,0.0,0.0,0.0,0.0,0.0,0.0,0.0,0.0,0.0,0.0,0.0,0.0,0.0,0.0,0.0,0.0,0.0,0.0,0.0,0.0,0.0,0.0,0.0,0.0,0.0,0.0,0.0,0.0,0.0,0.0,0.0,0.0,0.0,0.0,0.0,0.0,0.0,0.0,0.0,0.0,0.0,0.0,0.0,0.0,0.0,0.0,0.0,0.0,0.0,0.0,0.0,0.0,0.0,0.0,0.0,0.0,0.0,0.0,0.0,0.0,0.0,0.0,0.0,0.0,0.0,0.0,0.0,0.0,0.0,0.0,0.0,0.0,0.0,0.0,0.0,0.0,0.0,0.0,0.0,0.0,0.0,0.0,0.0,0.0,0.0,0.0,0.0,0.0,0.0,0.0,0.0,0.0,0.0,0.0,0.0,0.0,0.0,0.0,0.0,0.0,0.0,0.0,0.0,0.0,0.0,0.0,0.0,-2.5312,-2.5312,-2.5312,0.0,0.0,0.0,0.0,0.0,0.0,0.0,0.0,0.0,0.0,0.0,0.0,0.0,0.0,0.0,0.0,0.0,0.0,0.0,0.0,0.0,0.0,0.0,0.0,0.0,0.0,0.0,0.0,0.0,0.0,0.0,0.0,0.0,0.0,0.0,0.0,0.0,0.0,0.0,0.0,0.0,0.0,0.0,0.0,0.0,0.0,0.0,0.0,0.0,0.0,0.0,0.0,0.0,0.0,0.0,0.0,0.0,0.0,0.0,0.0,0.0,0.0,0.0,0.0,0.0,0.0,0.0,0.0,0.0,0.0,0.0,0.0,0.0,0.0,0.0,0.0,0.0,0.0,0.0,0.0,0.0,0.0,0.0,0.0,0.0,0.0,0.0,0.0,0.0,0.0,0.0,0.0,0.0,0.0,0.0,0.0,0.0,0.0,0.0,0.0,0.0,0.0,0.0,0.0,0.0,0.0,0.0,0.0,0.0,0.0,-2.5312,-2.5312,-2.5312,0.0,-2.5312,0.0,0.0,0.0,0.0,0.0,0.0,0.0,0.0,0.0,0.0,0.0,0.0,0.0,0.0,0.0,0.0,0.0,0.0,0.0,0.0,0.0,0.0,0.0,0.0,0.0,0.0,0.0,0.0,0.0,0.0,0.0,0.0,0.0,0.0,0.0,0.0,0.0,0.0,0.0,0.0,0.0,0.0,0.0,0.0,0.0,0.0,0.0,0.0,0.0,0.0,0.0,0.0,0.0,0.0,0.0,0.0,0.0,0.0,0.0,0.0,0.0,0.0,0.0,0.0,0.0,0.0,0.0,0.0,0.0,0.0,0.0,0.0,0.0,0.0,0.0,0.0,0.0,0.0,0.0,0.0,0.0,0.0,0.0,0.0,0.0,0.0,0.0,0.0,0.0,0.0,0.0,0.0,0.0,0.0,0.0,0.0,0.0,0.0,0.0,0.0,0.0,0.0,0.0,0.0,0.0,0.0,0.0,0.0,0.0,0.0,-2.5312,-2.5312,-2.5312,-2.5312,0.0,0.0,0.0,0.0,0.0,0.0,0.0,0.0,0.0,0.0,0.0,0.0,0.0,0.0,0.0,0.0,0.0,0.0,0.0,0.0,0.0,0.0,0.0,0.0,0.0,0.0,0.0,0.0,0.0,0.0,0.0,0.0,0.0,0.0,0.0,0.0,0.0,0.0,0.0,0.0,0.0,0.0,0.0,0.0,0.0,0.0,0.0,0.0,0.0,0.0,0.0,0.0,0.0,0.0,0.0,0.0,0.0,0.0,0.0,0.0,0.0,0.0,0.0,0.0,0.0,0.0,0.0,0.0,0.0,0.0,0.0,0.0,0.0,0.0,0.0,0.0,0.0,0.0,0.0,0.0,0.0,0.0,0.0,0.0,0.0,0.0,0.0,0.0,0.0,0.0,0.0,0.0,0.0,0.0,0.0,0.0,0.0,0.0,0.0,0.0,0.0,0.0,0.0,0.0,0.0,0.0,0.0,0.0,0.0,0.0,-2.5312,-2.5312,-2.5312,-2.5312,-2.5312,-2.5312,0.0,0.0,0.0,0.0,0.0,0.0,0.0,0.0,0.0,0.0,0.0,0.0,0.0,0.0,0.0,0.0,0.0,0.0,0.0,0.0,0.0,0.0,0.0,0.0,0.0,0.0,0.0,0.0,0.0,0.0,0.0,0.0,0.0,0.0,0.0,0.0,0.0,0.0,0.0,0.0,0.0,0.0,0.0,0.0,0.0,0.0,0.0,0.0,0.0,0.0,0.0,0.0,0.0,0.0,0.0,0.0,0.0,0.0,0.0,0.0,0.0,0.0,0.0,0.0,0.0,0.0,0.0,0.0,0.0,0.0,0.0,0.0,0.0,0.0,0.0,0.0,0.0,0.0,0.0,0.0,0.0,0.0,0.0,0.0,0.0,0.0,0.0,0.0,0.0,0.0,0.0,0.0,0.0,0.0,0.0,0.0,0.0,0.0,0.0,0.0,0.0,0.0,0.0,0.0,0.0,0.0,0.0,0.0,-2.5312,-2.53,-2.53,-2.5288,-2.5312,-2.5312,0.0,0.0,0.0,0.0,0.0,0.0,0.0,0.0,0.0,0.0,0.0,0.0,0.0,0.0,0.0,0.0,0.0,0.0,0.0,0.0,0.0,0.0,0.0,0.0,0.0,0.0,0.0,0.0,0.0,0.0,0.0,0.0,0.0,0.0,0.0,0.0,0.0,0.0,0.0,0.0,0.0,0.0,0.0,0.0,0.0,0.0,0.0,0.0,0.0,0.0,0.0,0.0,0.0,0.0,0.0,0.0,0.0,0.0,0.0,0.0,0.0,0.0,0.0,0.0,0.0,0.0,0.0,0.0,0.0,0.0,0.0,0.0,0.0,0.0,0.0,0.0,0.0,0.0,0.0,0.0,0.0,0.0,0.0,0.0,0.0,0.0,0.0,0.0,0.0,0.0,0.0,0.0,0.0,0.0,0.0,0.0,0.0,0.0,0.0,0.0,0.0,0.0,0.0,0.0,0.0,0.0,0.0,0.0,0.0,-2.53,-2.4975,-2.4501,-2.3997,-2.4489,-2.4668,0.0,0.0,0.0,0.0,0.0,0.0,0.0,0.0,0.0,0.0,0.0,0.0,0.0,0.0,0.0,0.0,0.0,0.0,0.0,0.0,0.0,0.0,0.0,0.0,0.0,0.0,0.0,0.0,0.0,0.0,0.0,0.0,0.0,0.0,0.0,0.0,0.0,0.0,0.0,0.0,0.0,0.0,0.0,0.0,0.0,0.0,0.0,0.0,0.0,0.0,0.0,0.0,0.0,0.0,0.0,0.0,0.0,0.0,0.0,0.0,0.0,0.0,0.0,0.0,0.0,0.0,0.0,0.0,0.0,0.0,0.0,0.0,0.0,0.0,0.0,0.0,0.0,0.0,0.0,0.0,0.0,0.0,0.0,0.0,0.0,0.0,0.0,0.0,0.0,0.0,0.0,0.0,0.0,0.0,0.0,0.0,0.0,0.0,0.0,0.0,0.0,0.0,0.0,0.0,0.0,0.0,0.0,0.0,0.0,-2.485,0.0,-2.3898,-2.3433,-2.3944,-2.4342,0.0,0.0,0.0,0.0,0.0,0.0,0.0,0.0,0.0,0.0,0.0,0.0,0.0,0.0,0.0,0.0,0.0,0.0,0.0,0.0,0.0,0.0,0.0,0.0,0.0,0.0,0.0,0.0,0.0,0.0,0.0,0.0,0.0,0.0,0.0,0.0,0.0,0.0,0.0,0.0,0.0,0.0,0.0,0.0,0.0,0.0,0.0,0.0,0.0,0.0,0.0,0.0,0.0,0.0,0.0,0.0,0.0,0.0,0.0,0.0,0.0,0.0,0.0,0.0,0.0,0.0,0.0,0.0,0.0,0.0,0.0,0.0,0.0,0.0,0.0,0.0,0.0,0.0,0.0,0.0,0.0,0.0,0.0,0.0,0.0,0.0,0.0,0.0,0.0,0.0,0.0,0.0,0.0,0.0,0.0,0.0,0.0,0.0,0.0,0.0,0.0,0.0,0.0,0.0,0.0,0.0,0.0,0.0,-2.4791,-2.3879,-2.3503,-2.3447,-2.3795,-2.375,-2.423,0.0,0.0,0.0,0.0,0.0,0.0,0.0,0.0,0.0,0.0,0.0,0.0,0.0,0.0,0.0,0.0,0.0,0.0,0.0,0.0,0.0,0.0,0.0,0.0,0.0,0.0,0.0,0.0,0.0,0.0,0.0,0.0,0.0,0.0,0.0,0.0,0.0,0.0,0.0,0.0,0.0,0.0,0.0,0.0,0.0,0.0,0.0,0.0,0.0,0.0,0.0,0.0,0.0,0.0,0.0,0.0,0.0,0.0,0.0,0.0,0.0,0.0,0.0,0.0,0.0,0.0,0.0,0.0,0.0,0.0,0.0,0.0,0.0,0.0,0.0,0.0,0.0,0.0,0.0,0.0,0.0,0.0,0.0,0.0,0.0,0.0,0.0,0.0,0.0,0.0,0.0,0.0,0.0,0.0,0.0,0.0,0.0,0.0,0.0,0.0,0.0,0.0,0.0,0.0,0.0,0.0,0.0,0.0,0.0,-2.4272,-2.3532,-2.3089,-2.3074,-2.3137,-2.3473,0.0,0.0,0.0,0.0,0.0,0.0,0.0,0.0,0.0,0.0,0.0,0.0,0.0,0.0,0.0,0.0,0.0,0.0,0.0,0.0,0.0,0.0,0.0,0.0,0.0,0.0,0.0,0.0,0.0,0.0,0.0,0.0,0.0,0.0,0.0,0.0,0.0,0.0,0.0,0.0,0.0,0.0,0.0,0.0,0.0,0.0,0.0,0.0,0.0,0.0,0.0,0.0,0.0,0.0,0.0,0.0,0.0,0.0,0.0,0.0,0.0,0.0,0.0,0.0,0.0,0.0,0.0,0.0,0.0,0.0,0.0,0.0,0.0,0.0,0.0,0.0,0.0,0.0,0.0,0.0,0.0,0.0,0.0,0.0,0.0,0.0,0.0,0.0,0.0,0.0,0.0,0.0,0.0,0.0,0.0,0.0,0.0,0.0,0.0,0.0,0.0,0.0,0.0,0.0,0.0,0.0,0.0,0.0,0.0,-2.4452,-2.3436,-2.2849,-2.2562,-2.3056,-2.3568,-2.3954,0.0,0.0,0.0,0.0,0.0,0.0,0.0,0.0,0.0,0.0,0.0,0.0,0.0,0.0,0.0,0.0,0.0,0.0,0.0,0.0,0.0,0.0,0.0,0.0,0.0,0.0,0.0,0.0,0.0,0.0,0.0,0.0,0.0,0.0,0.0,0.0,0.0,0.0,0.0,0.0,0.0,0.0,0.0,0.0,0.0,0.0,0.0,0.0,0.0,0.0,0.0,0.0,0.0,0.0,0.0,0.0,0.0,0.0,0.0,0.0,0.0,0.0,0.0,0.0,0.0,0.0,0.0,0.0,0.0,0.0,0.0,0.0,0.0,0.0,0.0,0.0,0.0,0.0,0.0,0.0,0.0,0.0,0.0,0.0,0.0,0.0,0.0,0.0,0.0,0.0,0.0,0.0,0.0,0.0,0.0,0.0,0.0,0.0,0.0,0.0,0.0,0.0,0.0,0.0,0.0,0.0,0.0,0.0,-2.4432,-2.3481,-2.2788,-2.249,-2.3414,-2.4194,0.0,0.0,0.0,0.0,0.0,0.0,0.0,0.0,0.0,0.0,0.0,0.0,0.0,0.0,0.0,0.0,0.0,0.0,0.0,0.0,0.0,0.0,0.0,0.0,0.0,0.0,0.0,0.0,0.0,0.0,0.0,0.0,0.0,0.0,0.0,0.0,0.0,0.0,0.0,0.0,0.0,0.0,0.0,0.0,0.0,0.0,0.0,0.0,0.0,0.0,0.0,0.0,0.0,0.0,0.0,0.0,0.0,0.0,0.0,0.0,0.0,0.0,0.0,0.0,0.0,0.0,0.0,0.0,0.0,0.0,0.0,0.0,0.0,0.0,0.0,0.0,0.0,0.0,0.0,0.0,0.0,0.0,0.0,0.0,0.0,0.0,0.0,0.0,0.0,0.0,0.0,0.0,0.0,0.0,0.0,0.0,0.0,0.0,0.0,0.0,0.0,0.0,0.0,0.0,0.0,0.0,0.0,0.0,0.0,-2.3906,-2.4272,-2.4136,-2.3371,-2.3503,-2.3818,0.0,0.0,0.0,0.0,0.0,0.0,0.0,0.0,0.0,0.0,0.0,0.0,0.0,0.0,0.0,0.0,0.0,0.0,0.0,0.0,0.0,0.0,0.0,0.0,0.0,0.0,0.0,0.0,0.0,0.0,0.0,0.0,0.0,0.0,0.0,0.0,0.0,0.0,0.0,0.0,0.0,0.0,0.0,0.0,0.0,0.0,0.0,0.0,0.0,0.0,0.0,0.0,0.0,0.0,0.0,0.0,0.0,0.0,0.0,0.0,0.0,0.0,0.0,0.0,0.0,0.0,0.0,0.0,0.0,0.0,0.0,0.0,0.0,0.0,0.0,0.0,0.0,0.0,0.0,0.0,0.0,0.0,0.0,0.0,0.0,0.0,0.0,0.0,0.0,0.0,0.0,0.0,0.0,0.0,0.0,0.0,0.0,0.0,0.0,0.0,0.0,0.0,0.0,0.0,0.0,0.0,0.0,0.0,-2.4916,-2.4729,-2.5425,-2.5523,-2.5124,-2.464,-2.4341,0.0,0.0,0.0,0.0,0.0,0.0,0.0,0.0,0.0,0.0,0.0,0.0,0.0,0.0,0.0,0.0,0.0,0.0,0.0,0.0,0.0,0.0,0.0,0.0,0.0,0.0,0.0,0.0,0.0,0.0,0.0,0.0,0.0,0.0,0.0,0.0,0.0,0.0,0.0,0.0,0.0,0.0,0.0,0.0,0.0,0.0,0.0,0.0,0.0,0.0,0.0,0.0,0.0,0.0,0.0,0.0,0.0,0.0,0.0,0.0,0.0,0.0,0.0,0.0,0.0,0.0,0.0,0.0,0.0,0.0,0.0,0.0,0.0,0.0,0.0,0.0,0.0,0.0,0.0,0.0,0.0,0.0,0.0,0.0,0.0,0.0,0.0,0.0,0.0,0.0,0.0,0.0,0.0,0.0,0.0,0.0,0.0,0.0,0.0,0.0,0.0,0.0,0.0,0.0,0.0,0.0,0.0,0.0,-2.5652,-2.6204,-2.6578,-2.6955,-2.7189,-2.6341,-2.5513,0.0,0.0,0.0,0.0,0.0,0.0,0.0,0.0,0.0,0.0,0.0,0.0,0.0,0.0,0.0,0.0,0.0,0.0,0.0,0.0,0.0,0.0,0.0,0.0,0.0,0.0,0.0,0.0,0.0,0.0,0.0,0.0,0.0,0.0,0.0,0.0,0.0,0.0,0.0,0.0,0.0,0.0,0.0,0.0,0.0,0.0,0.0,0.0,0.0,0.0,0.0,0.0,0.0,0.0,0.0,0.0,0.0,0.0,0.0,0.0,0.0,0.0,0.0,0.0,0.0,0.0,0.0,0.0,0.0,0.0,0.0,0.0,0.0,0.0,0.0,0.0,0.0,0.0,0.0,0.0,0.0,0.0,0.0,0.0,0.0,0.0,0.0,0.0,0.0,0.0,0.0,0.0,0.0,0.0,0.0,0.0,0.0,0.0,0.0,0.0,0.0,0.0,0.0,0.0,0.0,0.0,0.0,0.0,-2.5852,-2.6193,-2.7138,-2.7587,-2.7252,-2.7131,-2.6661,0.0,0.0,0.0,0.0,0.0,0.0,0.0,0.0,0.0,0.0,0.0,0.0,0.0,0.0,0.0,0.0,0.0,0.0,0.0,0.0,0.0,0.0,0.0,0.0,0.0,0.0,0.0,0.0,0.0,0.0,0.0,0.0,0.0,0.0,0.0,0.0,0.0,0.0,0.0,0.0,0.0,0.0,0.0,0.0,0.0,0.0,0.0,0.0,-3.3293,0.0,0.0,0.0,0.0,0.0,0.0,0.0,0.0,0.0,0.0,0.0,0.0,0.0,0.0,0.0,0.0,0.0,0.0,0.0,0.0,0.0,0.0,0.0,0.0,0.0,0.0,0.0,0.0,0.0,0.0,0.0,0.0,0.0,0.0,0.0,0.0,0.0,0.0,0.0,0.0,0.0,0.0,0.0,0.0,0.0,0.0,0.0,0.0,0.0,0.0,0.0,0.0,0.0,0.0,0.0,0.0,0.0,0.0,0.0,-2.757,-2.8459,-2.9259,-2.9569,-2.9354,-2.9172,-2.8197,0.0,0.0,0.0,0.0,0.0,0.0,0.0,0.0,0.0,0.0,0.0,0.0,0.0,0.0,0.0,0.0,0.0,0.0,0.0,0.0,0.0,0.0,0.0,0.0,0.0,0.0,0.0,0.0,0.0,0.0,0.0,0.0,0.0,0.0,0.0,0.0,0.0,0.0,0.0,0.0,0.0,0.0,0.0,0.0,0.0,0.0,0.0,0.0,0.0,0.0,0.0,0.0,0.0,0.0,0.0,0.0,0.0,0.0,0.0,0.0,0.0,0.0,0.0,0.0,0.0,0.0,0.0,0.0,0.0,0.0,0.0,0.0,0.0,0.0,0.0,0.0,0.0,0.0,0.0,0.0,0.0,0.0,0.0,0.0,0.0,0.0,0.0,0.0,0.0,0.0,0.0,0.0,0.0,0.0,0.0,0.0,0.0,0.0,0.0,0.0,0.0,0.0,0.0,0.0,0.0,0.0,0.0,-2.8015,-2.9358,-3.0928,-3.149,-3.1675,-3.1659,-3.1249,-2.9727,-2.7119,0.0,0.0,0.0,0.0,0.0,0.0,0.0,0.0,0.0,0.0,0.0,0.0,0.0,0.0,0.0,0.0,0.0,0.0,0.0,0.0,0.0,0.0,0.0,0.0,0.0,0.0,0.0,0.0,0.0,0.0,0.0,0.0,0.0,0.0,0.0,0.0,0.0,0.0,-3.3435,-3.3451,0.0,0.0,0.0,0.0,0.0,0.0,0.0,0.0,-3.3925,0.0,0.0,0.0,0.0,0.0,0.0,0.0,0.0,0.0,0.0,0.0,0.0,0.0,0.0,0.0,0.0,0.0,0.0,0.0,0.0,0.0,0.0,0.0,0.0,0.0,0.0,0.0,0.0,0.0,0.0,0.0,0.0,0.0,0.0,0.0,0.0,0.0,0.0,0.0,0.0,0.0,0.0,0.0,0.0,0.0,0.0,0.0,0.0,0.0,0.0,0.0,0.0,0.0,0.0,0.0,0.0,-2.707,-2.7763,-2.8991,-3.0939,-3.1479,-3.1675,-3.1754,-3.1612,-3.0559,-2.837,0.0,0.0,0.0,0.0,0.0,0.0,0.0,0.0,0.0,0.0,0.0,0.0,0.0,0.0,0.0,0.0,0.0,0.0,0.0,0.0,0.0,0.0,0.0,0.0,0.0,0.0,0.0,0.0,0.0,0.0,0.0,0.0,0.0,0.0,0.0,0.0,0.0,0.0,0.0,-3.413,-3.413,0.0,0.0,0.0,0.0,0.0,0.0,0.0,0.0,-3.4826,0.0,0.0,0.0,0.0,0.0,0.0,0.0,0.0,0.0,0.0,0.0,0.0,0.0,0.0,0.0,0.0,0.0,0.0,0.0,0.0,0.0,0.0,0.0,0.0,0.0,0.0,0.0,0.0,0.0,0.0,0.0,0.0,0.0,0.0,0.0,0.0,0.0,0.0,0.0,0.0,0.0,0.0,0.0,0.0,0.0,0.0,0.0,0.0,0.0,0.0,0.0,0.0,0.0,0.0,0.0,-2.8607,-2.9451,-3.0754,-3.2477,-3.2792,-3.2609,-3.2123,-3.1798,-3.0749,0.0,0.0,0.0,0.0,0.0,0.0,0.0,0.0,0.0,0.0,0.0,0.0,0.0,0.0,0.0,0.0,0.0,0.0,0.0,0.0,0.0,0.0,0.0,0.0,0.0,0.0,0.0,0.0,0.0,0.0,0.0,0.0,0.0,0.0,0.0,0.0,0.0,0.0,0.0,0.0,-3.4288,-3.4431,-3.481,0.0,0.0,0.0,0.0,0.0,0.0,-3.5394,-3.5268,0.0,0.0,0.0,0.0,0.0,0.0,0.0,0.0,0.0,0.0,0.0,0.0,0.0,0.0,0.0,0.0,0.0,0.0,0.0,0.0,0.0,0.0,0.0,0.0,0.0,0.0,0.0,0.0,0.0,0.0,0.0,0.0,0.0,0.0,0.0,0.0,0.0,0.0,0.0,0.0,0.0,0.0,0.0,0.0,0.0,0.0,0.0,0.0,0.0,0.0,0.0,0.0,0.0,0.0,0.0,-3.0074,-3.1205,-3.2404,-3.3899,-3.3965,-3.3546,-3.2712,-3.2073,-3.0673,0.0,0.0,0.0,0.0,0.0,0.0,0.0,0.0,0.0,0.0,0.0,0.0,0.0,0.0,0.0,0.0,0.0,0.0,0.0,0.0,0.0,0.0,0.0,0.0,0.0,0.0,0.0,0.0,0.0,0.0,0.0,0.0,0.0,0.0,0.0,0.0,0.0,0.0,0.0,0.0,0.0,-3.4984,-3.5695,-3.5805,0.0,0.0,0.0,0.0,-3.6564,-3.6406,0.0,0.0,0.0,0.0,0.0,0.0,0.0,0.0,0.0,0.0,0.0,0.0,0.0,0.0,0.0,0.0,0.0,0.0,0.0,0.0,0.0,0.0,0.0,0.0,0.0,0.0,0.0,0.0,0.0,0.0,0.0,0.0,0.0,0.0,0.0,0.0,0.0,0.0,0.0,0.0,0.0,0.0,0.0,0.0,0.0,0.0,0.0,0.0,0.0,0.0,0.0,0.0,0.0,0.0,0.0,0.0,-3.0074,-3.1104,-3.2404,-3.3899,-3.3965,-3.374,-3.3215,-3.2196,-3.0673,0.0,0.0,0.0,0.0,0.0,0.0,0.0,0.0,0.0,0.0,0.0,0.0,0.0,0.0,0.0,0.0,0.0,0.0,0.0,0.0,0.0,0.0,0.0,0.0,0.0,0.0,0.0,0.0,0.0,0.0,0.0,0.0,0.0,0.0,0.0,0.0,0.0,0.0,0.0,0.0,0.0,-3.6437,-3.7133,-3.7243,-3.7022,0.0,0.0,-3.7259,-3.7338,-3.8286,0.0,0.0,0.0,0.0,0.0,0.0,0.0,0.0,0.0,0.0,0.0,0.0,0.0,0.0,0.0,0.0,0.0,0.0,0.0,0.0,0.0,0.0,0.0,0.0,0.0,0.0,0.0,0.0,0.0,0.0,0.0,0.0,0.0,0.0,0.0,0.0,0.0,0.0,0.0,0.0,0.0,0.0,0.0,0.0,0.0,0.0,0.0,0.0,0.0,0.0,0.0,0.0,0.0,0.0,0.0,-2.91,-3.0951,-3.2082,-3.3241,-3.4438,-3.4412,-3.4042,-3.3308,-3.2046,-3.0417,0.0,0.0,0.0,0.0,0.0,0.0,0.0,0.0,0.0,0.0,0.0,0.0,0.0,0.0,0.0,0.0,0.0,0.0,0.0,0.0,0.0,0.0,0.0,0.0,0.0,0.0,0.0,0.0,0.0,0.0,0.0,0.0,0.0,0.0,0.0,0.0,0.0,0.0,0.0,0.0,0.0,0.0,-3.7907,-3.8381,0.0,0.0,0.0,-3.8618,-3.8634,0.0,0.0,0.0,0.0,0.0,0.0,0.0,0.0,0.0,0.0,0.0,0.0,0.0,0.0,0.0,0.0,0.0,0.0,0.0,0.0,0.0,0.0,0.0,0.0,0.0,0.0,0.0,0.0,0.0,0.0,0.0,0.0,0.0,0.0,0.0,0.0,0.0,0.0,0.0,0.0,0.0,0.0,0.0,0.0,0.0,0.0,0.0,0.0,0.0,0.0,0.0,0.0,0.0,0.0,0.0,0.0,0.0,-3.1625,-3.2743,-3.3789,-3.4775,-3.4823,-3.4402,-3.3489,-3.2146,0.0,0.0,0.0,0.0,0.0,0.0,0.0,0.0,0.0,0.0,0.0,0.0,0.0,0.0,0.0,0.0,0.0,0.0,0.0,0.0,0.0,0.0,0.0,0.0,0.0,0.0,0.0,-3.4288,0.0,0.0,0.0,0.0,0.0,0.0,0.0,0.0,0.0,0.0,0.0,0.0,0.0,0.0,-3.7385,-3.8586,-3.9204,-3.9629,0.0,0.0,-3.9629,-3.9771,-3.9914,-3.955,0.0,0.0,0.0,0.0,0.0,0.0,0.0,0.0,0.0,0.0,0.0,0.0,0.0,0.0,0.0,0.0,0.0,0.0,0.0,0.0,0.0,0.0,0.0,0.0,0.0,0.0,0.0,0.0,0.0,0.0,0.0,0.0,0.0,0.0,0.0,0.0,0.0,0.0,0.0,0.0,0.0,0.0,0.0,0.0,0.0,0.0,0.0,0.0,0.0,0.0,0.0,0.0,0.0,0.0,0.0,-3.1613,-3.2731,-3.3789,-3.4775,-3.4823,-3.4559,-3.3994,-3.2984,-3.1661,0.0,0.0,0.0,0.0,0.0,0.0,0.0,0.0,0.0,0.0,0.0,0.0,0.0,0.0,0.0,0.0,0.0,0.0,0.0,0.0,0.0,0.0,0.0,0.0,0.0,0.0,0.0,0.0,0.0,0.0,0.0,0.0,0.0,0.0,0.0,0.0,0.0,0.0,0.0,0.0,0.0,-3.8618,-3.9345,-3.956,-3.9882,0.0,0.0,-3.9882,-4.045,-4.1035,-4.0972,-3.9582,0.0,0.0,0.0,0.0,0.0,0.0,0.0,0.0,0.0,0.0,0.0,0.0,0.0,0.0,0.0,0.0,0.0,0.0,0.0,0.0,0.0,0.0,0.0,0.0,0.0,0.0,0.0,0.0,0.0,0.0,0.0,0.0,0.0,0.0,0.0,0.0,0.0,0.0,0.0,0.0,0.0,0.0,0.0,0.0,0.0,0.0,0.0,0.0,0.0,0.0,0.0,0.0,0.0,-2.9556,-3.1637,-3.2731,-3.3789,-3.4763,-3.4823,-3.4583,-3.4054,-3.2742,-3.1598,0.0,0.0,0.0,0.0,0.0,0.0,0.0,0.0,0.0,0.0,0.0,0.0,0.0,0.0,0.0,0.0,0.0,0.0,0.0,0.0,0.0,0.0,0.0,0.0,0.0,0.0,0.0,0.0,-3.5109,-3.517,-3.4666,0.0,0.0,0.0,0.0,0.0,0.0,0.0,0.0,0.0,0.0,-3.8387,-3.9448,-4.008,0.0,0.0,-4.0297,-4.0173,-3.9704,-4.0111,-3.9982,-3.8622,-3.7899,0.0,0.0,0.0,0.0,0.0,0.0,0.0,0.0,0.0,0.0,0.0,0.0,0.0,0.0,0.0,0.0,0.0,0.0,0.0,0.0,0.0,0.0,0.0,0.0,0.0,0.0,0.0,0.0,0.0,0.0,0.0,0.0,0.0,0.0,0.0,0.0,0.0,0.0,0.0,0.0,0.0,0.0,0.0,0.0,0.0,0.0,0.0,0.0,0.0,0.0,0.0,0.0,-2.9556,-3.1637,-3.2731,-3.3789,-3.4811,-3.4823,-3.4546,-3.3982,-3.3018,-3.2067,0.0,0.0,0.0,0.0,0.0,0.0,0.0,0.0,0.0,0.0,0.0,0.0,0.0,0.0,0.0,0.0,0.0,0.0,0.0,0.0,0.0,0.0,0.0,0.0,0.0,0.0,0.0,0.0,-3.5211,-3.5031,-3.4186,0.0,0.0,0.0,0.0,0.0,0.0,0.0,0.0,0.0,0.0,-3.824,-3.8835,-3.9751,-4.026,-3.9619,-3.9893,-3.9941,-3.9262,-3.9303,-3.9032,-3.7886,0.0,0.0,0.0,0.0,0.0,0.0,0.0,0.0,0.0,0.0,0.0,0.0,0.0,0.0,0.0,0.0,0.0,0.0,0.0,0.0,0.0,0.0,0.0,0.0,0.0,0.0,0.0,0.0,0.0,0.0,-2.3097,0.0,0.0,0.0,0.0,0.0,0.0,0.0,0.0,0.0,0.0,0.0,0.0,0.0,0.0,0.0,0.0,0.0,0.0,0.0,0.0,0.0,0.0,-2.9556,-3.1649,-3.2755,-3.3789,-3.4787,-3.4823,-3.4531,-3.3993,-3.3982,-3.3207,-3.1666,0.0,0.0,0.0,0.0,0.0,0.0,0.0,0.0,0.0,0.0,0.0,0.0,0.0,0.0,0.0,0.0,0.0,0.0,0.0,0.0,0.0,0.0,0.0,0.0,0.0,0.0,-3.4849,-3.4505,-3.3871,0.0,0.0,0.0,0.0,0.0,0.0,0.0,0.0,0.0,0.0,-3.7452,-3.8361,-3.7273,-3.8596,-3.9462,-3.8874,-3.8781,-3.8929,-3.933,-3.9075,-3.8536,0.0,0.0,0.0,0.0,0.0,0.0,0.0,0.0,0.0,0.0,0.0,0.0,0.0,0.0,0.0,0.0,0.0,0.0,0.0,0.0,0.0,0.0,0.0,0.0,0.0,0.0,0.0,-2.2429,-2.3299,0.0,0.0,0.0,0.0,0.0,0.0,0.0,0.0,0.0,0.0,0.0,-2.9603,-2.9934,0.0,0.0,0.0,0.0,0.0,0.0,0.0,0.0,0.0,0.0,0.0,0.0,-3.0086,-3.213,-3.2923,-3.3789,-3.4787,-3.4823,-3.4543,-3.404,-3.3632,-3.2606,-3.0674,0.0,0.0,0.0,0.0,0.0,0.0,0.0,0.0,0.0,0.0,0.0,0.0,0.0,0.0,0.0,0.0,0.0,0.0,0.0,0.0,0.0,0.0,0.0,0.0,0.0,-3.4076,0.0,0.0,0.0,0.0,0.0,0.0,0.0,0.0,0.0,0.0,0.0,-3.5457,-3.5752,-3.6838,-3.7436,-3.7128,-3.7654,-3.7796,0.0,0.0,0.0,0.0,0.0,0.0,0.0,0.0,0.0,0.0,0.0,0.0,0.0,0.0,-3.8412,-3.7022,-3.6785,-3.6785,-3.6785,0.0,0.0,0.0,0.0,0.0,0.0,0.0,0.0,0.0,0.0,0.0,0.0,0.0,0.0,-2.262,0.0,-2.3533,0.0,0.0,0.0,0.0,0.0,0.0,0.0,0.0,-2.9339,-3.0454,-3.1008,-3.1337,-3.149,0.0,-3.1444,-3.0362,0.0,0.0,0.0,0.0,0.0,0.0,0.0,0.0,-3.0723,-3.2442,-3.3188,-3.4054,-3.504,-3.51,-3.4805,-3.4287,-3.3531,-3.2592,-3.1194,-3.0633,-2.9788,0.0,0.0,0.0,0.0,0.0,0.0,0.0,0.0,0.0,0.0,0.0,0.0,0.0,0.0,0.0,0.0,0.0,0.0,0.0,0.0,0.0,0.0,0.0,-3.35,0.0,0.0,0.0,0.0,0.0,0.0,0.0,0.0,0.0,-3.4237,-3.4831,-3.5261,-3.5646,-3.626,-3.6573,-3.6241,0.0,0.0,0.0,0.0,0.0,0.0,0.0,-3.6,-3.557,-3.6194,-3.6768,-3.7071,-3.8142,-3.9261,-4.0128,0.0,0.0,-3.9202,-3.8902,-3.8902,-3.8902,-3.8902,-3.8902,-3.8902,-3.8902,-3.8902,0.0,0.0,0.0,0.0,0.0,0.0,0.0,0.0,-2.3836,-2.4147,0.0,-2.4396,0.0,0.0,0.0,0.0,0.0,-2.664,0.0,0.0,-3.0159,-3.0974,-3.2359,-3.2418,-3.2464,-3.2472,-3.246,-3.1985,-3.0915,-2.9917,0.0,0.0,0.0,0.0,0.0,0.0,-3.1468,-3.2599,-3.3573,-3.4583,-3.5593,-3.5641,-3.5342,-3.4804,-3.3754,-3.313,-3.3036,-3.1738,-3.0906,-3.0824,-2.9033,0.0,0.0,0.0,0.0,0.0,0.0,0.0,0.0,0.0,0.0,0.0,0.0,0.0,0.0,0.0,0.0,0.0,0.0,0.0,0.0,-3.3102,0.0,0.0,0.0,0.0,0.0,0.0,0.0,0.0,0.0,0.0,-3.5568,-3.4831,-3.4392,-3.5094,0.0,0.0,0.0,0.0,-3.6552,-3.5442,-3.5619,-3.5891,-3.5891,-3.6043,-3.6156,-3.6141,0.0,0.0,-3.7923,-3.9077,-4.0309,-4.1503,-4.1798,-4.179,-4.1755,-4.1652,-4.1588,-4.1604,-4.1573,-4.1636,-4.1636,-4.1509,-4.1541,-2.429,0.0,0.0,0.0,0.0,-2.2969,-2.3524,-2.4384,-2.4486,-2.4843,-2.5392,-2.5991,0.0,0.0,0.0,0.0,0.0,0.0,-2.9047,-2.9753,-3.0729,-3.1502,-3.1893,-3.2233,-3.2437,-3.2555,-3.2841,-3.2676,-3.2106,-3.2094,-3.1108,-2.9136,0.0,0.0,0.0,0.0,-3.2743,-3.4078,-3.4451,-3.5112,-3.6158,-3.6182,-3.5765,-3.4843,-3.3788,-3.287,-3.2118,-3.2042,-3.1494,-3.042,-3.0461,0.0,0.0,0.0,0.0,0.0,0.0,0.0,0.0,0.0,0.0,0.0,0.0,0.0,0.0,0.0,0.0,0.0,0.0,0.0,-3.3973,-3.3563,-3.3378,0.0,0.0,0.0,0.0,0.0,0.0,0.0,0.0,0.0,-3.6492,-3.5663,-3.483,0.0,0.0,-3.5422,-3.5121,-3.5517,-3.5859,-3.5985,-3.6084,0.0,-3.6222,-3.6655,-3.6937,-3.6952,-3.8047,-3.9195,-3.9995,-4.11,-4.2198,-4.3076,-4.3183,-4.3501,-4.4359,-4.3788,-4.3132,-4.3105,-4.3121,-4.3121,-4.3105,-4.3121,-4.3121,-2.539,-2.4455,-2.3914,-2.3813,-2.4024,-2.4033,-2.4409,-2.5023,-2.5014,-2.5303,-2.5692,-2.6208,-2.6271,-2.6017,-2.6588,0.0,0.0,0.0,-2.939,-3.0067,-3.0932,-3.1606,-3.2006,-3.2275,-3.2564,-3.2799,-3.3278,-3.33,-3.2794,-3.3291,-3.2687,-3.0978,0.0,0.0,-3.1853,-3.2703,-3.3506,-3.4409,-3.4651,-3.5152,-3.5978,-3.6105,-3.5793,-3.5037,-3.4243,-3.342,-3.252,-3.2644,-3.2242,-3.1338,-3.156,-3.1125,0.0,0.0,0.0,0.0,0.0,0.0,0.0,0.0,0.0,0.0,0.0,-2.922,-2.9983,0.0,0.0,0.0,-3.3269,-3.4298,-3.5039,-3.4512,0.0,0.0,0.0,0.0,0.0,0.0,0.0,-3.632,-3.6435,-3.6764,-3.743,-3.6884,-3.6157,-3.559,-3.5824,-3.6113,-3.6459,0.0,-3.662,-3.6997,-3.7056,-3.7056,-3.707,-3.7622,-3.8217,-3.8725,-4.0139,-4.1298,-4.1739,-4.2583,-4.3453,-4.4038,-4.4223,-4.4584,-4.5629,-4.5321,-4.484,-4.4583,-4.4543,-4.4543,-4.4559,-4.4559,-4.4559,-2.6004,-2.594,-2.5225,-2.4904,-2.4876,-2.4876,-2.5106,-2.5463,-2.5472,-2.5463,-2.5463,-2.5568,-2.5732,-2.6006,-2.6182,0.0,-2.8213,-2.8223,-2.9186,-3.0852,-3.0852,-3.1405,-3.2364,-3.2386,-3.2712,-3.3172,-3.3772,-3.3726,-3.3282,-3.3754,-3.3838,-3.3344,-3.3387,-3.3419,-3.3337,-3.3773,-3.4094,-3.4141,-3.4555,-3.4966,-3.5566,-3.5577,-3.5577,-3.547,-3.4989,-3.4411,-3.386,-3.3481,-3.325,-3.3258,-3.2415,-3.1837,-3.1793,0.0,0.0,0.0,0.0,0.0,0.0,0.0,0.0,0.0,0.0,0.0,0.0,0.0,0.0,0.0,-3.4228,0.0,-3.5707,-3.5683,0.0,0.0,0.0,-3.4744,-3.5011,-3.5942,-3.6794,-3.7446,0.0,0.0,-3.8507,-3.8507,-3.8318,-3.7825,-3.7593,-3.7694,-3.8333,-3.8434,-3.8449,-3.858,-3.8536,-3.8536,-3.8667,-3.9189,-4.0002,-4.1091,-4.231,-4.3018,-4.3105,-4.3629,-4.4223,-4.4718,-4.4902,-4.5069,-4.5649,-4.6162,-4.647,-4.5786,-4.5813,-4.5855,-4.5839,-4.576,-4.5681,-2.6435,-2.6417,-2.6243,-2.5977,-2.5683,-2.5683,-2.5913,-2.6289,-2.6307,-2.6298,-2.6406,-2.7022,-2.741,-2.7819,-2.7472,-2.7723,-2.835,-2.835,-2.9157,-3.0512,-3.0533,-3.1202,-3.2405,-3.2405,-3.2685,-3.3132,-3.3679,-3.3831,-3.3718,-3.4222,-3.4428,-3.4325,-3.4312,-3.4171,-3.3823,-3.43,-3.4705,-3.5178,-3.521,-3.5577,-3.6071,-3.6094,-3.5865,-3.5418,-3.4967,-3.4374,-3.3834,-3.3805,-3.3718,-3.3832,-3.3604,-3.3279,-3.2935,-3.1757,0.0,0.0,0.0,0.0,0.0,0.0,0.0,0.0,0.0,-2.9929,-3.0937,0.0,-3.2335,0.0,-3.5003,-3.6064,-3.6156,-3.6824,0.0,0.0,-3.6768,-3.6939,-3.7491,-3.8225,-3.8946,-3.9533,-4.0516,-4.1178,-4.1163,-4.1178,-4.1294,-4.1541,-3.9973,-3.916,-4.0205,-4.0408,-4.0597,-4.1018,-4.1105,-4.1178,-4.1163,-4.1686,-4.2339,-4.3166,-4.3558,-4.3747,-4.3761,-4.4255,-4.4763,-4.4923,-4.4909,-4.5169,-4.5784,-4.5618,-4.5529,-4.5795,-4.6235,-4.6566,-4.655,-4.6171,-4.5823,-2.6591,-2.6609,-2.6784,-2.671,-2.649,-2.6307,-2.6371,-2.6582,-2.6591,-2.6683,-2.6866,-2.7565,-2.7948,-2.8153,-2.7902,-2.8038,-2.8691,-2.8691,-2.9474,-3.1,-3.1,-3.1572,-3.2678,-3.2689,-3.282,-3.306,-3.3626,-3.3944,-3.3944,-3.4448,-3.4678,-3.4661,-3.4661,-3.4543,-3.4179,-3.4543,-3.4808,-3.508,-3.5091,-3.5241,-3.5488,-3.5511,-3.529,-3.5058,-3.4703,-3.445,-3.4119,-3.4192,-3.4229,-3.4252,-3.4507,-3.4492,-3.3969,-3.3215,-3.2597,0.0,0.0,0.0,0.0,0.0,0.0,0.0,0.0,0.0,0.0,0.0,-3.3791,-3.4854,-3.6479,-3.7469,-3.7469,-3.8435,-3.8919,-3.8636,-3.8771,-3.912,-3.981,-4.0373,-4.1093,-4.1877,-4.2534,-4.2948,-4.2948,-4.2948,-4.3166,-4.3747,-4.2615,-4.1874,-4.2266,-4.2382,-4.2528,-4.2876,-4.2934,-4.2948,-4.2934,-4.3442,-4.395,-4.4327,-4.4647,-4.4835,-4.4835,-4.5097,-4.5343,-4.5343,-4.5329,-4.5418,-4.5845,-4.5927,-4.5903,-4.6236,-4.659,-4.678,-4.6823,-4.6479,-4.6228,-2.6738,-2.6774,-2.7114,-2.7251,-2.7233,-2.6885,-2.6747,-2.6738,-2.6738,-2.693,-2.727,-2.7618,-2.7756,-2.7756,-2.7756,-2.821,-2.8888,-2.8878,-2.9774,-3.1548,-3.1527,-3.2123,-3.3158,-3.3169,-3.3191,-3.3246,-3.3804,-3.4017,-3.4028,-3.4441,-3.4645,-3.4609,-3.4523,-3.4526,-3.4491,-3.4526,-3.4631,-3.4523,-3.4516,-3.4524,-3.4524,-3.4524,-3.4524,-3.4524,-3.4524,-3.4524,-3.4513,-3.4537,-3.4631,-3.4825,-3.5351,-3.5406,-3.5117,-3.4459,-3.4011,0.0,-3.2117,0.0,0.0,0.0,0.0,0.0,0.0,0.0,0.0,-3.4489,-3.5683,-3.6849,-3.829,-3.9106,-3.9106,-4.0118,-4.058,-4.023,-4.0493,-4.0977,-4.1713,-4.2089,-4.281,-4.3965,-4.4052,-4.4037,-4.424,-4.4139,-4.4268,-4.4864,-4.4864,-4.4589,-4.4327,-4.4197,-4.4182,-4.424,-4.4226,-4.424,-4.4269,-4.4661,-4.498,-4.5068,-4.543,-4.5866,-4.5808,-4.5837,-4.5866,-4.5866,-4.5837,-4.5851,-4.588,-4.6388,-4.6697,-4.6652,-4.6696,-4.6698,-4.6754,-4.6685,-4.6685,-2.7545,-2.7545,-2.7627,-2.7655,-2.7646,-2.7572,-2.7545,-2.7545,-2.7545,-2.7581,-2.7655,-2.7728,-2.7756,-2.7756,-2.7756,-2.7879,-2.7992,-2.7992,-2.8981,-3.063,-3.063,-3.1715,-3.365,-3.3661,-3.3857,-3.4229,-3.4372,-3.4361,-3.4361,-3.4461,-3.4516,-3.4493,-3.4493,-3.4547,-3.4513,0.0,0.0,0.0,-3.448,-3.4524,-3.4524,-3.4524,-3.4524,-3.4524,-3.4524,0.0,-3.4513,-3.4547,-3.4936,-3.5888,-3.5657,0.0,0.0,0.0,0.0,0.0,0.0,0.0,0.0,0.0,0.0,0.0,-3.5069,-3.5286,-3.5224,-3.632,-3.7528,-3.8681,-3.953,-3.9924,-4.0027,-4.0921,-4.155,-4.146,-4.1096,-4.1512,-4.2824,-4.2803,-4.3237,-4.4681,-4.4556,-4.4541,-4.5176,-4.4829,-4.457,-4.5439,-4.5692,-4.5663,-4.5518,-4.5445,-4.5503,-4.5532,-4.5416,-4.5503,-4.5532,-4.559,-4.5634,-4.5735,-4.5779,-4.588,-4.588,-4.588,-4.588,-4.588,-4.588,-4.588,-4.588,-4.606,-4.615,-4.615,-4.6122,-4.6269,-4.6773,-4.6443,-4.5981,-2.7756,0.0,-2.7985,-2.8077,0.0,-2.8287,-2.837,-2.8333,-2.793,-2.7884,-2.8095,-2.8278,-2.837,-2.8361,-2.837,-2.8361,-2.837,-2.8361,-2.9163,-3.0403,-3.0403,-3.1317,-3.2784,-3.2784,-3.3135,-3.3818,-3.3818,-3.4054,-3.4524,-3.4524,-3.4524,-3.4524,-3.4524,-3.4524,-3.4534,-3.4753,-3.4742,-3.4534,-3.4524,-3.4524,-3.4524,-3.4524,-3.4524,-3.4524,-3.4524,0.0,0.0,0.0,0.0,0.0,0.0,0.0,0.0,0.0,0.0,-3.61,-3.5088,-3.4556,-3.4564,-3.5144,-3.5604,-3.5974,-3.6798,-3.7204,-3.6783,-3.7332,-3.803,-3.8872,-3.9585,-3.9915,-3.9942,-4.0595,-4.112,-4.1133,-4.0967,-4.1389,-4.229,-4.2453,-4.2767,-4.3773,-4.4139,-4.4312,-4.4326,-4.442,-4.4513,-4.4989,-4.4712,-4.462,-4.5003,-4.5095,-4.5095,-4.5095,-4.5595,-4.588,-4.588,-4.588,-4.588,-4.588,-4.588,-4.588,-4.588,-4.588,-4.588,-4.588,-4.588,-4.588,-4.588,-4.588,-4.588,-4.588,-4.588,-4.5973,-4.6369,-4.6386,-4.6331,-2.7985,-2.8012,-2.8352,-2.8498,-2.8517,-2.8847,-2.8984,-2.8938,0.0,0.0,0.0,-2.8847,-2.8984,-2.8984,-2.8984,-2.8984,-2.8984,-2.8984,-2.945,-3.0382,-3.0616,-3.1063,-3.1747,-3.1977,-3.2322,-3.2892,-3.3006,-3.347,-3.4289,-3.4401,-3.4524,-3.4524,-3.46,-3.4687,-3.4797,-3.5146,-3.5157,-3.4797,-3.4786,-3.4786,-3.4775,-3.4786,-3.4786,-3.4786,-3.4786,-3.4673,-3.4549,-3.4775,-3.5089,-3.5524,-3.6219,-3.6828,-3.7369,-3.7331,-3.7,-3.6567,-3.605,-3.5569,-3.5148,-3.6162,-3.6776,-3.6875,-3.7916,-3.8459,-3.8095,-3.8153,-3.8383,-3.8932,-3.9492,-3.9761,-3.9761,-4.0145,-4.0414,-4.0414,-4.0554,-4.0844,-4.1406,-4.1617,-4.1999,-4.2682,-4.3259,-4.3531,-4.2985,-4.3341,-4.3829,-4.3923,-4.345,-4.2985,-4.364,-4.4125,-4.4406,-4.4499,-4.5293,-4.588,-4.588,-4.588,-4.588,-4.588,-4.588,-4.588,-4.588,-4.588,-4.588,-4.588,-4.588,-4.588,-4.588,-4.588,-4.588,-4.588,-4.588,-4.588,-4.597,-4.6299,-4.6594,-2.8801,-2.8819,-2.8874,-2.8893,-2.8902,-2.8966,-2.8984,-2.8975,-2.8856,-2.8847,-2.8902,-2.8957,-2.8984,-2.8984,-2.8984,-2.8984,-2.8984,-2.8984,-2.945,-3.0392,-3.1295,-3.1632,-3.1862,-3.255,-3.255,-3.2092,-3.2768,-3.313,-3.3356,-3.4065,-3.4524,-3.4589,-3.4917,-3.5332,-3.5736,-3.5823,-3.5823,-3.5769,-3.5758,-3.5769,-3.5758,-3.5769,-3.5769,-3.5758,-3.5747,-3.5399,-3.4572,-3.5829,-3.6404,-3.6245,-3.7127,-3.7923,-3.8455,-3.7769,-3.7156,-3.706,-3.6579,-3.6254,-3.6194,-3.6765,-3.7363,-3.7799,-3.8024,-3.8465,-3.9242,-3.9389,-3.9607,-4.0119,-4.0121,-4.0299,-4.0312,-4.0262,-4.0313,-4.0313,-4.002,-4.0109,-4.1006,-4.1006,-4.1293,-4.2168,-4.1985,-4.1999,-4.2541,-4.2137,-4.2262,-4.2819,-4.2982,-4.2555,-4.2217,-4.315,-4.4205,-4.4406,-4.5187,-4.579,-4.6011,-4.5909,-4.5996,-4.588,-4.5967,-4.604,-4.604,-4.604,-4.604,-4.5924,-4.5982,-4.5938,-4.5924,-4.588,-4.588,-4.588,-4.588,-4.588,-4.588,-4.606,-4.606,-2.8984,-2.8984,-2.8984,-2.8984,-2.8984,-2.8984,-2.8984,-2.8984,-2.8984,-2.8984,-2.8984,-2.8984,-2.8984,-2.8984,-2.8984,-2.8984,-2.8984,-2.8984,-2.9222,-2.9686,-3.0138,-3.0255,-3.0363,-3.0713,-3.0937,-3.1063,-3.1401,-3.2004,-3.2806,-3.3758,-3.4229,-3.459,-3.5287,-3.5736,-3.5965,-3.6227,-3.6369,-3.6347,-3.6107,-3.5965,-3.5965,-3.5965,-3.5965,-3.5965,-3.5965,-3.5838,-3.536,-3.6396,-3.696,-3.7063,-3.7877,-3.8674,-3.9115,-3.8767,-3.8491,-3.8491,-3.8274,-3.8022,-3.7733,-3.7649,-3.7733,-3.795,-3.7974,-3.8194,-3.8679,-3.8745,-3.8856,-3.9067,-3.9104,-3.9092,-3.9092,-3.9104,-3.9104,-3.9104,-3.9013,-3.9104,-3.9609,-3.9725,-3.9905,-4.0414,-4.0805,-4.1036,-4.1245,-4.15,-4.1961,-4.269,-4.287,-4.2466,-4.1453,-4.2554,-4.362,-4.4029,-4.533,-4.6457,-4.6809,-4.6911,-4.6925,-4.6896,-4.6925,-4.6925,-4.6911,-4.6911,-4.6896,-4.6867,-4.665,-4.6417,-4.6388,-4.6098,-4.5938,-4.588,-4.588,-4.588,-4.588,-4.588,-4.588,-2.8865,-2.8737,-2.8984,-2.8984,-2.8984,-2.8984,-2.903,-2.9113,-2.9122,-2.9168,-2.9232,-2.9076,-2.8984,-2.8984,-2.8984,-2.8984,-2.8984,-2.8984,-2.8984,-2.8984,-2.9213,-2.9222,-2.9112,-2.9296,-2.9708,-3.0182,-3.0495,-3.119,-3.2187,-3.3172,-3.3997,-3.4749,-3.5649,-3.6184,-3.6293,-3.6664,-3.672,-3.6459,-3.6113,-3.6047,-3.6282,-3.6282,-3.6293,-3.6282,-3.6293,-3.6175,-3.6036,-3.6728,-3.7309,-3.7644,-3.8341,-3.9084,-3.9543,-3.9558,-3.9609,-3.9609,-3.9609,-3.9429,-3.902,-3.8599,-3.8346,-3.8346,-3.8346,-3.8359,-3.8346,-3.8359,-3.8226,-3.8034,-3.808,-3.808,-3.808,-3.808,-3.7974,-3.7974,-3.8198,-3.8482,-3.8473,-3.8709,-3.8981,-3.9148,-4.0077,-4.0707,-4.0551,-4.119,-4.1957,-4.2305,-4.2565,-4.2157,-4.1544,-4.2263,-4.3085,-4.3889,-4.5163,-4.6206,-4.699,-4.6924,-4.7005,-4.7281,-4.7318,-4.7355,-4.7572,-4.7738,-4.7753,-4.7637,-4.7361,-4.7085,-4.6998,-4.6708,-4.6446,-4.6446,-4.6461,-4.6403,-4.6432,-4.6258,-4.604,-2.8627,-2.8259,-2.8773,-2.8984,-2.9012,-2.9012,-2.9204,-2.9498,-2.9525,-2.9736,-2.9965,-2.9314,-2.9012,-2.8984,-2.9012,-2.903,-2.9021,-2.8993,-2.9012,-2.9131,-2.9922,-2.9804,-2.9177,-3.0181,-3.0471,-2.9925,-3.0821,-3.1469,-3.1687,-3.2674,-3.3728,-3.5103,-3.6135,-3.6817,-3.7188,-3.7276,-3.6803,-3.6072,-3.5897,-3.6374,-3.7243,-3.7243,-3.7243,-3.7254,-3.7243,-3.6881,-3.6067,-3.7341,-3.7832,-3.7167,-3.8433,-3.9388,-3.9455,-3.9539,-3.9609,-3.9633,-3.9621,-3.9573,-3.9537,-3.9501,-3.9405,-3.9465,-3.9405,-3.9393,-3.9405,-3.9429,-3.902,-3.8298,-3.801,-3.8058,-3.7974,-3.8034,-3.8082,-3.813,-3.8094,-3.8178,-3.8743,-3.9043,-3.932,-3.9819,-4.0384,-4.0869,-4.0894,-4.1291,-4.1531,-4.1802,-4.1853,-4.1733,-4.1625,-4.223,-4.3074,-4.3625,-4.4345,-4.467,-4.4966,-4.4784,-4.552,-4.6168,-4.6389,-4.6807,-4.7496,-4.7847,-4.7811,-4.813,-4.7811,-4.7709,-4.7695,-4.7608,-4.7535,-4.7332,-4.7375,-4.7521,-4.7521,-4.7129,-4.6635,-2.8553,-2.9324,-2.9578,-2.9709,-2.97,-2.97,-2.9791,-2.9938,-2.9938,-3.0048,-3.0158,-2.9846,-2.97,-2.9709,-2.9709,-2.97,-2.97,-2.97,-2.97,-2.97,-3.0055,-3.0055,-2.9849,-3.0213,-3.0306,-2.9947,-3.0473,-3.0925,-3.1283,-3.2372,-3.357,-3.4605,-3.5117,-3.5701,-3.638,-3.5879,-3.6002,-3.6757,-3.5623,-3.55,-3.6369,-3.5879,-3.6247,-3.7253,-3.6868,-3.6624,-3.6868,-3.7736,-3.8096,-3.7834,-3.9067,-3.9905,-3.9905,-4.0302,-4.0535,-4.0523,-4.0246,-4.0066,-4.0078,-3.9789,-3.9609,-3.9609,-3.9609,-3.9609,-3.9609,-3.9609,-3.9393,-3.9044,-3.8936,-3.8948,-3.8924,-3.8948,-3.8936,-3.8936,-3.8936,-3.9032,-3.9248,-3.9382,-3.96,-3.9782,-4.0257,-4.0842,-4.115,-4.1791,-4.2283,-4.2308,-4.2296,-4.2246,-4.2283,-4.2721,-4.3028,-4.3278,-4.3463,-4.419,-4.5056,-4.5511,-4.5676,-4.6085,-4.6835,-4.7461,-4.7729,-4.8581,-4.8899,-4.887,-4.8566,-4.8362,-4.8333,-4.797,-4.7782,-4.784,-4.7796,-4.7782,-4.7782,-4.7579,-4.7274,-2.7613,-2.8913,-2.9564,-2.9947,-2.9947,-3.008,-3.0259,-3.036,-3.036,-3.0415,-3.0516,-3.0516,-3.0516,-3.0488,-3.0305,-3.0204,-3.0204,-3.0204,-3.0204,-3.0204,-3.0204,-3.0195,-3.0213,-3.0314,-3.036,-3.0378,-3.0488,-3.0681,-3.1083,-3.2223,-3.3253,-3.3882,-3.4248,-3.4746,-3.5376,-3.4746,-3.5005,-3.5879,-3.4632,-3.4383,-3.4881,-3.4133,-3.4497,-3.6258,-3.5879,-3.5992,-3.7,-3.7363,-3.7725,-3.8096,-3.9049,-3.9755,-3.9989,-4.0583,-4.1069,-4.116,-4.0824,-4.0607,-4.0607,-4.0246,-4.003,-4.0042,-4.0042,-4.0042,-4.0042,-4.0042,-4.0042,-4.003,-4.003,-3.997,-3.9621,-3.9609,-3.9609,-3.9609,-3.9609,-3.9645,-3.9789,-3.9826,-3.9886,-3.9994,-4.0696,-4.1176,-4.1793,-4.2463,-4.2898,-4.2898,-4.2936,-4.2986,-4.2986,-4.2936,-4.306,-4.2986,-4.2961,-4.3577,-4.5061,-4.5089,-4.5489,-4.6018,-4.646,-4.6964,-4.7703,-4.8823,-4.9542,-4.9054,-4.9006,-4.903,-4.8986,-4.858,-4.8275,-4.8304,-4.829,-4.829,-4.8464,-4.8217,-4.8072,-2.5183,-2.612,-2.816,-2.9226,-2.919,-2.9859,-3.0433,-3.0763,-3.0763,-3.0965,-3.124,-3.1277,-3.1304,-3.1231,-3.0571,-3.0222,-3.0231,-3.0268,-3.0277,-3.0268,-3.025,-3.0222,-3.0231,-3.058,-3.0763,-3.0791,-3.1075,-3.1258,-3.1451,-3.2365,-3.2873,-3.3009,-3.3757,-3.4383,-3.4373,-3.4258,-3.3998,-3.3505,-3.3126,-3.3,-3.3,-3.2128,-3.2629,-3.4258,-3.4497,-3.4881,-3.5869,-3.5992,-3.6502,-3.7374,-3.8096,-3.8693,-3.9297,-3.9989,-4.0583,-4.1057,-4.1148,-4.1136,-4.1124,-4.1052,-4.1028,-4.1064,-4.098,-4.1064,-4.0968,-4.0956,-4.0968,-4.1076,-4.0968,-4.0631,-3.9886,-3.9813,-3.9753,-3.9729,-3.9669,-3.9898,-4.0319,-4.0355,-4.0595,-4.1022,-4.1537,-4.2102,-4.2787,-4.2961,-4.2986,-4.2986,-4.2986,-4.2986,-4.2986,-4.2986,-4.2986,-4.2986,-4.2986,-4.3085,-4.3184,-4.3713,-4.4042,-4.4574,-4.5195,-4.5622,-4.6971,-4.8122,-4.8738,-4.9262,-4.9441,-4.9509,-4.9596,-4.9567,-4.9422,-4.9364,-4.9306,-4.932,-4.9117,-4.8914,-4.8769,-2.6091,-2.7972,-2.8888,-2.9292,-2.9284,-2.9935,-3.0409,-3.0525,-3.1039,-3.124,-3.135,-3.1377,-3.1377,-3.1368,-3.1084,-3.0956,-3.0956,-3.0956,-3.0956,-3.0956,-3.0947,-3.0956,-3.0974,-3.1112,-3.1167,-3.1185,-3.1313,-3.1377,-3.1377,-3.1754,-3.1882,-3.201,-3.2247,-3.2756,-3.3253,-3.2746,-3.2883,-3.3621,-3.2619,-3.2256,-3.2756,-3.1873,-3.1754,-3.2502,-3.3126,-3.3872,-3.4871,-3.55,-3.6125,-3.6369,-3.7616,-3.8585,-3.9297,-4.0235,-4.0942,-4.1184,-4.1184,-4.1184,-4.1184,-4.1184,-4.1184,-4.1184,-4.1184,-4.1184,-4.1184,-4.1184,-4.1184,-4.1184,-4.1184,-4.0956,-4.0763,-4.0619,-4.0619,-4.0619,-4.0619,-4.0643,-4.0836,-4.0896,-4.098,-4.1251,-4.1757,-4.2324,-4.2874,-4.2986,-4.2986,-4.2986,-4.2986,-4.2986,-4.2986,-4.2986,-4.2986,-4.2986,-4.2986,-4.2986,-4.2986,-4.2974,-4.3308,-4.3628,-4.4152,-4.4778,-4.582,-4.728,-4.8007,-4.8639,-4.905,-4.9571,-4.9542,-4.9654,-4.9683,-4.9683,-4.9683,-4.9683,-4.9683,-4.9349,-4.9277,-2.5801,-2.7567,-2.8642,-2.8922,-2.9045,-2.9709,-2.9961,-3.0091,-3.0741,-3.0991,-3.112,-3.1249,-3.1377,-3.1377,-3.1377,-3.1377,-3.1377,-3.1368,-3.1377,-3.1377,-3.1377,-3.1377,-3.1377,-3.1377,-3.1377,-3.1368,-3.1377,-3.1377,-3.1377,-3.1377,-3.1377,-3.1377,-3.1377,-3.1754,-3.2247,-3.1754,-3.2128,-3.3,-3.2128,-3.1763,-3.2256,-3.1754,-3.1377,-3.1506,-3.2128,-3.2883,-3.3872,-3.4881,-3.5746,-3.6237,-3.7484,-3.8704,-3.9544,-4.0595,-4.1184,-4.1184,-4.1184,-4.1184,-4.1184,-4.1184,-4.1184,-4.1184,-4.1184,-4.1184,-4.1184,-4.1184,-4.1184,-4.1184,-4.1184,-4.1184,-4.1184,-4.1172,-4.1184,-4.1184,-4.1184,-4.1184,-4.1184,-4.1172,-4.1275,-4.1516,-4.1871,-4.2324,-4.2874,-4.2986,-4.2986,-4.2986,-4.2986,-4.2986,-4.2986,-4.2986,-4.2986,-4.2986,-4.2986,-4.2986,-4.2986,-4.2986,-4.2986,-4.3308,-4.3517,-4.4042,-4.4765,-4.6242,-4.728,-4.7906,-4.8539,-4.9149,-4.9473,-4.9683,-4.9683,-4.9683,-4.9683,-4.9683,-4.9683,-4.9683,-4.9582,-2.3959,-2.4653,-2.7067,-2.8345,-2.8503,-2.9155,-2.9359,-2.9533,-3.004,-3.0476,-3.0642,-3.1072,-3.1386,-3.1442,-3.1478,-3.1414,-3.1433,-3.1405,-3.1377,-3.1377,-3.1377,-3.1377,-3.1377,-3.1377,-3.1377,-3.1377,-3.1377,-3.1377,-3.1377,-3.1377,-3.1377,-3.1377,-3.1377,-3.1506,-3.1506,-3.1506,-3.1377,-3.1625,-3.1497,-3.1368,-3.1377,-3.1377,-3.1377,-3.1377,-3.1497,-3.2128,-3.3009,-3.3882,-3.4995,-3.6481,-3.7605,-3.8812,-3.9989,-4.0826,-4.1184,-4.1184,-4.1184,-4.1184,-4.1184,-4.1184,-4.1184,-4.1184,-4.1184,-4.1184,-4.1184,-4.1184,-4.1184,-4.1184,-4.1184,-4.1184,-4.1184,-4.1184,-4.1184,-4.1184,-4.1184,-4.1184,-4.1184,-4.1184,-4.1414,-4.1871,-4.2098,-4.2312,-4.2762,-4.2986,-4.2986,-4.2986,-4.2986,-4.2986,-4.2986,-4.2986,-4.2986,-4.2986,-4.2986,-4.2986,-4.2986,-4.2986,-4.2986,-4.3098,-4.3085,-4.3406,-4.4152,-4.5302,-4.6137,-4.6764,-4.792,-4.8539,-4.9571,-4.9683,-4.9683,-4.9683,-4.9683,-4.9683,-4.9683,-4.9683,-4.9683,-2.3977,-2.5525,-2.6558,-2.7489,-2.8309,-2.8989,-2.926,-2.9387,-3.0069,-3.0606,-3.1159,-3.1425,-3.1691,-3.2016,-3.1946,-3.1808,-3.1781,-3.1524,-3.1377,-3.1387,-3.1377,-3.1377,-3.1377,-3.1377,-3.1377,-3.1377,-3.1377,-3.1377,-3.1377,-3.1377,-3.1377,-3.1377,-3.1377,-3.1377,-3.1377,-3.1377,-3.1377,-3.1377,-3.1377,-3.1377,-3.1377,-3.1377,-3.1377,-3.1497,-3.2001,-3.2629,-3.2873,-3.3253,-3.3766,-3.4518,-3.6237,-3.8171,-3.9861,-4.0826,-4.1184,-4.1184,-4.1184,-4.1184,-4.1184,-4.1184,-4.1184,-4.1184,-4.1184,-4.1184,-4.1184,-4.1184,-4.1184,-4.1184,-4.1184,-4.1184,-4.1184,-4.1184,-4.1184,-4.1184,-4.1184,-4.1184,-4.1184,-4.1402,-4.1618,-4.1984,-4.2324,-4.2538,-4.2862,-4.2986,-4.2986,-4.2986,-4.2986,-4.2986,-4.2986,-4.2986,-4.2986,-4.2986,-4.2986,-4.2986,-4.2986,-4.2986,-4.2986,-4.2986,-4.2986,-4.3085,-4.3615,-4.4466,-4.5208,-4.6242,-4.7396,-4.8338,-4.9277,-4.9683,-4.9683,-4.9683,-4.9683,-4.9683,-4.9683,-4.9683,-4.9683,-2.3728,-2.5007,-2.5613,-2.6541,-2.7524,-2.8079,-2.8494,-2.8915,-2.9593,-3.042,-3.0972,-3.1387,-3.1926,-3.2408,-3.234,-3.223,-3.2194,-3.1937,-3.1744,-3.1588,-3.1423,-3.1377,-3.1377,-3.1377,-3.1377,-3.1377,-3.1377,-3.1377,-3.1377,-3.1377,-3.1377,-3.1377,-3.1377,-3.1377,-3.1377,-3.1377,-3.1377,-3.1377,-3.1377,-3.1377,-3.1377,-3.1377,-3.1377,-3.1497,-3.2384,-3.3009,-3.3243,-3.3621,-3.3998,-3.4642,-3.646,-3.8648,-4.0351,-4.0942,-4.1184,-4.1184,-4.1184,-4.1184,-4.1184,-4.1184,-4.1184,-4.1184,-4.1184,-4.1184,-4.1184,-4.1184,-4.1184,-4.1184,-4.1184,-4.1184,-4.1184,-4.1184,-4.1184,-4.1184,-4.1184,-4.1184,-4.1299,-4.139,-4.1732,-4.2098,-4.2324,-4.2638,-4.2862,-4.2986,-4.2986,-4.2986,-4.2986,-4.2986,-4.2986,-4.2986,-4.2986,-4.2986,-4.2986,-4.2986,-4.2986,-4.2986,-4.2986,-4.2986,-4.2986,-4.2986,-4.3308,-4.4261,-4.5101,-4.6764,-4.8021,-4.8738,-4.9683,-4.9683,-4.9683,-4.9683,-4.9683,-4.9683,-4.9683,-4.9683,-4.9683,-2.3035,-2.332,-2.4188,-2.5519,-2.6646,-2.6801,-2.7516,-2.8321,-2.9021,-2.9735,-3.0412,-3.1155,-3.1926,-3.2429,-3.2555,-3.2634,-3.2615,-3.2524,-3.2313,-3.201,-3.1717,-3.1524,-3.1396,-3.1377,-3.1377,-3.1377,-3.1377,-3.1377,-3.1377,-3.1377,-3.1377,-3.1377,-3.1377,-3.1377,-3.1377,-3.1377,-3.1377,-3.1377,-3.1377,-3.1377,-3.1377,-3.1377,-3.1377,-3.1506,-3.2374,-3.3243,-3.3988,-3.4974,-3.5725,-3.6226,-3.8029,-3.9603,-4.0826,-4.1184,-4.1184,-4.1184,-4.1184,-4.1184,-4.1184,-4.1184,-4.1184,-4.1184,-4.1184,-4.1184,-4.1184,-4.1184,-4.1184,-4.1184,-4.1184,-4.1184,-4.1184,-4.1184,-4.1184,-4.1184,-4.1184,-4.1184,-4.1184,-4.1504,-4.1732,-4.2086,-4.2312,-4.2638,-4.2974,-4.2986,-4.2986,-4.2986,-4.2986,-4.2986,-4.2986,-4.2986,-4.2986,-4.2986,-4.2986,-4.2986,-4.2986,-4.2986,-4.2986,-4.2986,-4.2986,-4.2986,-4.3197,-4.4042,-4.5409,-4.7074,-4.8223,-4.905,-4.9669,-4.9683,-4.9683,-4.9683,-4.9683,-4.9683,-4.9683,-4.9683,-4.9683,-2.2759,-2.349,-2.3991,-2.5388,-2.713,-2.7274,-2.7847,-2.9004,-2.9146,-2.9664,-3.0385,-3.126,-3.1922,-3.2614,-3.2893,-3.3055,-3.3,-3.2762,-3.257,-3.245,-3.2349,-3.19,-3.1478,-3.1377,-3.1377,-3.1377,-3.1377,-3.1377,-3.1377,-3.1377,-3.1377,-3.1377,-3.1377,-3.1377,-3.1377,-3.1377,-3.1377,-3.1377,-3.1377,-3.1377,-3.1377,-3.1377,-3.1377,-3.1506,-3.2374,-3.3621,-3.4974,-3.6581,-3.767,-3.8018,-3.8732,-3.9826,-4.1057,-4.1184,-4.1184,-4.1184,-4.1184,-4.1184,-4.1184,-4.1184,-4.1184,-4.1184,-4.1184,-4.1184,-4.1184,-4.1184,-4.1184,-4.1184,-4.1184,-4.1184,-4.1184,-4.1184,-4.1184,-4.1184,-4.1184,-4.1184,-4.1299,-4.1643,-4.1972,-4.1846,-4.24,-4.275,-4.275,-4.2874,-4.2986,-4.2986,-4.2986,-4.2986,-4.2986,-4.2986,-4.2986,-4.2986,-4.2986,-4.2986,-4.2986,-4.2986,-4.2986,-4.2986,-4.2986,-4.3085,-4.3406,-4.4042,-4.5714,-4.7396,-4.792,-4.8639,-4.936,-4.9683,-4.9683,-4.9683,-4.9683,-4.9683,-4.9683,-4.9683,-4.9683,-2.2467,-2.3056,-2.322,-2.4603,-2.6655,-2.6801,-2.768,-2.9146,-2.9298,-2.9712,-3.0409,-3.1268,-3.1841,-3.2237,-3.3017,-3.3184,-3.3001,-3.3084,-3.3028,-3.2826,-3.2661,-3.223,-3.1772,-3.1643,-3.1552,-3.1377,-3.1387,-3.1377,-3.1377,-3.1377,-3.1377,-3.1377,-3.1377,-3.1377,-3.1377,-3.1377,-3.1377,-3.1377,-3.1377,-3.1377,-3.1377,-3.1377,-3.1754,-3.2128,-3.3,-3.4487,-3.6835,-3.8659,-3.9368,-3.898,-3.9098,-3.9826,-4.1057,-4.1184,-4.1184,-4.1184,-4.1184,-4.1184,-4.1184,-4.1184,-4.1184,-4.1184,-4.1184,-4.1184,-4.1184,-4.1184,-4.1184,-4.1184,-4.1184,-4.1184,-4.1184,-4.1184,-4.1184,-4.1184,-4.1184,-4.1184,-4.1184,-4.1757,-4.1859,-4.1948,-4.24,-4.2862,-4.2525,-4.2862,-4.2974,-4.2986,-4.2986,-4.2986,-4.2986,-4.2986,-4.3011,-4.3049,-4.3087,-4.3112,-4.3124,-4.3124,-4.3187,-4.3175,-4.3212,-4.3274,-4.3789,-4.4422,-4.5608,-4.6971,-4.7601,-4.8223,-4.8951,-4.9473,-4.9683,-4.9683,-4.9683,-4.9683,-4.9683,-4.9683,-4.9683,-2.2265,-2.2265,-2.2265,-2.3574,-2.5472,-2.5618,-2.6939,-2.8859,-2.9002,-2.9425,-3.0275,-3.1127,-3.1559,-3.17,-3.2919,-3.3363,-3.2927,-3.342,-3.3541,-3.3257,-3.2964,-3.2588,-3.2249,-3.2093,-3.1909,-3.1662,-3.1515,-3.1515,-3.1543,-3.1488,-3.1469,-3.1506,-3.1488,-3.1506,-3.1634,-3.1588,-3.1515,-3.1598,-3.1643,-3.1782,-3.2032,-3.2042,-3.2558,-3.3436,-3.479,-3.6326,-3.859,-4.0235,-4.0538,-3.9098,-3.9216,-4.0071,-4.1069,-4.1184,-4.1184,-4.1184,-4.1184,-4.1184,-4.1184,-4.1184,-4.1184,-4.1184,-4.1184,-4.1184,-4.1184,-4.1184,-4.1184,-4.1184,-4.1184,-4.1184,-4.1184,-4.1184,-4.1184,-4.1184,-4.1184,-4.1184,-4.1299,-4.1757,-4.1972,-4.1708,-4.24,-4.275,-4.275,-4.275,-4.2986,-4.2986,-4.2986,-4.2986,-4.3074,-4.3187,-4.32,-4.3212,-4.325,-4.3275,-4.3288,-4.3288,-4.3376,-4.3438,-4.3526,-4.3702,-4.452,-4.5056,-4.5662,-4.6646,-4.8108,-4.8639,-4.8639,-4.9164,-4.9585,-4.9683,-4.9683,-4.9683,-4.9683,-4.9683,-4.9683,-2.2265,-2.2265,-2.2265,-2.3141,-2.4301,-2.4449,-2.5772,-2.7833,-2.7977,-2.8555,-2.9568,-3.0266,-3.0993,-3.1559,-3.2535,-3.3094,-3.3381,-3.3669,-3.3743,-3.3707,-3.3624,-3.3321,-3.2955,-3.2661,-3.2423,-3.2285,-3.2313,-3.2166,-3.1955,-3.1873,-3.1873,-3.1873,-3.1882,-3.2019,-3.2249,-3.2221,-3.2322,-3.2322,-3.2304,-3.2786,-3.3293,-3.3554,-3.4066,-3.5101,-3.6992,-3.8193,-3.8918,-4.0692,-4.136,-4.0934,-4.0735,-4.0934,-4.1081,-4.1184,-4.1184,-4.1184,-4.1184,-4.1184,-4.1184,-4.1184,-4.1184,-4.1184,-4.1184,-4.1184,-4.1184,-4.1184,-4.1184,-4.1184,-4.1184,-4.1244,-4.1317,-4.122,-4.1293,-4.1329,-4.1305,-4.1268,-4.1323,-4.1769,-4.1859,-4.1834,-4.24,-4.2862,-4.2525,-4.2925,-4.3037,-4.2999,-4.3037,-4.3011,-4.32,-4.3451,-4.3539,-4.3614,-4.3765,-4.3865,-4.3966,-4.4068,-4.4282,-4.4507,-4.4558,-4.4982,-4.5691,-4.6049,-4.6791,-4.787,-4.9149,-4.9149,-4.8639,-4.9164,-4.9683,-4.9683,-4.9683,-4.9683,-4.9683,-4.9683,-4.9683,-2.2265,-2.2265,-2.2265,-2.2992,-2.3864,-2.4012,-2.5038,-2.6648,-2.7245,-2.7833,-2.8699,-2.9838,-3.0693,-3.1118,-3.2105,-3.2954,-3.3242,-3.3669,-3.3817,-3.3807,-3.3798,-3.3688,-3.3551,-3.3248,-3.3019,-3.2698,-3.2588,-3.245,-3.2331,-3.2285,-3.2285,-3.2285,-3.2276,-3.2359,-3.257,-3.2625,-3.257,-3.2694,-3.3121,-3.3643,-3.4162,-3.4687,-3.5461,-3.6753,-3.8647,-3.9882,-3.9901,-4.1351,-4.2076,-4.2002,-4.1906,-4.1665,-4.1256,-4.1196,-4.1196,-4.1184,-4.1184,-4.1184,-4.1184,-4.1184,-4.1184,-4.1196,-4.1184,-4.1184,-4.1184,-4.1184,-4.1341,-4.1485,-4.1581,-4.1629,-4.1882,-4.193,-4.1918,-4.193,-4.1906,-4.1906,-4.1962,-4.1959,-4.1846,-4.1822,-4.2287,-4.2699,-4.2899,-4.3225,-4.3576,-4.3752,-4.3865,-4.3853,-4.3903,-4.4116,-4.4141,-4.4229,-4.4405,-4.4505,-4.4608,-4.4916,-4.5397,-4.581,-4.6219,-4.6941,-4.7878,-4.7988,-4.8,-4.8703,-4.9166,-4.8852,-4.8539,-4.9164,-4.9698,-4.9683,-4.9683,-4.9683,-4.9683,-4.9683,-4.9683,-2.2265,-2.2265,-2.2265,-2.285,-2.3722,-2.3716,-2.4308,-2.5618,-2.6801,-2.7245,-2.7825,-2.9401,-3.0266,-3.0685,-3.1824,-3.2526,-3.3094,-3.3521,-3.3817,-3.3817,-3.3817,-3.3789,-3.3743,-3.3651,-3.3431,-3.2817,-3.2872,-3.2817,-3.2725,-3.2698,-3.2698,-3.2689,-3.2689,-3.2799,-3.2799,-3.2799,-3.3016,-3.3438,-3.3974,-3.4745,-3.5235,-3.6022,-3.6825,-3.838,-3.9659,-4.0829,-4.1084,-4.2013,-4.27,-4.276,-4.2747,-4.2279,-4.1725,-4.1425,-4.1425,-4.1473,-4.1557,-4.1521,-4.1473,-4.1449,-4.1497,-4.1341,-4.1437,-4.1461,-4.1497,-4.1581,-4.1761,-4.1954,-4.2122,-4.2242,-4.2699,-4.2615,-4.2639,-4.2675,-4.2711,-4.2747,-4.271,-4.2139,-4.1941,-4.2201,-4.2717,-4.3246,-4.3599,-4.3839,-4.4127,-4.4493,-4.4593,-4.4656,-4.4669,-4.4744,-4.4744,-4.4895,-4.5095,-4.5271,-4.5401,-4.5677,-4.6155,-4.7052,-4.762,-4.8491,-4.9408,-4.9412,-4.9155,-4.8574,-4.8573,-4.8649,-4.8895,-4.9349,-4.9756,-4.9712,-4.9683,-4.9683,-4.9683,-4.9683,-4.9683,-2.2265,-2.2265,-2.2265,-2.2408,-2.2551,-2.2551,-2.3283,-2.4449,-2.5618,-2.6655,-2.768,-2.8851,-2.9847,-3.0551,-3.1268,-3.2403,-3.3381,-3.3817,-3.3817,-3.3817,-3.3817,-3.3817,-3.3817,-3.3807,-3.3697,-3.367,-3.3541,-3.3367,-3.3175,-3.312,-3.3111,-3.3129,-3.312,-3.3239,-3.3587,-3.3587,-3.4153,-3.4766,-3.5201,-3.6142,-3.7228,-3.7899,-3.8816,-4.0111,-4.0994,-4.1491,-4.2121,-4.2409,-4.2599,-4.2832,-4.276,-4.2675,-4.2555,-4.2495,-4.2471,-4.2363,-4.2339,-4.2158,-4.1942,-4.2206,-4.2182,-4.2074,-4.2146,-4.2387,-4.2423,-4.2435,-4.2423,-4.2567,-4.2663,-4.2723,-4.2735,-4.2916,-4.282,-4.2796,-4.2868,-4.2868,-4.2808,-4.277,-4.285,-4.3203,-4.3684,-4.3995,-4.4211,-4.4427,-4.4731,-4.492,-4.5008,-4.502,-4.5008,-4.5276,-4.5557,-4.5653,-4.5799,-4.5974,-4.6112,-4.6489,-4.6964,-4.7981,-4.8758,-4.946,-5.0265,-5.0477,-5.0283,-5.0063,-4.9921,-5.004,-5.0138,-4.9977,-4.9803,-4.993,-4.9828,-4.9698,-4.9683,-4.9683,-4.9683,-2.2265,-2.2265,-2.2265,-2.2265,-2.2265,-2.2265,-2.2986,-2.416,-2.5325,-2.6502,-2.7535,-2.8707,-2.9997,-3.0843,-3.1418,-3.2403,-3.353,-3.3817,-3.3817,-3.3817,-3.3817,-3.3817,-3.3817,-3.3817,-3.3817,-3.3807,-3.3789,-3.3734,-3.3541,-3.3532,-3.3505,-3.3532,-3.3532,-3.39,-3.4424,-3.4708,-3.5285,-3.6093,-3.6769,-3.7585,-3.8681,-3.921,-4.0257,-4.1035,-4.1667,-4.2167,-4.2782,-4.3334,-4.3485,-4.3527,-4.3589,-4.3577,-4.3553,-4.3505,-4.3325,-4.2916,-4.2796,-4.2687,-4.2435,-4.2651,-4.2591,-4.2459,-4.2663,-4.2735,-4.2747,-4.2735,-4.2928,-4.3144,-4.3505,-4.3589,-4.3625,-4.3541,-4.3589,-4.3589,-4.3553,-4.3541,-4.3565,-4.3553,-4.3869,-4.424,-4.4097,-4.4234,-4.4928,-4.5146,-4.5246,-4.5334,-4.5422,-4.5527,-4.5595,-4.5994,-4.6458,-4.6795,-4.7105,-4.7509,-4.7652,-4.7873,-4.8223,-4.9106,-4.9874,-5.0699,-5.1285,-5.1761,-5.2157,-5.2243,-5.199,-5.1338,-5.0975,-5.0628,-5.0438,-5.0119,-4.9944,-4.9814,-4.9727,-4.9683,-4.9683,-2.2265,-2.2265,-2.2265,-2.2265,-2.2265,-2.2551,-2.3129,-2.4153,-2.5618,-2.6648,-2.7535,-2.8707,-3.0006,-3.1135,-3.1841,-3.2544,-3.3817,-3.3817,-3.3817,-3.3817,-3.3817,-3.3817,-3.3817,-3.3817,-3.3817,-3.3817,-3.3817,-3.3817,-3.3771,-3.3762,-3.3798,-3.39,-3.3937,-3.448,-3.5148,-3.5558,-3.6364,-3.7317,-3.8129,-3.8681,-3.922,-3.9877,-4.0658,-4.1421,-4.1922,-4.242,-4.3392,-4.363,-4.4027,-4.4115,-4.4263,-4.4299,-4.4335,-4.4347,-4.395,-4.3253,-4.3084,-4.3036,-4.2952,-4.3108,-4.3156,-4.294,-4.3024,-4.3084,-4.3132,-4.3277,-4.3325,-4.3685,-4.3986,-4.4251,-4.4178,-4.4299,-4.4287,-4.4275,-4.4263,-4.4311,-4.4227,-4.4178,-4.4487,-4.4476,-4.4265,-4.4705,-4.5429,-4.5766,-4.5855,-4.6563,-4.6652,-4.7263,-4.7225,-4.7198,-4.7704,-4.8079,-4.8492,-4.918,-4.9462,-4.9675,-5.0014,-5.0573,-5.1141,-5.1835,-5.2523,-5.3174,-5.3355,-5.3225,-5.2876,-5.2165,-5.1788,-5.1309,-5.0888,-5.0511,-5.0148,-4.9901,-4.977,-4.9698,-4.9683,-2.2265,-2.2265,-2.2265,-2.2265,-2.2558,-2.3277,-2.3864,-2.4301,-2.6357,-2.739,-2.7688,-2.8707,-2.9712,-3.0835,-3.2105,-3.2963,-3.3669,-3.3817,-3.3817,-3.3817,-3.3817,-3.3817,-3.3817,-3.3817,-3.3946,-3.3946,-3.3946,-3.3817,-3.4084,-3.4084,-3.3946,-3.4075,-3.4883,-3.5422,-3.5821,-3.6499,-3.7317,-3.8273,-3.8681,-3.921,-3.9888,-4.0268,-4.0906,-4.1667,-4.1922,-4.2316,-4.3713,-4.3838,-4.3838,-4.4223,-4.4347,-4.4347,-4.4347,-4.4347,-4.4335,-4.419,-4.4118,-4.3962,-4.3601,-4.3746,-4.3806,-4.3589,-4.377,-4.4082,-4.3998,-4.3974,-4.4034,-4.4214,-4.4335,-4.4347,-4.4347,-4.4347,-4.4347,-4.4347,-4.4347,-4.4347,-4.4347,-4.4347,-4.4594,-4.4939,-4.4827,-4.5287,-4.598,-4.627,-4.656,-4.7272,-4.799,-4.8442,-4.8904,-4.8775,-4.9221,-4.9662,-5.0113,-5.0685,-5.092,-5.1251,-5.147,-5.192,-5.2272,-5.2716,-5.3064,-5.3515,-5.35,-5.3341,-5.308,-5.2905,-5.2499,-5.1962,-5.1367,-5.0946,-5.0656,-5.0206,-4.977,-4.9727,-4.9698,-2.2265,-2.2265,-2.2265,-2.2694,-2.3277,-2.3864,-2.4743,-2.6071,-2.7092,-2.7833,-2.8563,-2.9002,-2.9997,-3.1118,-3.2684,-3.353,-3.3817,-3.3817,-3.3817,-3.3817,-3.3817,-3.3817,-3.3817,-3.3817,-3.3946,-3.448,-3.4746,-3.5285,-3.5158,-3.5021,-3.4883,-3.5549,-3.6093,-3.6779,-3.7048,-3.7729,-3.8538,-3.9341,-3.9604,-3.9877,-4.0149,-4.0409,-4.0906,-4.2154,-4.1911,-4.2811,-4.3713,-4.4099,-4.3974,-4.4347,-4.4347,-4.4347,-4.4347,-4.4347,-4.4347,-4.4347,-4.4335,-4.4214,-4.4058,-4.4239,-4.4154,-4.4106,-4.4202,-4.4287,-4.4347,-4.4347,-4.4347,-4.4347,-4.4347,-4.4347,-4.4347,-4.4347,-4.4347,-4.4347,-4.4347,-4.4347,-4.4347,-4.4347,-4.447,-4.4963,-4.5331,-4.5817,-4.6408,-4.7074,-4.7403,-4.786,-4.8545,-4.9005,-4.9675,-5.0238,-5.0796,-5.1579,-5.192,-5.215,-5.238,-5.2502,-5.2487,-5.2822,-5.2837,-5.317,-5.329,-5.3515,-5.3515,-5.3515,-5.3355,-5.3181,-5.3036,-5.263,-5.2049,-5.1599,-5.1178,-5.0656,-5.0133,-4.9727,-4.9712,-2.2408,-2.2701,-2.2701,-2.3283,-2.4012,-2.4596,-2.5772,-2.739,-2.7833,-2.8418,-2.929,-2.972,-3.0567,-3.17,-3.2972,-3.3817,-3.3817,-3.3817,-3.3817,-3.3817,-3.3817,-3.3817,-3.3817,-3.3817,-3.4214,-3.5011,-3.4756,-3.5422,-3.6228,-3.6364,-3.6228,-3.7018,-3.7173,-3.7729,-3.8416,-3.8946,-3.9483,-4.0018,-4.0149,-4.0279,-4.0279,-4.0279,-4.1024,-4.1911,-4.242,-4.2937,-4.4099,-4.4223,-4.4223,-4.4347,-4.4347,-4.4347,-4.4347,-4.4347,-4.4347,-4.4347,-4.4347,-4.4335,-4.4287,-4.4335,-4.4347,-4.4347,-4.4347,-4.4347,-4.4347,-4.4347,-4.4347,-4.4347,-4.4347,-4.4347,-4.4347,-4.4347,-4.4347,-4.4347,-4.4347,-4.4347,-4.4347,-4.447,-4.4717,-4.5208,-4.5574,-4.5817,-4.6636,-4.7873,-4.8442,-4.8545,-4.9106,-4.9675,-5.035,-5.1141,-5.1688,-5.2366,-5.2716,-5.2943,-5.3064,-5.329,-5.3395,-5.3515,-5.3515,-5.3515,-5.3515,-5.3515,-5.3515,-5.3515,-5.3515,-5.3442,-5.3268,-5.3007,-5.2731,-5.218,-5.1614,-5.1062,-5.0554,-5.0061,-4.9712,-2.2992,-2.3864,-2.3864,-2.4012,-2.4308,-2.6357,-2.7245,-2.7688,-2.8707,-2.9146,-2.9441,-3.0718,-3.1285,-3.1991,-3.2972,-3.3817,-3.3817,-3.3817,-3.3817,-3.3817,-3.3817,-3.3817,-3.3817,-3.3817,-3.3937,-3.4342,-3.4618,-3.5695,-3.6644,-3.7451,-3.7048,-3.7059,-3.8129,-3.8549,-3.8946,-3.9615,-4.0007,-4.0279,-4.0279,-4.0279,-4.0279,-4.0409,-4.0906,-4.2038,-4.242,-4.2937,-4.4223,-4.4347,-4.4347,-4.4347,-4.4347,-4.4347,-4.4347,-4.4347,-4.4347,-4.4347,-4.4347,-4.4347,-4.4347,-4.4347,-4.4347,-4.4347,-4.4347,-4.4347,-4.4347,-4.4347,-4.4347,-4.4347,-4.4347,-4.4347,-4.4347,-4.4347,-4.4347,-4.4347,-4.4347,-4.447,-4.4594,-4.4717,-4.4963,-4.5587,-4.583,-4.5939,-4.6288,-4.7429,-4.8789,-4.9005,-5.0014,-5.0573,-5.1141,-5.1811,-5.2136,-5.2594,-5.3049,-5.329,-5.3395,-5.3515,-5.3515,-5.3515,-5.3515,-5.3515,-5.3515,-5.3515,-5.3515,-5.3515,-5.3515,-5.3515,-5.35,-5.3283,-5.2992,-5.2557,-5.2049,-5.1468,-5.0743,-5.0104,-4.9814,-2.2992,-2.4012,-2.4737,-2.5472,-2.621,-2.71,-2.7977,-2.857,-2.9146,-2.9298,-2.9441,-3.0852,-3.1559,-3.1982,-3.3112,-3.3817,-3.3817,-3.3817,-3.3817,-3.3817,-3.3817,-3.3817,-3.3817,-3.4084,-3.4352,-3.5422,-3.5821,-3.6894,-3.8925,-3.8671,-3.8935,-3.921,-3.9341,-3.9615,-3.9877,-4.0007,-4.0279,-4.0279,-4.0279,-4.0279,-4.0279,-4.0409,-4.0906,-4.2166,-4.2293,-4.3063,-4.4099,-4.4223,-4.4347,-4.4347,-4.4347,-4.4347,-4.4347,-4.4347,-4.4347,-4.4347,-4.4347,-4.4347,-4.4347,-4.4347,-4.4347,-4.4347,-4.4347,-4.4347,-4.4347,-4.4347,-4.4347,-4.4347,-4.4347,-4.4347,-4.4347,-4.4347,-4.4347,-4.4347,-4.4347,-4.447,-4.4717,-4.484,-4.5428,-4.6047,-4.6047,-4.5939,-4.6408,-4.6981,-4.8339,-4.9576,-5.0587,-5.1484,-5.1934,-5.238,-5.2716,-5.2822,-5.3275,-5.3395,-5.35,-5.3515,-5.3515,-5.3515,-5.3515,-5.3515,-5.3515,-5.3515,-5.3515,-5.3515,-5.3515,-5.3515,-5.3515,-5.3515,-5.3297,-5.2978,-5.2455,-5.186,-5.1077,-5.0177,-4.9886,-2.3141,-2.4596,-2.5465,-2.6502,-2.7535,-2.7833,-2.8563,-2.9154,-2.9298,-2.9298,-2.9441,-3.0852,-3.1559,-3.1982,-3.3112,-3.3817,-3.3817,-3.3817,-3.3817,-3.3817,-3.3817,-3.3946,-3.4214,-3.448,-3.5295,-3.6634,-3.7173,-3.7975,-3.9341,-3.9746,-3.9746,-4.0007,-4.0279,-4.0279,-4.0279,-4.0279,-4.0279,-4.0279,-4.0279,-4.0539,-4.0539,-4.0658,-4.1293,-4.242,-4.2673,-4.3189,-4.3962,-4.4347,-4.4347,-4.4347,-4.4347,-4.4347,-4.4347,-4.4347,-4.4347,-4.4347,-4.4347,-4.4347,-4.4347,-4.4347,-4.4347,-4.4347,-4.4347,-4.4347,-4.4347,-4.4347,-4.4347,-4.4347,-4.4347,-4.4347,-4.4347,-4.4347,-4.4347,-4.4347,-4.4347,-4.447,-4.484,-4.5074,-4.5901,-4.6623,-4.6503,-4.6849,-4.7873,-4.8442,-4.8558,-5.0028,-5.1375,-5.1934,-5.2028,-5.2594,-5.317,-5.3275,-5.3395,-5.35,-5.3515,-5.3515,-5.3515,-5.3515,-5.3515,-5.3515,-5.3515,-5.3515,-5.3515,-5.3515,-5.3515,-5.3515,-5.3515,-5.3515,-5.3515,-5.3457,-5.2731,-5.186,-5.1048,-5.0191,-4.9872,-2.3722,-2.5618,-2.5765,-2.6502,-2.768,-2.8707,-2.9298,-2.9433,-2.9433,-2.9433,-2.972,-3.1135,-3.17,-3.1982,-3.3251,-3.3817,-3.3817,-3.3817,-3.3817,-3.3817,-3.4084,-3.448,-3.5021,-3.5422,-3.6103,-3.6779,-3.7317,-3.7996,-3.9078,-3.9341,-3.9604,-4.0138,-4.0279,-4.0279,-4.0279,-4.0279,-4.0279,-4.0279,-4.0279,-4.0669,-4.1046,-4.1175,-4.1806,-4.2811,-4.3063,-4.3576,-4.4087,-4.4347,-4.4347,-4.4347,-4.4347,-4.4347,-4.4347,-4.4347,-4.4347,-4.4347,-4.4347,-4.4347,-4.4347,-4.4347,-4.4347,-4.4347,-4.4347,-4.4347,-4.4347,-4.4347,-4.4347,-4.4347,-4.4347,-4.4347,-4.4347,-4.4347,-4.4347,-4.4347,-4.4347,-4.447,-4.484,-4.5196,-4.5914,-4.6383,-4.7416,-4.8442,-4.9562,-5.0238,-4.9675,-5.0462,-5.2042,-5.2487,-5.2487,-5.2716,-5.3395,-5.3515,-5.3515,-5.3515,-5.3515,-5.3515,-5.3515,-5.3515,-5.3515,-5.3515,-5.3515,-5.3515,-5.3515,-5.3515,-5.3515,-5.3515,-5.3515,-5.3515,-5.3515,-5.3413,-5.2528,-5.1672,-5.0873,-5.0293,-5.0017,-2.4743,-2.6947,-2.6947,-2.768,-2.8715,-2.9146,-2.9577,-3.0132,-3.0567,-3.086,-3.0993,-3.1973,-3.2254,-3.2675,-3.3251,-3.3817,-3.3817,-3.3817,-3.3817,-3.3955,-3.4342,-3.5011,-3.5558,-3.6103,-3.6914,-3.7863,-3.814,-3.8671,-3.9877,-3.9604,-3.9866,-4.0268,-4.0279,-4.0279,-4.0279,-4.0279,-4.0279,-4.0279,-4.0409,-4.0658,-4.1175,-4.1433,-4.1945,-4.3326,-4.3326,-4.3701,-4.4223,-4.4347,-4.4347,-4.4347,-4.4347,-4.4347,-4.4347,-4.4347,-4.4347,-4.4347,-4.4347,-4.4347,-4.4347,-4.4347,-4.4347,-4.4347,-4.4347,-4.4347,-4.4347,-4.4347,-4.4347,-4.4347,-4.4347,-4.4347,-4.4347,-4.4347,-4.4347,-4.4347,-4.4347,-4.447,-4.484,-4.5074,-4.5562,-4.5926,-4.6742,-4.7756,-4.889,-5.0462,-5.0462,-5.0906,-5.238,-5.3049,-5.3049,-5.3049,-5.3515,-5.3515,-5.3515,-5.3515,-5.3515,-5.3515,-5.3515,-5.3515,-5.3515,-5.3515,-5.3515,-5.3515,-5.3515,-5.3515,-5.3515,-5.3515,-5.3515,-5.3515,-5.3515,-5.321,-5.2601,-5.1976,-5.1309,-5.0743,-5.0278,-2.5772,-2.739,-2.7535,-2.8411,-2.9568,-2.9441,-2.9712,-3.0409,-3.1268,-3.1559,-3.17,-3.2386,-3.2666,-3.2954,-3.3391,-3.3817,-3.3817,-3.3817,-3.3817,-3.3946,-3.4471,-3.4874,-3.5558,-3.6509,-3.7451,-3.8538,-3.921,-3.9746,-4.0149,-4.0279,-4.0279,-4.0279,-4.0279,-4.0279,-4.0279,-4.0279,-4.0398,-4.0528,-4.0788,-4.1164,-4.1806,-4.2189,-4.257,-4.3326,-4.3701,-4.3826,-4.4223,-4.4347,-4.4347,-4.4347,-4.4347,-4.4347,-4.4347,-4.4347,-4.4347,-4.4347,-4.4347,-4.4347,-4.4347,-4.4347,-4.4347,-4.4347,-4.4347,-4.4347,-4.4347,-4.4347,-4.4347,-4.4347,-4.4347,-4.4347,-4.4347,-4.4347,-4.4347,-4.4347,-4.447,-4.4717,-4.5086,-4.5453,-4.5914,-4.6168,-4.6623,-4.7416,-4.8313,-4.9775,-5.0906,-5.1811,-5.2716,-5.3049,-5.3395,-5.3515,-5.3515,-5.3515,-5.3515,-5.3515,-5.3515,-5.3515,-5.3515,-5.3515,-5.3515,-5.3515,-5.3515,-5.3515,-5.3515,-5.3515,-5.3515,-5.3515,-5.3515,-5.3515,-5.3515,-5.3442,-5.3181,-5.2514,-5.1788,-5.1264,-5.0668,-2.6502,-2.7543,-2.7543,-2.8683,-3.0124,-2.9855,-2.9989,-3.0551,-3.1418,-3.17,-3.1841,-3.2535,-3.2815,-3.2954,-3.3521,-3.3817,-3.3817,-3.3817,-3.3817,-3.3955,-3.4214,-3.4746,-3.5695,-3.6779,-3.7996,-3.8946,-3.9615,-4.0007,-4.0279,-4.0279,-4.0279,-4.0279,-4.0279,-4.0279,-4.0279,-4.0539,-4.0658,-4.1046,-4.1175,-4.1806,-4.2558,-4.3063,-4.3451,-4.3962,-4.4099,-4.4223,-4.4347,-4.4347,-4.4347,-4.4347,-4.4347,-4.4347,-4.4347,-4.4347,-4.4347,-4.4347,-4.4347,-4.4347,-4.4347,-4.4347,-4.4347,-4.4347,-4.4347,-4.4347,-4.4347,-4.4347,-4.4347,-4.4347,-4.4347,-4.4347,-4.4347,-4.4347,-4.447,-4.4594,-4.4717,-4.5086,-4.5453,-4.5926,-4.6383,-4.6849,-4.7298,-4.7977,-4.889,-5.0126,-5.0573,-5.1579,-5.215,-5.238,-5.2837,-5.341,-5.3515,-5.3515,-5.3515,-5.3515,-5.3515,-5.3515,-5.3515,-5.3515,-5.3515,-5.3515,-5.3515,-5.3515,-5.3515,-5.3515,-5.3515,-5.3515,-5.3515,-5.3515,-5.3515,-5.3428,-5.3355,-5.2891,-5.2136,-5.1683,-5.1154,-2.768,-2.8851,-2.9409,-2.983,-3.0543,-3.1392,-3.1815,-3.2105,-3.2824,-3.3112,-3.3251,-3.3381,-3.3391,-3.353,-3.3669,-3.3817,-3.3817,-3.3817,-3.3817,-3.4084,-3.448,-3.5558,-3.6509,-3.7595,-3.8681,-3.9483,-4.0149,-4.0279,-4.0279,-4.0279,-4.0279,-4.0279,-4.0279,-4.0279,-4.0539,-4.0788,-4.1057,-4.1304,-4.1433,-4.2304,-4.3063,-4.3451,-4.3826,-4.4087,-4.4347,-4.4347,-4.4347,-4.4347,-4.4347,-4.4347,-4.4347,-4.4347,-4.4347,-4.4347,-4.4347,-4.4347,-4.4347,-4.4347,-4.4347,-4.4347,-4.4347,-4.4347,-4.4347,-4.4347,-4.4347,-4.4347,-4.4347,-4.4347,-4.4347,-4.4347,-4.4347,-4.4347,-4.447,-4.4717,-4.484,-4.5086,-4.5574,-4.5939,-4.6396,-4.6623,-4.7074,-4.7534,-4.8558,-4.8992,-4.9448,-5.0796,-5.1579,-5.1934,-5.2272,-5.2957,-5.317,-5.317,-5.3515,-5.3515,-5.3515,-5.3515,-5.3515,-5.3515,-5.3515,-5.3515,-5.3515,-5.3515,-5.3515,-5.3515,-5.3515,-5.3515,-5.3515,-5.3515,-5.3515,-5.3515,-5.3413,-5.2978,-5.2573,-5.2033,-5.1517,-2.8925,-2.9668,-3.0501,-3.0977,-3.1534,-3.2666,-3.3103,-3.3242,-3.3669,-3.3817,-3.3817,-3.3817,-3.3817,-3.3817,-3.3817,-3.3817,-3.3817,-3.3817,-3.3946,-3.4746,-3.5148,-3.5967,-3.7059,-3.814,-3.8814,-3.9615,-4.0149,-4.0279,-4.0279,-4.0279,-4.0279,-4.0279,-4.0279,-4.0539,-4.0799,-4.1175,-4.1561,-4.1945,-4.2316,-4.2811,-4.32,-4.3713,-4.3962,-4.4223,-4.4347,-4.4347,-4.4347,-4.4347,-4.4347,-4.4347,-4.4347,-4.4347,-4.4347,-4.4347,-4.4347,-4.4347,-4.4347,-4.4347,-4.4347,-4.4347,-4.4347,-4.4347,-4.4347,-4.4347,-4.4347,-4.4347,-4.4347,-4.4347,-4.4347,-4.4347,-4.4347,-4.4347,-4.4594,-4.4717,-4.4963,-4.5208,-4.5465,-4.583,-4.5951,-4.6059,-4.6408,-4.6755,-4.7205,-4.7756,-4.866,-5.0126,-5.1361,-5.2042,-5.2258,-5.2487,-5.2594,-5.2473,-5.3049,-5.3515,-5.3515,-5.3515,-5.3515,-5.3515,-5.3515,-5.3515,-5.3515,-5.3515,-5.3515,-5.3515,-5.3515,-5.3515,-5.3515,-5.3515,-5.3515,-5.3515,-5.3515,-5.3254,-5.2775,-5.218,-5.1783,-2.9847,-3.0012,-3.1047,-3.1966,-3.2708,-3.3375,-3.3661,-3.3716,-3.3642,-3.3752,-3.3789,-3.3817,-3.3817,-3.3817,-3.3817,-3.3946,-3.4075,-3.4214,-3.4756,-3.5539,-3.5695,-3.6374,-3.7327,-3.814,-3.8946,-3.921,-3.9615,-4.0279,-4.0279,-4.0279,-4.0409,-4.0409,-4.0409,-4.0788,-4.1304,-4.1678,-4.2189,-4.2822,-4.32,-4.3576,-4.3962,-4.4223,-4.4347,-4.4347,-4.4347,-4.4347,-4.4347,-4.4347,-4.4347,-4.4347,-4.4347,-4.4347,-4.4347,-4.4347,-4.4347,-4.4347,-4.4347,-4.4347,-4.4347,-4.4347,-4.4347,-4.4347,-4.4347,-4.4347,-4.4347,-4.4347,-4.4347,-4.4347,-4.4347,-4.4347,-4.4347,-4.4347,-4.447,-4.4717,-4.5086,-4.5331,-4.5574,-4.5951,-4.6072,-4.6193,-4.6301,-4.6528,-4.6648,-4.7205,-4.7873,-4.9448,-5.0014,-5.0809,-5.1811,-5.192,-5.2136,-5.2028,-5.2822,-5.3515,-5.3515,-5.3515,-5.3515,-5.3515,-5.3515,-5.3515,-5.3515,-5.3515,-5.3515,-5.3515,-5.3515,-5.3515,-5.3515,-5.3515,-5.3515,-5.3515,-5.3515,-5.3515,-5.3065,-5.25,-5.2178,-3.0138,-3.0292,-3.1216,-3.1933,-3.2611,-3.2746,-3.29,-3.2881,-3.2881,-3.3248,-3.3716,-3.3789,-3.3771,-3.3707,-3.3845,-3.4102,-3.4661,-3.4567,-3.5665,-3.615,-3.64,-3.6847,-3.8067,-3.8503,-3.9125,-3.9746,-4.0138,-4.0159,-4.0115,-4.03,-4.0506,-4.0906,-4.1002,-4.1226,-4.205,-4.2431,-4.2937,-4.3451,-4.3826,-4.3962,-4.4223,-4.4347,-4.4347,-4.4347,-4.4347,-4.4347,-4.4347,-4.4347,-4.4347,-4.4347,-4.4347,-4.4347,-4.4347,-4.4347,-4.4347,-4.4347,-4.4347,-4.4347,-4.4347,-4.4347,-4.4347,-4.4347,-4.4347,-4.4347,-4.4347,-4.4347,-4.4347,-4.4347,-4.4347,-4.4347,-4.4347,-4.4347,-4.447,-4.4717,-4.5086,-4.5453,-4.5696,-4.6059,-4.6313,-4.6313,-4.6313,-4.6313,-4.6421,-4.6755,-4.7429,-4.7534,-4.7324,-4.8003,-4.9915,-5.0698,-5.1934,-5.215,-5.2957,-5.3515,-5.3515,-5.3515,-5.3515,-5.3515,-5.3515,-5.3515,-5.3515,-5.3515,-5.3515,-5.3515,-5.3515,-5.3515,-5.3515,-5.3515,-5.3515,-5.3515,-5.3515,-5.3515,-5.3312,-5.276,-5.2544,-3.0585,-3.0728,-3.1586,-3.2195,-3.2597,-3.2597,-3.2597,-3.2597,-3.2597,-3.2845,-3.323,-3.3276,-3.3276,-3.3412,-3.3666,-3.3848,-3.4498,-3.4576,-3.5303,-3.6017,-3.679,-3.7467,-3.8062,-3.8786,-3.8916,-3.9496,-3.9624,-3.9591,-3.97,-3.9635,-3.988,-4.0796,-4.1107,-4.1568,-4.2569,-4.3177,-4.3428,-4.3713,-4.4075,-4.4223,-4.4347,-4.4347,-4.4347,-4.4347,-4.4347,-4.4347,-4.4347,-4.4347,-4.4347,-4.4347,-4.4347,-4.4347,-4.4347,-4.4347,-4.4347,-4.4347,-4.4347,-4.4347,-4.4347,-4.4347,-4.4347,-4.4347,-4.4347,-4.4347,-4.4347,-4.4347,-4.4347,-4.4347,-4.4347,-4.4347,-4.4347,-4.4347,-4.4347,-4.4582,-4.4828,-4.5196,-4.5696,-4.6072,-4.6193,-4.6313,-4.6313,-4.6313,-4.6313,-4.6434,-4.71,-4.7873,-4.7324,-4.7547,-4.9019,-4.9802,-5.092,-5.2056,-5.273,-5.3395,-5.3515,-5.3515,-5.3515,-5.3515,-5.3515,-5.3515,-5.3515,-5.3515,-5.3515,-5.3515,-5.3515,-5.3515,-5.3515,-5.3515,-5.3515,-5.3515,-5.3515,-5.3515,-5.3283,-5.3036,-5.2574,-3.0998,-3.1184,-3.2011,-3.2432,-3.2441,-3.2432,-3.2404,-3.2404,-3.2423,-3.2414,-3.2432,-3.2441,-3.2469,-3.297,-3.3378,-3.3245,-3.3567,-3.4496,-3.5179,-3.62,-3.6459,-3.7495,-3.8401,-3.8799,-3.8875,-3.8886,-3.9001,-3.8991,-3.9012,-3.916,-3.9704,-4.0419,-4.1046,-4.1536,-4.2759,-4.3322,-4.3523,-4.3931,-4.4227,-4.4335,-4.4347,-4.4347,-4.4347,-4.4347,-4.4347,-4.4347,-4.4347,-4.4347,-4.4347,-4.4347,-4.4347,-4.4347,-4.4347,-4.4347,-4.4347,-4.4347,-4.4347,-4.4347,-4.4347,-4.4347,-4.4347,-4.4347,-4.4347,-4.4347,-4.4347,-4.4347,-4.4347,-4.4347,-4.4347,-4.4347,-4.4347,-4.4347,-4.4347,-4.4335,-4.4705,-4.5074,-4.5574,-4.6072,-4.6193,-4.6313,-4.6313,-4.6313,-4.6313,-4.6313,-4.6755,-4.7652,-4.821,-4.8775,-4.912,-4.9335,-4.9901,-5.1141,-5.215,-5.2716,-5.329,-5.3515,-5.3515,-5.3515,-5.3515,-5.3515,-5.3515,-5.3515,-5.3515,-5.3515,-5.3515,-5.3515,-5.3515,-5.3515,-5.3515,-5.3515,-5.3515,-5.35,-5.3442,-5.3123,-5.2499,-3.1367,-3.1367,-3.1588,-3.1616,-3.1634,-3.1625,-3.1598,-3.1607,-3.1643,-3.1616,-3.1671,-3.1689,-3.1909,-3.2588,-3.2721,-3.318,-3.4583,-3.5022,-3.6573,-3.8059,-3.734,-3.8078,-3.8592,-3.8543,-3.8761,-3.8603,-3.8412,-3.8657,-3.8304,-3.8913,-3.9848,-4.0456,-4.1195,-4.1766,-4.2601,-4.3106,-4.3196,-4.3561,-4.3724,-4.3755,-4.4087,-4.4223,-4.4347,-4.4347,-4.4347,-4.4347,-4.4347,-4.4347,-4.4347,-4.4347,-4.4347,-4.4347,-4.4347,-4.4347,-4.4347,-4.4347,-4.4347,-4.4347,-4.4347,-4.4347,-4.4347,-4.4347,-4.4347,-4.4347,-4.4347,-4.4347,-4.4347,-4.4347,-4.4347,-4.4347,-4.4347,-4.4347,-4.4347,-4.447,-4.4717,-4.5208,-4.5708,-4.5951,-4.6193,-4.6313,-4.6313,-4.6313,-4.6313,-4.6313,-4.6313,-4.6862,-4.6862,-4.7429,-4.8223,-4.8545,-4.8877,-5.0,-5.1251,-5.2487,-5.329,-5.35,-5.3515,-5.3515,-5.3515,-5.3515,-5.3515,-5.3515,-5.3515,-5.3515,-5.3515,-5.3515,-5.3515,-5.3515,-5.3515,-5.3515,-5.3515,-5.35,-5.3471,-5.3283,-5.2849]}]]